[[{"header":{"parameterUnit":"m.s-1","parameterCategory":1,"la1":31.0,"la2":29.5877,"lo1":-88.7671,"lo2":-86.6584,"dy":0.0162,"dx":0.0185,"nx":115,"ny":88,"refTime":"2023-07-31T18:00:00:Z","depth":0,"parameterNumber":2,"parameterNumberName":"U-component_of_WINDS"},"data":[0.0,0.0,0.0,0.0,0.0,0.0,0.0,0.0,0.0,0.0,0.0,0.0,0.0,0.0,0.0,0.0,0.0,0.0,0.0,0.0,0.0,0.0,0.0,0.0,0.0,0.0,0.0,0.0,0.0,0.0,0.0,0.0,0.0,0.0,0.0,0.0,0.0,0.0,0.0,0.0,0.0,0.0,0.0,0.0,0.0,0.0,0.0,0.0,0.0,0.0,0.0,0.0,0.0,0.0,0.0,0.0,0.0,0.0,0.0,0.0,0.0,0.0,0.0,0.0,0.0,0.0,0.0,0.0,0.0,0.0,0.0,0.0,0.0,0.0,0.0,0.0,0.0,0.0,0.0,0.0,0.0,0.0,0.0,0.0,0.0,0.0,0.0,0.0,0.0,0.0,0.0,0.0,0.0,0.0,0.0,0.0,0.0,0.0,0.0,0.0,0.0,0.0,0.0,0.0,0.0,0.0,0.0,0.0,0.0,0.0,0.0,0.0,0.0,0.0,0.0,0.0,0.0,0.0,0.0,0.0,0.0,0.0,0.0,0.0,0.0,0.0,0.0,0.0,0.0,0.0,0.0,0.0,0.0,0.0,0.0,0.0,0.0,0.0,0.0,0.0,0.0,0.0,0.0,0.0,0.0,0.0,0.0,0.0,0.0,0.0,0.0,0.0,0.0,0.0,0.0,0.0,0.0,0.0,0.0,0.0,0.0,0.0,0.0,0.0,0.0,0.0,0.0,0.0,0.0,0.0,0.0,0.0,0.0,0.0,0.0,0.0,0.0,0.0,0.0,0.0,0.0,0.0,0.0,0.0,0.0,0.0,0.0,0.0,0.0,0.0,0.0,0.0,0.0,0.0,0.0,0.0,0.0,0.0,0.0,0.0,0.0,0.0,0.0,0.0,0.0,0.0,0.0,0.0,0.0,0.0,0.0,0.0,0.0,0.0,0.0,0.0,0.0,0.0,0.0,0.0,0.0,0.0,0.0,0.0,0.0,0.0,0.0,0.0,0.0,0.0,0.0,0.0,0.0,0.0,0.0,0.0,0.0,0.0,0.0,0.0,0.0,0.0,0.0,0.0,0.0,0.0,0.0,0.0,0.0,0.0,0.0,0.0,0.0,0.0,0.0,0.0,0.0,0.0,0.0,0.0,0.0,0.0,0.0,0.0,0.0,0.0,0.0,0.0,0.0,0.0,0.0,0.0,0.0,0.0,0.0,0.0,0.0,0.0,0.0,0.0,0.0,0.0,0.0,0.0,0.0,0.0,0.0,0.0,0.0,0.0,0.0,0.0,0.0,0.0,0.0,0.0,0.0,0.0,0.0,0.0,0.0,0.0,0.0,0.0,0.0,0.0,0.0,0.0,0.0,0.0,0.0,0.0,0.0,0.0,0.0,0.0,0.0,0.0,0.0,0.0,0.0,0.0,0.0,0.0,0.0,0.0,0.0,0.0,0.0,0.0,0.0,0.0,0.0,0.0,0.0,0.0,0.0,0.0,0.0,0.0,0.0,0.0,0.0,0.0,0.0,0.0,0.0,0.0,0.0,0.0,0.0,0.0,0.0,0.0,0.0,0.0,0.0,0.0,0.0,0.0,0.0,0.0,0.0,0.0,0.0,0.0,0.0,0.0,0.0,0.0,0.0,0.0,0.0,0.0,0.0,0.0,0.0,0.0,0.0,0.0,0.0,0.0,0.0,0.0,0.0,0.0,0.0,0.0,0.0,0.0,0.0,0.0,0.0,0.0,0.0,0.0,0.0,0.0,0.0,0.0,0.0,0.0,0.0,0.0,0.0,0.0,0.0,0.0,0.0,0.0,0.0,0.0,0.0,0.0,0.0,0.0,0.0,0.0,0.0,0.0,0.0,0.0,0.0,0.0,0.0,0.0,0.0,0.0,0.0,0.0,0.0,0.0,0.0,0.0,0.0,0.0,0.0,0.0,0.0,0.0,0.0,0.0,0.0,0.0,0.0,0.0,0.0,0.0,0.0,0.0,0.0,0.0,0.0,0.0,0.0,0.0,0.0,0.0,0.0,0.0,0.0,0.0,0.0,0.0,0.0,0.0,0.0,0.0,0.0,0.0,0.0,0.0,0.0,0.0,0.0,0.0,0.0,0.0,0.0,0.0,0.0,0.0,0.0,0.0,0.0,0.0,0.0,0.0,0.0,0.0,0.0,0.0,0.0,0.0,0.0,0.0,0.0,0.0,0.0,0.0,0.0,0.0,0.0,0.0,0.0,0.0,0.0,0.0,0.0,0.0,0.0,0.0,0.0,0.0,0.0,0.0,0.0,0.0,0.0,0.0,0.0,0.0,0.0,0.0,0.0,0.0,0.0,0.0,0.0,0.0,0.0,0.0,0.0,0.0,0.0,0.0,0.0,0.0,0.0,0.0,0.0,0.0,0.0,0.0,0.0,0.0,0.0,0.0,0.0,0.0,0.0,0.0,0.0,0.0,0.0,0.0,0.0,0.0,0.0,0.0,0.0,0.0,0.0,0.0,0.0,0.0,0.0,0.0,0.0,0.0,0.0,0.0,0.0,0.0,0.0,0.0,0.0,0.0,0.0,0.0,0.0,0.0,0.0,0.0,0.0,0.0,0.0,0.0,0.0,0.0,0.0,0.0,0.0,0.0,0.0,0.0,0.0,0.0,0.0,0.0,0.0,0.0,0.0,0.0,0.0,0.0,0.0,0.0,0.0,0.0,0.0,0.0,0.0,0.0,0.0,0.0,0.0,0.0,0.0,0.0,0.0,0.0,0.0,0.0,0.0,0.0,0.0,0.0,0.0,0.0,0.0,0.0,0.0,0.0,0.0,0.0,0.0,0.0,0.0,0.0,0.0,0.0,0.0,0.0,0.0,0.0,0.0,0.0,0.0,0.0,0.0,0.0,0.0,0.0,0.0,0.0,0.0,0.0,0.0,0.0,0.0,0.0,0.0,0.0,0.0,0.0,0.0,0.0,0.0,0.0,0.0,0.0,0.0,0.0,0.0,0.0,0.0,0.0,0.0,0.0,0.0,0.0,0.0,0.0,0.0,0.0,0.0,0.0,0.0,0.0,0.0,0.0,0.0,0.0,0.0,0.0,0.0,0.0,0.0,0.0,0.0,0.0,0.0,0.0,0.0,0.0,0.0,0.0,0.0,0.0,0.0,0.0,0.0,0.0,0.0,0.0,0.0,0.0,0.0,0.0,0.0,0.0,0.0,0.0,0.0,0.0,0.0,0.0,0.0,0.0,0.0,0.0,0.0,0.0,0.0,0.0,0.0,0.0,0.0,0.0,0.0,0.0,0.0,0.0,0.0,0.0,0.0,0.0,0.0,0.0,0.0,0.0,0.0,0.0,0.0,0.0,0.0,0.0,0.0,0.0,0.0,0.0,0.0,0.0,0.0,0.0,0.0,0.0,0.0,0.0,0.0,0.0,0.0,0.0,0.0,0.0,0.0,0.0,0.0,0.0,0.0,0.0,0.0,0.0,0.0,0.0,0.0,0.0,0.0,0.0,0.0,0.0,0.0,0.0,0.0,0.0,0.0,0.0,0.0,0.0,0.0,0.0,0.0,0.0,0.0,0.0,0.0,0.0,0.0,0.0,0.0,0.0,0.0,0.0,0.0,0.0,0.0,0.0,0.0,0.0,0.0,0.0,0.0,0.0,0.0,0.0,0.0,0.0,0.0,0.0,0.0,0.0,0.0,0.0,0.0,0.0,0.0,0.0,0.0,0.0,0.0,0.0,0.0,0.0,0.0,0.0,0.0,0.0,0.0,0.0,0.0,0.0,0.0,0.0,0.0,0.0,0.0,0.0,0.0,0.0,0.0,0.0,0.0,0.0,0.0,0.0,0.0,0.0,0.0,0.0,0.0,0.0,0.0,0.0,0.0,0.0,0.0,0.0,0.0,0.0,0.0,0.0,0.0,0.0,0.0,0.0,0.0,0.0,0.0,0.0,0.0,0.0,0.0,0.0,0.0,0.0,0.0,0.0,0.0,0.0,0.0,0.0,0.0,0.0,0.0,0.0,0.0,0.0,0.0,0.0,0.0,0.0,0.0,0.0,0.0,0.0,0.0,0.0,0.0,0.0,0.0,0.0,0.0,0.0,0.0,0.0,0.0,0.0,0.0,0.0,0.0,0.0,0.0,0.0,0.0,0.0,0.0,0.0,0.0,0.0,0.0,0.0,0.0,0.0,0.0,0.0,0.0,0.0,0.0,0.0,0.0,0.0,0.0,0.0,0.0,0.0,0.0,0.0,0.0,0.0,0.0,0.0,0.0,0.0,0.0,0.0,1.2844,0.0,0.0,0.0,0.0,0.0,0.0,0.0,0.0,0.0,0.0,0.0,0.0,0.0,0.0,0.0,0.0,0.0,0.0,0.0,0.0,0.0,0.0,0.0,0.0,0.0,0.0,0.0,0.0,0.0,0.0,0.0,0.0,0.0,0.0,0.0,0.0,0.0,0.0,0.0,0.0,0.0,0.0,0.0,0.0,0.0,0.0,0.0,0.0,0.0,0.0,0.0,0.0,0.0,0.0,0.0,0.0,0.0,0.0,0.0,0.0,0.0,0.0,0.0,0.0,0.0,0.0,0.0,0.0,0.0,0.0,0.0,0.0,0.0,0.0,0.0,0.0,0.0,0.0,0.0,0.0,0.0,0.0,0.0,0.0,0.0,0.0,0.0,0.0,0.0,0.0,0.0,0.0,0.0,0.0,0.0,0.0,0.0,0.0,0.0,0.0,0.0,0.0,0.0,0.0,0.0,0.0,0.0,0.0,0.0,0.0,1.1012,1.2034,1.0653,1.0455,1.1562,0.0,0.0,0.0,0.0,0.0,0.0,0.0,0.0,0.0,0.0,0.0,0.0,0.0,0.0,0.0,0.0,0.0,0.0,0.0,0.0,0.0,0.0,0.0,0.0,0.0,0.0,0.0,0.0,0.0,0.0,0.0,0.0,0.0,0.0,0.0,0.0,0.0,0.0,0.0,0.0,0.0,0.0,0.0,0.0,0.0,0.0,0.0,0.0,0.0,0.0,0.0,0.0,0.0,0.0,0.0,0.0,0.0,0.0,0.0,0.0,0.0,0.0,0.0,0.0,0.0,0.0,0.0,0.0,0.0,0.0,0.0,0.0,0.0,0.0,0.0,0.0,0.0,0.0,0.0,0.0,0.0,0.0,0.0,0.0,0.0,0.0,0.0,0.0,0.0,0.0,0.0,0.0,0.0,0.0,0.0,0.0,0.0,0.0,0.0,0.0,0.0,0.0,0.0,0.0,0.0,0.0,0.0,0.0,0.0,0.0,0.0,0.0,0.946,0.8921,0.9585,0.0,0.0,0.0,0.0,0.0,0.0,0.0,0.0,0.0,0.0,0.0,0.0,0.0,0.0,0.0,0.0,0.0,0.0,0.0,0.0,0.0,0.0,0.0,0.0,0.0,0.0,0.0,0.0,0.0,0.0,0.0,0.0,0.0,0.0,0.0,0.0,0.0,0.0,0.0,0.0,0.0,0.0,0.0,0.0,0.0,0.0,0.0,0.0,0.0,0.0,0.0,0.0,0.0,0.0,0.0,0.0,0.0,0.0,0.0,0.0,0.0,0.0,0.0,0.0,0.0,0.0,0.0,0.0,0.0,0.0,0.0,0.0,0.0,0.0,0.0,0.0,0.0,0.0,0.0,0.0,0.0,0.0,0.0,0.0,0.0,0.0,0.0,0.0,0.0,0.0,0.0,0.0,0.0,0.0,0.0,0.0,0.0,0.0,0.0,0.0,0.0,0.0,0.0,0.0,0.0,0.0,0.0,0.0,0.0,0.0,0.9576,0.9315,0.8696,0.0,0.6866,0.0,0.0,0.0,0.0,0.0,0.0,0.0,0.0,0.0,0.0,0.0,0.0,0.0,0.0,0.0,0.0,0.0,0.0,0.0,0.0,0.0,0.0,0.0,0.0,0.0,0.0,0.0,0.0,0.0,0.0,0.0,0.0,0.0,0.0,0.0,0.0,0.0,0.0,0.0,0.0,0.0,0.0,0.0,0.0,0.0,0.0,0.0,0.0,0.0,0.0,0.0,0.0,0.0,0.0,0.0,0.0,0.0,0.0,0.0,0.0,0.0,0.0,0.0,0.0,0.0,0.0,0.0,0.0,0.0,0.0,0.0,0.0,0.0,0.0,0.0,0.0,0.0,0.0,0.0,0.0,0.0,0.0,0.0,0.0,0.0,0.0,0.0,0.0,0.0,0.0,0.0,0.0,0.0,0.0,0.0,0.0,0.0,0.0,0.0,0.0,0.0,0.0,0.0,0.0,0.0,0.0,0.0,0.0,0.0,0.0,0.8876,0.8568,0.752,0.6198,0.0,0.0,0.0,0.0,0.0,0.0,0.0,0.0,0.0,0.0,0.0,0.0,0.0,0.0,0.0,0.0,0.0,0.0,0.0,0.0,0.0,0.0,0.0,0.0,0.0,0.0,0.0,0.0,0.0,0.0,0.0,0.0,0.0,0.0,0.0,0.0,0.0,0.0,0.0,0.0,0.0,0.0,0.0,0.0,0.0,0.0,0.0,0.0,0.0,0.0,0.0,0.0,0.0,0.0,0.0,0.0,0.0,0.0,0.0,0.0,0.0,0.0,0.0,0.0,0.0,0.0,0.0,0.0,0.0,0.0,0.0,0.0,0.0,0.0,0.0,0.0,0.0,0.0,0.0,0.0,0.0,0.0,0.0,0.0,0.0,0.0,0.0,0.0,0.0,0.0,0.0,0.0,0.0,0.0,0.0,0.0,0.0,0.0,0.0,0.0,0.0,0.0,0.0,0.0,0.0,0.0,0.0,0.0,0.0,0.0,0.8049,0.795,0.7333,0.5752,0.418,0.2667,0.0,0.0,0.0,0.0,0.0,0.0,0.0,0.0,0.0,0.0,0.0,0.0,0.0,0.0,0.0,0.0,0.0,0.0,0.0,0.0,0.0,0.0,0.0,0.0,0.0,0.0,0.0,0.0,0.0,0.0,0.0,0.0,0.0,0.0,0.0,0.0,0.0,0.0,0.0,0.0,0.0,0.0,0.0,0.0,0.0,0.0,0.0,0.0,0.0,0.0,0.0,0.0,0.0,0.0,0.0,0.0,0.0,0.0,0.0,0.0,0.0,0.0,0.0,0.0,0.0,0.0,0.0,0.0,0.0,0.0,0.0,0.0,0.0,0.0,0.0,0.0,0.0,0.0,0.0,0.0,0.0,0.0,0.0,0.0,0.0,0.0,0.0,0.0,0.0,0.0,0.0,0.0,0.0,0.0,0.0,0.0,0.0,0.0,0.0,0.0,0.0,0.0,0.0,0.0,0.0,0.0,0.0,0.0,0.6475,0.6981,0.6598,0.527,0.3244,0.1723,0.0,0.0,0.0,0.0,0.0,0.0,0.0,0.0,0.0,0.0,0.0,0.0,0.0,0.0,0.0,0.0,0.0,0.0,0.0,0.0,0.0,0.0,0.0,0.0,0.0,0.0,0.0,0.0,0.0,0.0,0.0,0.0,0.0,0.0,0.0,0.0,0.0,0.0,0.0,0.0,0.0,0.0,0.0,0.0,0.0,0.0,0.0,0.0,0.0,0.0,0.0,0.0,0.0,0.0,0.0,0.0,0.0,0.0,0.0,0.0,0.0,0.0,0.0,0.0,0.0,0.0,0.0,0.0,0.0,0.0,0.0,0.0,0.0,0.0,0.0,0.0,0.0,0.0,0.0,0.0,0.0,0.0,0.0,0.0,0.0,0.0,0.0,0.0,0.0,0.0,0.0,0.0,0.0,0.0,0.0,0.0,0.0,0.0,0.0,0.0,0.0,0.0,0.0,0.0,0.0,0.0,0.0,0.0,0.0,0.5037,0.5204,0.4698,0.3518,0.2216,0.0825,0.0,0.0,0.0,0.0,0.0,0.0,0.0,0.0,0.0,0.0,0.0,0.0,0.0,0.0,0.0,0.0,0.0,0.0,0.0,0.0,0.0,0.0,0.0,0.0,0.0,0.0,0.0,0.0,0.0,0.0,0.0,0.0,0.0,0.0,0.0,0.0,0.0,0.0,0.0,0.0,0.0,0.0,0.0,0.0,0.0,0.0,0.0,0.0,0.0,0.0,0.0,0.0,0.0,0.0,0.0,0.0,0.0,0.0,0.0,0.0,0.0,0.0,0.0,0.0,0.0,0.0,0.0,0.0,0.0,0.0,0.0,0.0,0.0,0.0,0.0,0.0,0.0,0.0,0.0,0.0,0.0,0.0,0.0,0.0,0.0,0.0,0.0,0.0,0.0,0.0,0.0,0.0,0.0,0.0,0.0,0.0,0.0,0.0,0.0,0.0,0.0,0.0,0.0,0.0,0.0,0.0,0.0,0.0,0.0,0.3744,0.0,0.2914,0.0,0.1024,-0.0308,0.0,0.0,0.0,0.0,0.0,0.0,0.0,0.0,0.0,0.0,0.0,0.0,0.0,0.0,0.0,0.0,0.0,0.0,0.0,0.0,0.0,0.0,0.0,0.0,0.0,0.0,0.0,0.0,0.0,0.0,0.0,0.0,0.0,0.0,0.0,0.0,0.0,0.0,0.0,0.0,0.0,0.0,0.0,0.0,0.0,0.0,0.0,0.0,0.0,0.0,0.0,0.0,0.0,0.0,0.0,0.0,0.0,0.0,0.0,0.0,0.0,0.0,0.0,0.0,0.0,0.0,0.0,0.0,0.0,0.0,0.0,0.0,0.0,0.0,0.0,0.0,0.0,0.0,0.0,0.0,0.0,0.0,0.0,0.0,0.0,0.0,0.0,0.0,0.0,0.0,0.0,0.0,0.0,0.0,0.0,0.0,0.0,0.0,0.0,0.0,0.0,0.0,0.0,0.0,0.0,0.0,0.0,0.0,0.2695,0.252,0.1836,0.1258,0.0922,-0.0545,-0.1829,0.0,0.0,0.0,0.0,0.0,0.0,0.0,0.0,0.0,0.0,0.0,0.0,0.0,0.0,0.0,0.0,0.0,0.0,0.0,0.0,0.0,0.0,0.0,0.0,0.0,0.0,0.0,0.0,0.0,0.0,0.0,0.0,0.0,0.0,0.0,0.0,0.0,0.0,0.0,0.0,0.0,0.0,0.0,0.0,0.0,0.0,0.0,0.0,0.0,0.0,0.0,0.0,0.0,0.0,0.0,0.0,0.0,0.0,0.0,0.0,0.0,0.0,0.0,0.0,0.0,0.0,0.0,0.0,0.0,0.0,0.0,0.0,0.0,0.0,0.0,0.0,0.0,0.0,0.0,0.0,0.0,0.0,0.0,0.0,0.0,0.0,0.0,0.0,0.0,0.0,0.0,0.0,0.0,0.0,0.0,0.0,0.0,0.0,0.0,0.0,0.0,0.0,0.0,0.0,0.0,0.0,0.0,0.0,0.0,0.0144,-0.0444,-0.1217,-0.2136,-0.2673,-0.3595,0.0,0.0,0.0,0.0,0.0,0.0,0.0,0.0,0.0,0.0,0.0,0.0,0.0,0.0,0.0,0.0,0.0,0.0,0.0,0.0,0.0,0.0,0.0,0.0,0.0,0.0,0.0,0.0,0.0,0.0,0.0,0.0,0.0,0.0,0.0,0.0,0.0,0.0,0.0,0.0,0.0,0.0,0.0,0.0,0.0,0.0,0.0,0.0,0.0,0.0,0.0,0.0,0.0,0.0,0.0,0.0,0.0,0.0,0.0,0.0,0.0,0.0,0.0,0.0,0.0,0.0,0.0,0.0,0.0,0.0,0.0,0.0,0.0,0.0,0.0,0.0,0.0,0.0,0.0,0.0,0.0,0.0,0.0,0.0,0.0,0.0,0.0,0.0,0.0,0.0,0.0,0.0,0.0,0.0,0.0,0.0,0.0,0.0,0.0,0.0,0.0,0.0,0.0,0.0,0.0,0.0,0.0,0.0,0.0,-0.2432,-0.2327,-0.2704,-0.35,-0.3722,-0.438,-0.5436,0.0,0.0,0.0,0.0,0.0,0.0,0.0,0.0,0.0,0.0,0.0,0.0,0.0,0.0,0.0,0.0,0.0,0.0,0.0,0.0,0.0,0.0,0.0,0.0,0.0,0.0,0.0,0.0,0.0,0.0,0.0,0.0,0.0,0.0,0.0,0.0,0.0,0.0,0.0,0.0,0.0,0.0,0.0,0.0,0.0,0.0,0.0,0.0,0.0,0.0,0.0,0.0,0.0,0.0,0.0,0.0,0.0,0.0,0.0,0.0,0.0,0.0,0.0,0.0,0.0,0.0,0.0,0.0,0.0,0.0,0.0,0.0,0.0,0.0,0.0,0.0,0.0,0.0,0.0,0.0,0.0,0.0,0.0,0.0,0.0,0.0,0.0,0.0,0.0,0.0,0.0,0.0,0.0,0.0,0.0,0.0,0.0,0.0,0.0,0.0,0.0,0.0,0.0,0.0,0.0,0.0,0.0,0.0,-0.494,-0.3913,-0.3423,-0.3551,-0.3999,-0.4422,0.0,0.0,0.0,0.0,0.0,0.0,0.0,0.0,0.0,0.0,0.0,0.0,0.0,0.0,0.0,0.0,0.0,0.0,0.0,0.0,0.0,0.0,0.0,0.0,0.0,0.0,0.0,0.0,0.0,0.0,0.0,0.0,0.0,0.0,0.0,0.0,0.0,0.0,0.0,0.0,0.0,0.0,0.0,0.0,0.0,0.0,0.0,0.0,0.0,0.0,0.0,0.0,0.0,0.0,0.0,0.0,0.0,0.0,0.0,0.0,0.0,0.0,0.0,0.0,0.0,0.0,0.0,0.0,0.0,0.0,0.0,0.0,0.0,0.0,0.0,0.0,0.0,0.0,0.0,0.0,0.0,0.0,0.0,0.0,0.0,0.0,0.0,0.0,0.0,0.0,0.0,0.0,0.0,0.0,0.0,0.0,0.0,0.0,0.0,0.0,0.0,0.0,0.0,0.0,0.0,0.0,0.0,0.0,0.0,-0.5547,-0.5529,-0.5365,-0.5044,-0.5247,-0.5557,0.0,0.0,0.0,0.0,0.0,0.0,0.0,0.0,0.0,0.0,0.0,0.0,0.0,0.0,0.0,0.0,0.0,0.0,0.0,0.0,0.0,0.0,0.0,0.0,0.0,0.0,0.0,0.0,0.0,0.0,0.0,0.0,0.0,0.0,0.0,0.0,0.0,0.0,0.0,0.0,0.0,0.0,0.0,0.0,0.0,0.0,0.0,0.0,0.0,0.0,0.0,0.0,0.0,0.0,0.0,0.0,0.0,0.0,0.0,0.0,0.0,0.0,0.0,0.0,0.0,0.0,0.0,0.0,0.0,0.0,0.0,0.0,0.0,0.0,0.0,0.0,0.0,0.0,0.0,0.0,0.0,0.0,0.0,0.0,0.0,0.0,0.0,0.0,0.0,0.0,0.0,0.0,0.0,0.0,0.0,0.0,0.0,0.0,0.0,0.0,0.0,0.0,0.0,0.0,0.0,0.0,0.0,0.0,-0.5527,-0.5901,-0.6228,-0.6256,-0.5851,-0.6014,-0.6152,0.0,0.0,0.0,0.0,0.0,0.0,0.0,0.0,0.0,0.0,0.0,0.0,0.0,0.0,0.0,0.0,0.0,0.0,0.0,0.0,0.0,0.0,0.0,0.0,0.0,0.0,0.0,0.0,0.0,0.0,0.0,0.0,0.0,0.0,0.0,0.0,0.0,0.0,0.0,0.0,0.0,0.0,0.0,0.0,0.0,0.0,0.0,0.0,0.0,0.0,0.0,0.0,0.0,0.0,0.0,0.0,0.0,0.0,0.0,0.0,0.0,0.0,0.0,0.0,0.0,0.0,0.0,0.0,0.0,0.0,0.0,0.0,0.0,0.0,0.0,0.0,0.0,0.0,0.0,0.0,0.0,0.0,0.0,0.0,0.0,0.0,0.0,0.0,0.0,0.0,0.0,0.0,0.0,0.0,0.0,0.0,0.0,0.0,0.0,0.0,0.0,0.0,0.0,0.0,0.0,0.0,0.0,0.0,-0.5498,-0.6027,-0.644,-0.6545,-0.63,-0.6429,-0.6347,0.0,0.0,0.0,0.0,0.0,0.0,0.0,0.0,0.0,0.0,0.0,0.0,0.0,0.0,0.0,0.0,0.0,0.0,0.0,0.0,0.0,0.0,0.0,0.0,0.0,0.0,0.0,0.0,0.0,0.0,0.0,0.0,0.0,0.0,0.0,0.0,0.0,0.0,0.0,0.0,0.0,0.0,0.0,0.0,0.0,0.0,0.0,0.0,0.0,0.0,0.0,0.0,0.0,0.0,0.0,0.0,0.0,0.0,0.0,0.0,0.0,0.0,0.0,0.0,0.0,0.0,0.0,0.0,0.0,0.0,0.0,0.0,0.0,0.0,0.0,0.0,0.0,0.0,0.0,0.0,0.0,0.0,0.0,0.0,0.0,0.0,0.0,0.0,0.0,0.0,0.0,0.0,0.0,0.0,0.0,0.0,0.0,0.0,0.0,0.0,0.0,0.0,0.0,0.0,0.0,0.0,0.0,0.0,-0.5757,-0.6325,-0.6848,-0.7044,-0.6854,-0.662,-0.6553,0.0,0.0,0.0,0.0,0.0,0.0,0.0,0.0,0.0,0.0,0.0,0.0,0.0,0.0,0.0,0.0,0.0,0.0,0.0,0.0,0.0,0.0,0.0,0.0,0.0,0.0,0.0,0.0,0.0,0.0,0.0,0.0,0.0,0.0,0.0,0.0,0.0,0.0,0.0,0.0,0.0,0.0,0.0,0.0,0.0,0.0,0.0,0.0,-1.0075,0.0,0.0,0.0,0.0,0.0,0.0,0.0,0.0,0.0,0.0,0.0,0.0,0.0,0.0,0.0,0.0,0.0,0.0,0.0,0.0,0.0,0.0,0.0,0.0,0.0,0.0,0.0,0.0,0.0,0.0,0.0,0.0,0.0,0.0,0.0,0.0,0.0,0.0,0.0,0.0,0.0,0.0,0.0,0.0,0.0,0.0,0.0,0.0,0.0,0.0,0.0,0.0,0.0,0.0,0.0,0.0,0.0,0.0,0.0,-0.5844,-0.6282,-0.6948,-0.7203,-0.7034,-0.6943,-0.6861,0.0,0.0,0.0,0.0,0.0,0.0,0.0,0.0,0.0,0.0,0.0,0.0,0.0,0.0,0.0,0.0,0.0,0.0,0.0,0.0,0.0,0.0,0.0,0.0,0.0,0.0,0.0,0.0,0.0,0.0,0.0,0.0,0.0,0.0,0.0,0.0,0.0,0.0,0.0,0.0,0.0,0.0,0.0,0.0,0.0,0.0,0.0,0.0,0.0,0.0,0.0,0.0,0.0,0.0,0.0,0.0,0.0,0.0,0.0,0.0,0.0,0.0,0.0,0.0,0.0,0.0,0.0,0.0,0.0,0.0,0.0,0.0,0.0,0.0,0.0,0.0,0.0,0.0,0.0,0.0,0.0,0.0,0.0,0.0,0.0,0.0,0.0,0.0,0.0,0.0,0.0,0.0,0.0,0.0,0.0,0.0,0.0,0.0,0.0,0.0,0.0,0.0,0.0,0.0,0.0,0.0,0.0,-0.5739,-0.6055,-0.6212,-0.6952,-0.7327,-0.7164,-0.7235,-0.7157,-0.695,0.0,0.0,0.0,0.0,0.0,0.0,0.0,0.0,0.0,0.0,0.0,0.0,0.0,0.0,0.0,0.0,0.0,0.0,0.0,0.0,0.0,0.0,0.0,0.0,0.0,0.0,0.0,0.0,0.0,0.0,0.0,0.0,0.0,0.0,0.0,0.0,0.0,0.0,-0.7565,-0.8081,0.0,0.0,0.0,0.0,0.0,0.0,0.0,0.0,-1.0699,0.0,0.0,0.0,0.0,0.0,0.0,0.0,0.0,0.0,0.0,0.0,0.0,0.0,0.0,0.0,0.0,0.0,0.0,0.0,0.0,0.0,0.0,0.0,0.0,0.0,0.0,0.0,0.0,0.0,0.0,0.0,0.0,0.0,0.0,0.0,0.0,0.0,0.0,0.0,0.0,0.0,0.0,0.0,0.0,0.0,0.0,0.0,0.0,0.0,0.0,0.0,0.0,0.0,0.0,0.0,0.0,-0.5389,-0.652,-0.7,-0.6711,-0.7315,-0.7593,-0.7528,-0.7329,-0.7306,-0.7465,0.0,0.0,0.0,0.0,0.0,0.0,0.0,0.0,0.0,0.0,0.0,0.0,0.0,0.0,0.0,0.0,0.0,0.0,0.0,0.0,0.0,0.0,0.0,0.0,0.0,0.0,0.0,0.0,0.0,0.0,0.0,0.0,0.0,0.0,0.0,0.0,0.0,0.0,0.0,-0.8535,-0.8954,0.0,0.0,0.0,0.0,0.0,0.0,0.0,0.0,-1.1789,0.0,0.0,0.0,0.0,0.0,0.0,0.0,0.0,0.0,0.0,0.0,0.0,0.0,0.0,0.0,0.0,0.0,0.0,0.0,0.0,0.0,0.0,0.0,0.0,0.0,0.0,0.0,0.0,0.0,0.0,0.0,0.0,0.0,0.0,0.0,0.0,0.0,0.0,0.0,0.0,0.0,0.0,0.0,0.0,0.0,0.0,0.0,0.0,0.0,0.0,0.0,0.0,0.0,0.0,0.0,-0.5757,-0.6445,-0.6698,-0.6422,-0.7108,-0.7386,-0.72,-0.7209,-0.7451,0.0,0.0,0.0,0.0,0.0,0.0,0.0,0.0,0.0,0.0,0.0,0.0,0.0,0.0,0.0,0.0,0.0,0.0,0.0,0.0,0.0,0.0,0.0,0.0,0.0,0.0,0.0,0.0,0.0,0.0,0.0,0.0,0.0,0.0,0.0,0.0,0.0,0.0,0.0,0.0,-0.9031,-0.9211,-0.8841,0.0,0.0,0.0,0.0,0.0,0.0,-1.1813,-1.2174,0.0,0.0,0.0,0.0,0.0,0.0,0.0,0.0,0.0,0.0,0.0,0.0,0.0,0.0,0.0,0.0,0.0,0.0,0.0,0.0,0.0,0.0,0.0,0.0,0.0,0.0,0.0,0.0,0.0,0.0,0.0,0.0,0.0,0.0,0.0,0.0,0.0,0.0,0.0,0.0,0.0,0.0,0.0,0.0,0.0,0.0,0.0,0.0,0.0,0.0,0.0,0.0,0.0,0.0,0.0,-0.6093,-0.6524,-0.6557,-0.6331,-0.6984,-0.7246,-0.7028,-0.7218,-0.7543,0.0,0.0,0.0,0.0,0.0,0.0,0.0,0.0,0.0,0.0,0.0,0.0,0.0,0.0,0.0,0.0,0.0,0.0,0.0,0.0,0.0,0.0,0.0,0.0,0.0,0.0,0.0,0.0,0.0,0.0,0.0,0.0,0.0,0.0,0.0,0.0,0.0,0.0,0.0,0.0,0.0,-0.947,-0.9351,-0.9734,0.0,0.0,0.0,0.0,-1.1756,-1.2056,0.0,0.0,0.0,0.0,0.0,0.0,0.0,0.0,0.0,0.0,0.0,0.0,0.0,0.0,0.0,0.0,0.0,0.0,0.0,0.0,0.0,0.0,0.0,0.0,0.0,0.0,0.0,0.0,0.0,0.0,0.0,0.0,0.0,0.0,0.0,0.0,0.0,0.0,0.0,0.0,0.0,0.0,0.0,0.0,0.0,0.0,0.0,0.0,0.0,0.0,0.0,0.0,0.0,0.0,0.0,0.0,-0.6514,-0.7534,-0.7821,-0.738,-0.7505,-0.7609,-0.7747,-0.747,-0.7443,0.0,0.0,0.0,0.0,0.0,0.0,0.0,0.0,0.0,0.0,0.0,0.0,0.0,0.0,0.0,0.0,0.0,0.0,0.0,0.0,0.0,0.0,0.0,0.0,0.0,0.0,0.0,0.0,0.0,0.0,0.0,0.0,0.0,0.0,0.0,0.0,0.0,0.0,0.0,0.0,0.0,-0.9779,-0.9828,-1.0103,-1.0396,0.0,0.0,0.0,-1.1995,-1.2312,0.0,0.0,0.0,0.0,0.0,0.0,0.0,0.0,0.0,0.0,0.0,0.0,0.0,0.0,0.0,0.0,0.0,0.0,0.0,0.0,0.0,0.0,0.0,0.0,0.0,0.0,0.0,0.0,0.0,0.0,0.0,0.0,0.0,0.0,0.0,0.0,0.0,0.0,0.0,0.0,0.0,0.0,0.0,0.0,0.0,0.0,0.0,0.0,0.0,0.0,0.0,0.0,0.0,0.0,0.0,-0.6518,-0.6526,-0.6899,-0.7032,-0.6836,-0.7157,-0.7261,-0.723,-0.7341,-0.7639,0.0,0.0,0.0,0.0,0.0,0.0,0.0,0.0,0.0,0.0,0.0,0.0,0.0,0.0,0.0,0.0,0.0,0.0,0.0,0.0,0.0,0.0,0.0,0.0,0.0,0.0,0.0,0.0,0.0,0.0,0.0,0.0,0.0,0.0,0.0,0.0,0.0,0.0,0.0,0.0,0.0,0.0,-1.0303,-1.046,0.0,0.0,0.0,-1.1706,-1.2331,0.0,0.0,0.0,0.0,0.0,0.0,0.0,0.0,0.0,0.0,0.0,0.0,0.0,0.0,0.0,0.0,0.0,0.0,0.0,0.0,0.0,0.0,0.0,0.0,0.0,0.0,0.0,0.0,0.0,0.0,0.0,0.0,0.0,0.0,0.0,0.0,0.0,0.0,0.0,0.0,0.0,0.0,0.0,0.0,0.0,0.0,0.0,0.0,0.0,0.0,0.0,0.0,0.0,0.0,0.0,0.0,0.0,-0.6785,-0.6572,-0.6578,-0.6739,-0.7117,-0.7191,-0.7012,-0.7356,0.0,0.0,0.0,0.0,0.0,0.0,0.0,0.0,0.0,0.0,0.0,0.0,0.0,0.0,0.0,0.0,0.0,0.0,0.0,0.0,0.0,0.0,0.0,0.0,0.0,0.0,0.0,-0.875,0.0,0.0,0.0,0.0,0.0,0.0,0.0,0.0,0.0,0.0,0.0,0.0,0.0,0.0,-1.0559,-1.0794,-1.0877,-1.1067,0.0,0.0,-1.1981,-1.2578,-1.2905,-1.3228,0.0,0.0,0.0,0.0,0.0,0.0,0.0,0.0,0.0,0.0,0.0,0.0,0.0,0.0,0.0,0.0,0.0,0.0,0.0,0.0,0.0,0.0,0.0,0.0,0.0,0.0,0.0,0.0,0.0,0.0,0.0,0.0,0.0,0.0,0.0,0.0,0.0,0.0,0.0,0.0,0.0,0.0,0.0,0.0,0.0,0.0,0.0,0.0,0.0,0.0,0.0,0.0,0.0,0.0,0.0,-0.751,-0.7319,-0.7461,-0.7931,-0.7804,-0.7781,-0.7797,-0.7738,-0.788,0.0,0.0,0.0,0.0,0.0,0.0,0.0,0.0,0.0,0.0,0.0,0.0,0.0,0.0,0.0,0.0,0.0,0.0,0.0,0.0,0.0,0.0,0.0,0.0,0.0,0.0,0.0,0.0,0.0,0.0,0.0,0.0,0.0,0.0,0.0,0.0,0.0,0.0,0.0,0.0,0.0,-1.0956,-1.1214,-1.1434,-1.1528,0.0,0.0,-1.1711,-1.2704,-1.2742,-1.2843,-1.3344,0.0,0.0,0.0,0.0,0.0,0.0,0.0,0.0,0.0,0.0,0.0,0.0,0.0,0.0,0.0,0.0,0.0,0.0,0.0,0.0,0.0,0.0,0.0,0.0,0.0,0.0,0.0,0.0,0.0,0.0,0.0,0.0,0.0,0.0,0.0,0.0,0.0,0.0,0.0,0.0,0.0,0.0,0.0,0.0,0.0,0.0,0.0,0.0,0.0,0.0,0.0,0.0,0.0,-0.728,-0.7609,-0.7287,-0.7435,-0.7958,-0.7809,-0.7802,-0.7895,-0.7987,-0.8119,0.0,0.0,0.0,0.0,0.0,0.0,0.0,0.0,0.0,0.0,0.0,0.0,0.0,0.0,0.0,0.0,0.0,0.0,0.0,0.0,0.0,0.0,0.0,0.0,0.0,0.0,0.0,0.0,-0.7278,-0.7106,-0.7158,0.0,0.0,0.0,0.0,0.0,0.0,0.0,0.0,0.0,0.0,-1.1174,-1.1621,-1.1798,0.0,0.0,-1.1949,-1.2206,-1.2579,-1.2949,-1.3263,-1.3531,-1.3831,0.0,0.0,0.0,0.0,0.0,0.0,0.0,0.0,0.0,0.0,0.0,0.0,0.0,0.0,0.0,0.0,0.0,0.0,0.0,0.0,0.0,0.0,0.0,0.0,0.0,0.0,0.0,0.0,0.0,0.0,0.0,0.0,0.0,0.0,0.0,0.0,0.0,0.0,0.0,0.0,0.0,0.0,0.0,0.0,0.0,0.0,0.0,0.0,0.0,0.0,0.0,0.0,-0.756,-0.7784,-0.7479,-0.7566,-0.807,-0.7995,-0.7999,-0.8131,-0.8322,-0.8532,0.0,0.0,0.0,0.0,0.0,0.0,0.0,0.0,0.0,0.0,0.0,0.0,0.0,0.0,0.0,0.0,0.0,0.0,0.0,0.0,0.0,0.0,0.0,0.0,0.0,0.0,0.0,0.0,-0.7255,-0.7261,-0.7066,0.0,0.0,0.0,0.0,0.0,0.0,0.0,0.0,0.0,0.0,-1.1276,-1.1728,-1.1868,-1.2072,-1.2182,-1.2351,-1.2548,-1.283,-1.325,-1.3549,-1.3586,0.0,0.0,0.0,0.0,0.0,0.0,0.0,0.0,0.0,0.0,0.0,0.0,0.0,0.0,0.0,0.0,0.0,0.0,0.0,0.0,0.0,0.0,0.0,0.0,0.0,0.0,0.0,0.0,0.0,0.0,0.0,0.0,0.0,0.0,0.0,0.0,0.0,0.0,0.0,0.0,0.0,0.0,0.0,0.0,0.0,0.0,0.0,0.0,0.0,0.0,0.0,0.0,0.0,0.0,-0.8259,-0.8066,-0.8102,-0.848,-0.848,-0.8532,-0.8676,-0.8838,-0.9079,-0.955,0.0,0.0,0.0,0.0,0.0,0.0,0.0,0.0,0.0,0.0,0.0,0.0,0.0,0.0,0.0,0.0,0.0,0.0,0.0,0.0,0.0,0.0,0.0,0.0,0.0,0.0,-0.7903,-0.7032,-0.6546,0.0,0.0,0.0,0.0,0.0,0.0,0.0,0.0,0.0,0.0,-1.1023,-1.1175,-1.1477,-1.1628,-1.193,-1.2434,-1.2489,-1.2791,-1.3509,-1.3711,-1.3641,0.0,0.0,0.0,0.0,0.0,0.0,0.0,0.0,0.0,0.0,0.0,0.0,0.0,0.0,0.0,0.0,0.0,0.0,0.0,0.0,0.0,0.0,0.0,0.0,0.0,0.0,0.0,0.0,0.0,0.0,0.0,0.0,0.0,0.0,0.0,0.0,0.0,0.0,0.0,0.0,-1.0517,-1.0414,0.0,0.0,0.0,0.0,0.0,0.0,0.0,0.0,0.0,0.0,0.0,0.0,-0.8562,-0.9037,-0.8821,-0.897,-0.9489,-0.9093,-0.9099,-0.9538,-0.9193,-0.9231,-0.9663,0.0,0.0,0.0,0.0,0.0,0.0,0.0,0.0,0.0,0.0,0.0,0.0,0.0,0.0,0.0,0.0,0.0,0.0,0.0,0.0,0.0,0.0,0.0,0.0,0.0,-0.7804,0.0,0.0,0.0,0.0,0.0,0.0,0.0,0.0,0.0,0.0,0.0,-1.0241,-1.082,-1.1175,-1.1472,-1.1774,-1.2059,-1.2348,0.0,0.0,0.0,0.0,0.0,0.0,0.0,0.0,0.0,0.0,0.0,0.0,0.0,0.0,-1.2591,-1.2527,-1.2323,-1.2126,-1.1927,0.0,0.0,0.0,0.0,0.0,0.0,0.0,0.0,0.0,0.0,0.0,0.0,0.0,0.0,0.0,0.0,-1.4538,0.0,0.0,0.0,0.0,0.0,0.0,0.0,0.0,-1.1126,-1.1344,-1.1508,-1.1482,-1.1552,0.0,-1.1232,-1.0318,0.0,0.0,0.0,0.0,0.0,0.0,0.0,0.0,-0.9162,-0.9429,-0.9439,-0.9639,-0.9956,-0.9603,-0.9653,-1.0086,-0.9826,-0.969,-0.9825,-0.9337,-0.8967,0.0,0.0,0.0,0.0,0.0,0.0,0.0,0.0,0.0,0.0,0.0,0.0,0.0,0.0,0.0,0.0,0.0,0.0,0.0,0.0,0.0,0.0,0.0,-0.8066,0.0,0.0,0.0,0.0,0.0,0.0,0.0,0.0,0.0,-1.0108,-1.03,-1.0565,-1.0972,-1.1396,-1.1662,-1.1912,0.0,0.0,0.0,0.0,0.0,0.0,0.0,-1.4114,-1.4024,-1.4209,-1.438,-1.4185,-1.3848,-1.3608,-1.3671,0.0,0.0,-1.2563,-1.2218,-1.1918,-1.1877,-1.1427,-1.1015,-1.1015,-1.0667,-1.0257,0.0,0.0,0.0,0.0,0.0,0.0,0.0,0.0,-1.4454,-1.47,0.0,-1.4612,0.0,0.0,0.0,0.0,0.0,0.0,0.0,0.0,-1.1651,-1.1776,-1.1947,-1.2161,-1.2173,-1.2043,-1.1969,-1.1886,-1.1801,-1.0635,0.0,0.0,0.0,0.0,0.0,0.0,-0.9627,-0.9431,-0.9914,-1.0143,-1.0094,-1.0006,-1.0102,-1.0293,-1.0565,-1.0439,-1.0043,-1.0155,-0.9938,-0.9213,-0.9356,0.0,0.0,0.0,0.0,0.0,0.0,0.0,0.0,0.0,0.0,0.0,0.0,0.0,0.0,0.0,0.0,0.0,0.0,0.0,0.0,-0.8519,0.0,0.0,0.0,0.0,0.0,0.0,0.0,0.0,0.0,0.0,-1.0845,-1.0794,-1.0887,-1.1243,0.0,0.0,0.0,0.0,-1.2814,-1.3305,-1.3606,-1.3923,-1.4373,-1.4506,-1.4368,-1.3974,0.0,0.0,-1.3912,-1.3904,-1.3939,-1.3942,-1.3432,-1.2951,-1.2615,-1.216,-1.1758,-1.1589,-1.1437,-1.1251,-1.0955,-1.0716,-1.0375,-1.9331,0.0,0.0,0.0,0.0,-1.6505,-1.6266,-1.6198,-1.6077,-1.603,-1.6045,-1.5919,0.0,0.0,0.0,0.0,0.0,0.0,-1.3268,-1.3281,-1.3292,-1.3114,-1.2856,-1.3153,-1.3018,-1.2513,-1.2757,-1.2704,-1.2351,-1.225,-1.1764,-1.0964,0.0,0.0,0.0,0.0,-1.1165,-1.1217,-1.1137,-1.1178,-1.1302,-1.0694,-1.0323,-1.0326,-1.0539,-1.0576,-1.037,-1.0077,-1.0021,-1.021,-0.9779,0.0,0.0,0.0,0.0,0.0,0.0,0.0,0.0,0.0,0.0,0.0,0.0,0.0,0.0,0.0,0.0,0.0,0.0,0.0,-0.8602,-0.8308,-0.8346,0.0,0.0,0.0,0.0,0.0,0.0,0.0,0.0,0.0,-1.1435,-1.1242,-1.119,0.0,0.0,-1.2338,-1.2612,-1.295,-1.3266,-1.3661,0.0,0.0,0.0,-1.4455,-1.4469,-1.435,-1.4332,-1.4304,-1.4329,-1.4308,-1.4323,-1.4332,-1.3932,-1.3523,-1.3212,-1.2715,-1.2297,-1.2172,-1.1867,-1.157,-1.1223,-1.0828,-1.043,-2.0335,-1.9206,-1.8303,-1.7664,-1.7129,-1.6885,-1.6721,-1.6638,-1.6472,-1.6473,-1.6565,-1.6509,-1.6306,-1.5988,-1.5456,0.0,0.0,0.0,-1.4249,-1.4305,-1.4453,-1.4446,-1.4296,-1.4417,-1.4216,-1.3691,-1.3828,-1.3716,-1.3268,-1.3468,-1.3242,-1.2646,0.0,0.0,-1.1886,-1.2217,-1.2416,-1.2507,-1.2434,-1.2373,-1.2298,-1.1592,-1.1137,-1.104,-1.1056,-1.1074,-1.0972,-1.0606,-1.054,-1.0905,-1.0401,-1.0111,0.0,0.0,0.0,0.0,0.0,0.0,0.0,0.0,0.0,0.0,0.0,-0.7886,0.0,0.0,0.0,0.0,-0.8518,-0.8862,-0.8775,-0.8984,0.0,0.0,0.0,0.0,0.0,0.0,0.0,-1.0596,-1.0996,-1.1435,-1.1959,-1.1965,-1.1952,-1.2027,-1.2381,-1.2706,-1.2871,0.0,-1.3735,-1.3932,-1.4267,-1.4455,-1.4396,-1.4455,-1.4515,-1.4515,-1.4515,-1.4515,-1.4515,-1.4515,-1.4515,-1.4488,-1.4236,-1.3929,-1.3674,-1.3349,-1.288,-1.2456,-1.2113,-1.1781,-1.1241,-1.0863,-1.0506,-2.1243,-2.0934,-1.96,-1.8303,-1.7073,-1.6731,-1.6506,-1.636,-1.6173,-1.6278,-1.6705,-1.6565,-1.6479,-1.6349,-1.5824,0.0,0.0,-1.4846,-1.4937,-1.5005,-1.5314,-1.5603,-1.5924,-1.5836,-1.559,-1.5174,-1.5123,-1.485,-1.443,-1.4364,-1.4364,-1.4387,-1.3876,-1.3231,-1.2491,-1.3193,-1.3516,-1.3407,-1.371,-1.3628,-1.3096,-1.2579,-1.2234,-1.2076,-1.1819,-1.1728,-1.1669,-1.1477,-1.1326,-1.1377,-1.1226,-1.1191,-1.1256,0.0,0.0,0.0,0.0,0.0,0.0,0.0,0.0,0.0,0.0,0.0,0.0,0.0,0.0,0.0,-0.8313,0.0,-0.8882,-1.0116,0.0,0.0,0.0,-1.0877,-1.0655,-1.0834,-1.1036,-1.1243,0.0,0.0,0.0,0.0,-1.2851,-1.2526,-1.2792,-1.3006,-1.2872,-1.3534,-1.4019,-1.4156,-1.4336,-1.4515,-1.4455,-1.4515,-1.4515,-1.4515,-1.4515,-1.4515,-1.4515,-1.4515,-1.4515,-1.4515,-1.4387,-1.4258,-1.401,-1.3837,-1.3502,-1.2497,-1.228,-1.1958,-1.1217,-1.0942,-1.067,-2.282,-2.2206,-2.1497,-2.0472,-1.9265,-1.8464,-1.8053,-1.7845,-1.6947,-1.6604,-1.6675,-1.6577,-1.6479,-1.6392,-1.6144,-1.6171,-1.6438,-1.6457,-1.6537,-1.6716,-1.6664,-1.6584,-1.6361,-1.6591,-1.631,-1.5763,-1.6164,-1.5838,-1.5007,-1.5328,-1.5201,-1.4596,-1.5083,-1.4864,-1.4086,-1.4572,-1.468,-1.4428,-1.459,-1.416,-1.3114,-1.252,-1.2166,-1.2076,-1.1918,-1.1828,-1.1719,-1.1619,-1.1728,-1.1877,-1.1868,-1.1646,-1.1187,-1.1036,0.0,0.0,0.0,0.0,0.0,0.0,0.0,0.0,0.0,-0.9,-0.9119,0.0,-0.9681,0.0,-0.8797,-0.8881,-0.9762,-0.9762,0.0,0.0,-1.0691,-1.084,-1.1097,-1.1368,-1.1633,-1.1665,-1.2027,-1.2406,-1.2783,-1.292,-1.3057,-1.3211,-1.3322,-1.3374,-1.3357,-1.3682,-1.407,-1.4198,-1.4396,-1.4515,-1.4515,-1.4515,-1.4515,-1.4515,-1.4515,-1.4515,-1.4515,-1.4515,-1.4515,-1.4515,-1.4387,-1.4258,-1.4043,-1.3872,-1.3554,-1.2929,-1.2714,-1.2497,-1.2004,-1.1524,-1.1138,-2.3586,-2.3086,-2.2816,-2.2222,-2.1309,-2.0018,-1.9275,-1.8873,-1.8218,-1.7653,-1.7117,-1.6807,-1.6746,-1.681,-1.6791,-1.6942,-1.7343,-1.7355,-1.7495,-1.7774,-1.7798,-1.773,-1.7639,-1.7787,-1.7553,-1.6965,-1.73,-1.7075,-1.6406,-1.6656,-1.6537,-1.6074,-1.6318,-1.6206,-1.5781,-1.5669,-1.5644,-1.5532,-1.534,-1.48,-1.3903,-1.3299,-1.2976,-1.2876,-1.2546,-1.2447,-1.2576,-1.2367,-1.2407,-1.2686,-1.2695,-1.2487,-1.2177,-1.1851,-1.1395,0.0,0.0,0.0,0.0,0.0,0.0,0.0,0.0,0.0,0.0,0.0,-1.0358,0.0,-0.9839,0.0,-1.062,-1.049,-1.0623,-1.1129,-1.117,-1.1333,-1.1747,-1.1807,-1.1916,-1.2312,-1.2535,-1.28,-1.316,-1.322,-1.3348,-1.3623,-1.3649,-1.3571,-1.3554,-1.3872,-1.4139,-1.4216,-1.4387,-1.4515,-1.4515,-1.4515,-1.4515,-1.4515,-1.4515,-1.4515,-1.4515,-1.4515,-1.4515,-1.4515,-1.4455,-1.4327,-1.4052,-1.3872,-1.364,-1.3139,-1.2893,-1.259,-1.2177,-1.176,-1.1477,-2.4139,-2.3908,-2.3849,-2.3644,-2.3156,-2.1614,-2.0482,-1.9758,-1.9588,-1.8924,-1.7843,-1.7311,-1.7244,-1.7534,-1.7488,-1.765,-1.7944,-1.7969,-1.8191,-1.8582,-1.8657,-1.8851,-1.9081,-1.9052,-1.8827,-1.8441,-1.8441,-1.8278,-1.8018,-1.8007,-1.8018,-1.7897,-1.7512,-1.729,-1.7245,-1.6627,-1.6353,-1.6431,-1.5984,-1.5484,-1.4911,-1.441,-1.4043,-1.3922,-1.3371,-1.3224,-1.3611,-1.3204,-1.3086,-1.3439,-1.3357,-1.3316,-1.3408,-1.2503,-1.2073,0.0,-1.15,0.0,0.0,0.0,0.0,0.0,0.0,0.0,0.0,-1.0637,-1.0871,-1.1285,-1.1129,-1.1092,-1.1378,-1.1644,-1.1824,-1.172,-1.1754,-1.197,-1.2269,-1.2115,-1.2244,-1.2911,-1.3014,-1.3168,-1.3511,-1.3511,-1.3588,-1.3795,-1.3838,-1.3821,-1.3631,-1.401,-1.4267,-1.4225,-1.4396,-1.4515,-1.4515,-1.4515,-1.4515,-1.4515,-1.4515,-1.4515,-1.4515,-1.4515,-1.4515,-1.4455,-1.4455,-1.4327,-1.401,-1.383,-1.358,-1.3111,-1.2903,-1.2631,-1.215,-1.1941,-1.1651,-2.5591,-2.55,-2.5318,-2.4881,-2.4283,-2.388,-2.27,-2.1046,-2.0221,-1.9462,-1.8903,-1.8344,-1.8113,-1.8228,-1.8088,-1.8307,-1.8758,-1.8771,-1.9046,-1.9558,-1.9455,-1.9453,-1.95,-1.9368,-1.9251,-1.9081,-1.9146,-1.8922,-1.8429,-1.8536,-1.8429,-1.805,-1.7984,-1.7886,0.0,0.0,0.0,0.0,-1.6119,-1.5781,-1.5666,-1.4728,-1.4204,-1.4033,-1.3557,0.0,-1.328,-1.322,-1.3162,-1.3242,-1.3252,0.0,0.0,0.0,0.0,0.0,0.0,0.0,0.0,0.0,0.0,0.0,-1.2273,-1.2013,-1.1616,-1.1771,-1.2166,-1.2636,-1.2228,-1.1878,-1.1957,-1.2026,-1.1878,-1.1481,-1.1601,-1.1814,-1.1899,-1.2415,-1.2834,-1.2963,-1.3228,-1.3494,-1.3683,-1.3761,-1.3778,-1.3916,-1.4096,-1.4139,-1.3923,-1.413,-1.4327,-1.4396,-1.4455,-1.4515,-1.4515,-1.4515,-1.4515,-1.4515,-1.4515,-1.4515,-1.4515,-1.4515,-1.4455,-1.4396,-1.4207,-1.407,-1.389,-1.37,-1.345,-1.3042,-1.2989,-1.2842,-1.2533,-1.2303,-1.2134,-2.6168,0.0,-2.5894,-2.5559,0.0,-2.4655,-2.3864,-2.2694,-2.1617,-2.0657,-1.976,-1.9041,-1.8848,-1.899,-1.8846,-1.909,-1.9573,-1.946,-1.956,-1.9798,-1.9759,-1.9656,-1.9617,-1.9512,-1.946,-1.9396,-1.946,-1.9344,-1.9069,-1.9121,-1.9069,-1.8845,-1.8643,-1.8494,-1.8441,-1.8073,-1.7523,-1.6807,-1.6517,-1.6229,-1.5986,-1.5479,-1.5133,-1.507,0.0,0.0,0.0,0.0,0.0,0.0,0.0,0.0,0.0,0.0,0.0,-1.2993,-1.2693,-1.248,-1.249,-1.251,-1.2665,-1.2974,-1.3199,-1.3103,-1.2561,-1.2887,-1.3068,-1.3068,-1.2949,-1.2768,-1.2528,-1.2511,-1.2378,-1.2017,-1.2111,-1.2229,-1.2406,-1.274,-1.3048,-1.322,-1.3399,-1.3511,-1.364,-1.364,-1.3761,-1.395,-1.4079,-1.4198,-1.4249,-1.4318,-1.4446,-1.4515,-1.4515,-1.4515,-1.4515,-1.4515,-1.4515,-1.4515,-1.4515,-1.4515,-1.4515,-1.4515,-1.4446,-1.4327,-1.4207,-1.4079,-1.383,-1.3571,-1.3338,-1.3042,-1.292,-1.2744,-1.2498,-1.2359,-1.229,-2.6642,-2.6535,-2.6381,-2.6134,-2.5734,-2.5118,-2.465,-2.4209,0.0,0.0,0.0,-2.0134,-1.9877,-1.9917,-1.9806,-1.9887,-2.022,-2.0016,-1.985,-1.985,-1.985,-1.9811,-1.9668,-1.9668,-1.9656,-1.9656,-1.9656,-1.9604,-1.9668,-1.9656,-1.9656,-1.9604,-1.9303,-1.9093,-1.904,-1.8614,-1.8007,-1.7145,-1.6976,-1.6738,-1.6298,-1.6148,-1.6116,-1.6116,-1.5637,-1.5573,-1.5956,-1.549,-1.5405,-1.572,-1.5535,-1.5372,-1.5382,-1.4928,-1.4417,-1.379,-1.3442,-1.3154,-1.2949,-1.307,-1.3214,-1.3242,-1.3737,-1.3818,-1.3433,-1.3699,-1.3725,-1.3358,-1.3566,-1.3519,-1.3092,-1.3065,-1.2928,-1.2683,-1.2718,-1.2846,-1.3035,-1.3165,-1.3312,-1.352,-1.3631,-1.364,-1.37,-1.3692,-1.3752,-1.4052,-1.413,-1.4189,-1.4446,-1.4455,-1.4515,-1.4515,-1.4515,-1.4515,-1.4515,-1.4515,-1.4515,-1.4515,-1.4515,-1.4515,-1.4515,-1.4515,-1.4455,-1.4267,-1.4267,-1.4079,-1.383,-1.3511,-1.3268,-1.305,-1.2797,-1.2621,-1.2428,-1.2305,-1.2243,-2.7944,-2.7896,-2.778,-2.7285,-2.6612,-2.6411,-2.586,-2.5059,-2.3898,-2.3328,-2.3252,-2.2698,-2.2018,-2.1225,-2.0991,-2.0708,-2.0372,-2.022,-2.0118,0.0,-2.0131,-2.008,-1.9939,-1.9939,-1.9875,-1.9747,-1.9798,-1.9747,-1.9747,-1.9747,-1.9747,-1.9759,-1.9708,-1.95,-1.9186,-1.8975,-1.8709,-1.8333,-1.7744,-1.7213,-1.6847,-1.6373,-1.6116,-1.6084,-1.5648,-1.5414,-1.5477,-1.5435,-1.5321,-1.5321,-1.5269,-1.5185,-1.509,-1.4996,-1.4687,-1.4094,-1.3992,-1.365,-1.2969,-1.3221,-1.3609,-1.3932,-1.4274,-1.4249,-1.3846,-1.3732,-1.3896,-1.4218,-1.395,-1.3693,-1.3573,-1.3573,-1.339,-1.3001,-1.3141,-1.3296,-1.3385,-1.3658,-1.3811,-1.3872,-1.3941,-1.395,-1.4079,-1.4139,-1.4207,-1.4345,-1.4336,-1.4446,-1.4455,-1.4515,-1.4515,-1.4515,-1.4515,-1.4515,-1.4515,-1.4515,-1.4515,-1.4515,-1.4515,-1.4515,-1.4515,-1.4515,-1.4387,-1.4079,-1.4079,-1.395,-1.364,-1.3511,-1.3338,-1.305,-1.2928,-1.2805,-1.256,-1.2428,-1.2182,-2.8768,-2.8396,-2.8186,-2.7871,-2.7406,-2.6737,-2.6325,-2.5979,-2.5316,-2.4737,-2.4262,-2.3895,-2.3206,-2.2332,-2.214,-2.1716,-2.1166,-2.0809,-2.0793,-2.1054,-2.0615,-2.0501,-2.0591,-2.0335,-2.0335,-2.0487,-2.0156,-2.0168,-2.0461,-2.0129,-1.9875,-1.9914,-1.9862,-1.9643,-1.9436,-1.9125,-1.8824,-1.8462,-1.8193,-1.8007,-1.7897,-1.7508,-1.7299,-1.7288,-1.7011,-1.6857,-1.6857,-1.6793,-1.6686,-1.6483,-1.6375,-1.6202,-1.6006,-1.5656,-1.5319,-1.5007,-1.4655,-1.4276,-1.3881,-1.407,-1.4308,-1.4572,-1.4681,-1.4718,-1.4531,-1.428,-1.4245,-1.4488,-1.4273,-1.4163,-1.4105,-1.4105,-1.3983,-1.3687,-1.383,-1.3852,-1.3753,-1.3886,-1.401,-1.401,-1.401,-1.401,-1.4139,-1.4139,-1.4207,-1.4345,-1.4455,-1.4515,-1.4515,-1.4515,-1.4515,-1.4515,-1.4515,-1.4515,-1.4515,-1.4515,-1.4515,-1.4515,-1.4515,-1.4515,-1.4515,-1.4455,-1.4258,-1.407,-1.395,-1.3821,-1.3511,-1.3338,-1.3164,-1.305,-1.2867,-1.2683,-1.2498,-1.2313,-1.212,-2.9335,-2.8854,-2.8442,-2.8186,-2.7959,-2.7085,-2.6747,-2.6861,-2.6698,-2.6169,-2.5383,-2.4991,-2.4333,-2.3533,-2.3356,-2.2972,-2.2346,-2.1923,-2.1934,-2.2224,-2.1555,-2.1288,-2.1432,-2.0926,-2.0875,-2.1195,-2.0746,-2.0759,-2.1142,-2.059,-2.0156,-2.0042,-1.9965,-1.9811,-1.9772,-1.9409,-1.9096,-1.8704,-1.8766,-1.863,-1.826,-1.8154,-1.8095,-1.8212,-1.8105,-1.8066,-1.817,-1.8073,-1.7843,-1.7623,-1.7468,-1.7245,-1.7011,-1.6511,-1.6102,-1.5823,-1.5339,-1.4973,-1.478,-1.4755,-1.4857,-1.504,-1.5029,-1.5039,-1.498,-1.4743,-1.4625,-1.4565,-1.4497,-1.4506,-1.4497,-1.4497,-1.4455,-1.4336,-1.4327,-1.424,-1.413,-1.413,-1.413,-1.4139,-1.4139,-1.4139,-1.4139,-1.4139,-1.4198,-1.4327,-1.4455,-1.4515,-1.4515,-1.4515,-1.4515,-1.4515,-1.4515,-1.4515,-1.4515,-1.4515,-1.4515,-1.4515,-1.4515,-1.4455,-1.4446,-1.4336,-1.4207,-1.401,-1.389,-1.37,-1.3511,-1.3329,-1.3164,-1.3111,-1.2928,-1.2621,-1.2367,-1.2243,-1.212,-2.9746,-2.9574,-2.89,-2.8429,-2.8137,-2.7815,-2.767,-2.762,-2.7535,-2.7455,-2.7155,-2.6718,-2.5897,-2.5071,-2.4817,-2.4515,-2.4014,-2.3914,-2.3778,-2.3645,-2.318,-2.2868,-2.2578,-2.1786,-2.1562,-2.1841,-2.1417,-2.143,-2.1863,-2.1245,-2.0707,-2.0246,-2.0182,-2.0182,-2.0118,-2.0105,-1.9991,-1.9851,-1.9509,-1.8659,-1.742,-1.7335,-1.7511,-1.7934,-1.7958,-1.813,-1.8501,-1.8387,-1.8213,-1.8038,-1.7897,-1.7788,-1.7611,-1.7302,-1.6807,-1.6289,-1.5944,-1.5652,-1.5324,-1.4978,-1.498,-1.5303,-1.5137,-1.5039,-1.5039,-1.498,-1.4843,-1.4725,-1.4565,-1.4515,-1.4515,-1.4515,-1.4515,-1.4455,-1.4455,-1.4455,-1.4446,-1.4455,-1.4446,-1.4455,-1.4396,-1.4446,-1.4387,-1.4387,-1.4455,-1.4455,-1.4455,-1.4515,-1.4515,-1.4515,-1.4515,-1.4515,-1.4515,-1.4515,-1.4515,-1.4515,-1.4515,-1.4515,-1.4515,-1.4455,-1.4387,-1.4327,-1.4198,-1.395,-1.3769,-1.37,-1.3571,-1.345,-1.3398,-1.3241,-1.305,-1.2797,-1.2428,-1.2305,-1.2243,-3.0858,-2.9875,-2.9496,-2.8945,-2.8314,-2.8088,-2.7989,-2.7905,-2.779,-2.774,-2.769,-2.7357,-2.6732,-2.5915,-2.5864,-2.5479,-2.4898,-2.4673,-2.4712,-2.4861,-2.4281,-2.3989,-2.3964,-2.2981,-2.2728,-2.3083,-2.226,-2.2075,-2.246,-2.1796,-2.1043,-2.0474,-2.0372,-2.0321,-2.0308,-2.0012,-1.9808,-1.9746,-1.9326,-1.8806,-1.8273,-1.7952,-1.7968,-1.8117,-1.8056,-1.8227,-1.8675,-1.8633,-1.8622,-1.862,-1.8506,-1.8344,-1.8061,-1.7623,-1.7213,-1.6841,-1.6409,-1.6073,-1.5828,-1.5669,-1.5578,-1.5594,-1.5488,-1.5381,-1.5254,-1.5147,-1.5098,-1.4961,-1.4784,-1.4616,-1.4515,-1.4515,-1.4515,-1.4515,-1.4515,-1.4515,-1.4515,-1.4515,-1.4515,-1.4515,-1.4515,-1.4515,-1.4515,-1.4515,-1.4515,-1.4515,-1.4515,-1.4515,-1.4515,-1.4515,-1.4515,-1.4515,-1.4515,-1.4515,-1.4515,-1.4515,-1.4515,-1.4515,-1.4515,-1.4455,-1.4396,-1.4207,-1.407,-1.3941,-1.3761,-1.364,-1.3519,-1.3407,-1.3354,-1.3241,-1.3058,-1.2736,-1.2343,-1.229,-1.2236,-3.1516,-3.0099,-2.9687,-2.9135,-2.8444,-2.8284,-2.8137,-2.8054,-2.7905,-2.7855,-2.784,-2.7725,-2.737,-2.6837,-2.6743,-2.644,-2.5957,-2.5717,-2.5804,-2.6017,-2.5409,-2.5234,-2.5313,-2.4275,-2.4049,-2.4338,-2.3466,-2.3097,-2.3276,-2.2494,-2.1655,-2.1013,-2.0807,-2.0679,-2.0547,-2.0156,-1.9937,-1.985,-1.9447,-1.9192,-1.904,-1.8699,-1.8435,-1.8376,-1.8202,-1.8251,-1.8684,-1.8809,-1.8907,-1.8967,-1.8927,-1.8786,-1.856,-1.8073,-1.7634,-1.719,-1.6761,-1.6363,-1.6181,-1.6114,-1.5999,-1.5846,-1.5788,-1.5672,-1.5478,-1.5371,-1.5264,-1.5205,-1.5088,-1.4902,-1.4616,-1.4506,-1.4515,-1.4634,-1.4634,-1.4625,-1.4734,-1.4734,-1.4734,-1.4734,-1.4743,-1.4565,-1.4515,-1.4515,-1.4515,-1.4515,-1.4515,-1.4515,-1.4515,-1.4515,-1.4515,-1.4515,-1.4515,-1.4515,-1.4515,-1.4515,-1.4515,-1.4515,-1.4515,-1.4446,-1.4387,-1.413,-1.389,-1.3761,-1.3631,-1.3502,-1.3511,-1.3407,-1.3302,-1.3241,-1.305,-1.2736,-1.2482,-1.2421,-1.2182,-3.1198,-3.0164,-2.9218,-2.8825,-2.8589,-2.8332,-2.8235,-2.8201,-2.8039,-2.8005,-2.7955,-2.7855,-2.776,-2.765,-2.752,-2.75,-2.7455,-2.733,-2.7309,-2.7166,-2.6747,-2.6529,-2.6371,-2.5531,-2.5307,-2.5572,-2.4998,-2.439,-2.3905,-2.3535,-2.2814,-2.1706,-2.1614,-2.1427,-2.1014,-2.0921,-2.0795,-2.0568,-2.0259,-1.9921,-1.9603,-1.917,-1.8897,-1.8745,-1.819,-1.8087,-1.8474,-1.8828,-1.8995,-1.9021,-1.9123,-1.9182,-1.9117,-1.8732,-1.8116,-1.7301,-1.6853,-1.6534,-1.642,-1.6239,-1.6114,-1.6114,-1.6019,-1.5856,-1.5778,-1.573,-1.5614,-1.5264,-1.5498,-1.5371,-1.4893,-1.4734,-1.4684,-1.4921,-1.497,-1.5088,-1.5303,-1.5303,-1.5362,-1.5303,-1.5079,-1.4852,-1.4575,-1.4515,-1.4575,-1.4575,-1.4515,-1.4565,-1.4556,-1.4565,-1.4506,-1.4565,-1.4506,-1.4506,-1.4515,-1.4515,-1.4515,-1.4515,-1.4455,-1.4378,-1.4181,-1.3983,-1.3812,-1.37,-1.3571,-1.3511,-1.3511,-1.3459,-1.3407,-1.3294,-1.3172,-1.292,-1.2461,-1.2581,-1.2328,-3.3078,-3.1742,-3.0323,-2.9626,-2.9435,-2.8886,-2.8541,-2.8429,-2.8235,-2.8137,-2.8103,-2.8005,-2.7905,-2.7905,-2.789,-2.774,-2.7625,-2.756,-2.7575,-2.7539,-2.7372,-2.7255,-2.7129,-2.6373,-2.6112,-2.6218,-2.5721,-2.499,-2.4339,-2.4191,-2.3538,-2.2495,-2.2103,-2.1757,-2.1439,-2.1506,-2.1542,-2.144,-2.161,-2.1743,-2.1482,-2.0716,-2.0167,-2.004,-1.8754,-1.8046,-1.808,-1.8474,-1.8788,-1.9093,-1.9241,-1.9328,-1.9263,-1.856,-1.7963,-1.7412,-1.6965,-1.6751,-1.6797,-1.674,-1.6673,-1.6673,-1.6627,-1.6524,-1.641,-1.641,-1.6296,-1.6124,-1.6046,-1.5921,-1.5652,-1.5371,-1.5196,-1.5254,-1.5245,-1.5303,-1.5362,-1.542,-1.542,-1.542,-1.5303,-1.5186,-1.5079,-1.5079,-1.5088,-1.5058,-1.5098,-1.5059,-1.5031,-1.4855,-1.4756,-1.4843,-1.4803,-1.4675,-1.4606,-1.4556,-1.4506,-1.4515,-1.4455,-1.4437,-1.424,-1.4061,-1.3881,-1.3761,-1.364,-1.3485,-1.3468,-1.3434,-1.3391,-1.3245,-1.3072,-1.2778,-1.2468,-1.2518,-1.2261,-3.3545,-3.2353,-3.0943,-3.018,-2.9909,-2.9123,-2.8732,-2.8636,-2.8493,-2.8396,-2.8332,-2.8201,-2.8103,-2.8118,-2.8069,-2.792,-2.7725,-2.7675,-2.7625,-2.756,-2.756,-2.756,-2.75,-2.7046,-2.6876,-2.6879,-2.6352,-2.5707,-2.5166,-2.5059,-2.4476,-2.3543,-2.3004,-2.2602,-2.235,-2.2224,-2.2103,-2.2081,-2.2402,-2.2444,-2.2152,-2.1358,-2.0805,-2.0439,-1.9331,-1.85,-1.8286,-1.8621,-1.8942,-1.9217,-1.942,-1.9473,-1.9263,-1.856,-1.8007,-1.7744,-1.7412,-1.7145,-1.7123,-1.7179,-1.7123,-1.7067,-1.7067,-1.7022,-1.6864,-1.6864,-1.6807,-1.6684,-1.6616,-1.6492,-1.6332,-1.6161,-1.5931,-1.5758,-1.5584,-1.5642,-1.5758,-1.5768,-1.571,-1.5594,-1.5584,-1.5536,-1.5478,-1.542,-1.5439,-1.5469,-1.543,-1.54,-1.5361,-1.5138,-1.4923,-1.5079,-1.4902,-1.4734,-1.4616,-1.4497,-1.4506,-1.4515,-1.4515,-1.4446,-1.4309,-1.413,-1.395,-1.3821,-1.3666,-1.3502,-1.3399,-1.3357,-1.3237,-1.3076,-1.2856,-1.2555,-1.2438,-1.2476,-1.221,-3.2311,-3.1933,-3.094,-3.0434,-3.0036,-2.9202,-2.8794,-2.8779,-2.8732,-2.8747,-2.8636,-2.8508,-2.8363,-2.8348,-2.8152,-2.802,-2.7955,-2.784,-2.7725,-2.7625,-2.761,-2.756,-2.756,-2.75,-2.747,-2.7458,-2.7108,-2.6715,-2.6357,-2.6115,-2.5668,-2.5114,-2.4301,-2.3811,-2.3803,-2.3045,-2.2497,-2.2245,-2.2224,-2.1931,-2.1103,-2.108,-2.0792,-2.0241,-1.9908,-1.9499,-1.8989,-1.9344,-1.9458,-1.9438,-1.9674,-1.9604,-1.9223,-1.8786,-1.8506,-1.8278,-1.8007,-1.7733,-1.7523,-1.7523,-1.7468,-1.7357,-1.7245,-1.7234,-1.7123,-1.7123,-1.7022,-1.692,-1.6965,-1.6955,-1.6864,-1.6853,-1.674,-1.6343,-1.6114,-1.6104,-1.64,-1.642,-1.6249,-1.5999,-1.5931,-1.5826,-1.5652,-1.5652,-1.5652,-1.5662,-1.5652,-1.5584,-1.5575,-1.541,-1.5205,-1.5079,-1.4893,-1.4715,-1.4616,-1.4506,-1.4515,-1.4515,-1.4515,-1.4446,-1.4309,-1.413,-1.395,-1.3812,-1.3493,-1.3314,-1.3151,-1.3091,-1.2937,-1.2794,-1.2575,-1.2495,-1.2497,-1.2503,-1.231,-3.4173,-3.3867,-3.2125,-3.1357,-3.1007,-2.958,-2.8873,-2.8842,-2.8716,-2.8668,-2.8621,-2.8589,-2.8493,-2.846,-2.8396,-2.8284,-2.8137,-2.8088,-2.794,-2.774,-2.7625,-2.7625,-2.756,-2.756,-2.756,-2.756,-2.7473,-2.7188,-2.6864,-2.6692,-2.6321,-2.5632,-2.5169,-2.4461,-2.366,-2.3518,-2.3124,-2.24,-2.2636,-2.2731,-2.2477,-2.2011,-2.1589,-2.1316,-2.0822,-2.0407,-2.0126,-1.9785,-1.9523,-1.9413,-1.9661,-1.9604,-1.9223,-1.8905,-1.8667,-1.8506,-1.8182,-1.8084,-1.8084,-1.7975,-1.7975,-1.7975,-1.792,-1.7799,-1.7744,-1.7744,-1.7634,-1.749,-1.7523,-1.7523,-1.7357,-1.7301,-1.7134,-1.6705,-1.6581,-1.6513,-1.6684,-1.6694,-1.6637,-1.6581,-1.6524,-1.6457,-1.64,-1.6343,-1.6285,-1.6228,-1.6285,-1.6285,-1.6171,-1.5826,-1.571,-1.5584,-1.5177,-1.4706,-1.4597,-1.4556,-1.4515,-1.4515,-1.4515,-1.4515,-1.4318,-1.4121,-1.395,-1.37,-1.3433,-1.3184,-1.3021,-1.2809,-1.2663,-1.2714,-1.2717,-1.2687,-1.2614,-1.2486,-1.2294,-3.5228,-3.4891,-3.2878,-3.1916,-3.1645,-3.0038,-2.9187,-2.9092,-2.9405,-2.9435,-2.9248,-2.909,-2.9009,-2.885,-2.8649,-2.8444,-2.8284,-2.8235,-2.8088,-2.794,-2.774,-2.769,-2.761,-2.756,-2.756,-2.756,-2.756,-2.7458,-2.7188,-2.7225,-2.6982,-2.6476,-2.5827,-2.5162,-2.4296,-2.3879,-2.3325,-2.2953,-2.309,-2.3189,-2.3107,-2.2692,-2.228,-2.1936,-2.1464,-2.1099,-2.0775,-2.026,-1.9917,-1.9808,-1.9839,-1.9643,-1.9368,-1.9117,-1.8905,-1.8786,-1.8614,-1.8464,-1.8518,-1.8422,-1.8356,-1.8367,-1.8259,-1.8139,-1.815,-1.8084,-1.7986,-1.792,-1.7865,-1.7843,-1.7689,-1.759,-1.7423,-1.7211,-1.6976,-1.6864,-1.6807,-1.6761,-1.6761,-1.6751,-1.6761,-1.6807,-1.6864,-1.6807,-1.6807,-1.674,-1.6751,-1.6705,-1.6524,-1.6228,-1.5989,-1.57,-1.5186,-1.4893,-1.4706,-1.4606,-1.4515,-1.4515,-1.4515,-1.4455,-1.4387,-1.413,-1.3941,-1.3656,-1.3348,-1.2946,-1.2749,-1.2595,-1.2466,-1.2646,-1.2749,-1.2636,-1.2505,-1.2394,-1.221,-3.5396,-3.4888,-3.3222,-3.2357,-3.1932,-3.0863,-3.0005,-2.9531,-3.0497,-3.0608,-3.0053,-2.9831,-2.9701,-2.9495,-2.8914,-2.8568,-2.8396,-2.8299,-2.825,-2.8137,-2.794,-2.7775,-2.7675,-2.7625,-2.7625,-2.7625,-2.756,-2.756,-2.7524,-2.7625,-2.7725,-2.7345,-2.6311,-2.569,-2.5374,-2.4161,-2.3456,-2.3331,-2.3207,-2.3119,-2.308,-2.3068,-2.2721,-2.2172,-2.1847,-2.1442,-2.1073,-2.0762,-2.056,-2.0448,-2.0055,-1.9759,-1.9617,-1.9368,-1.9182,-1.9182,-1.9064,-1.8893,-1.8851,-1.8744,-1.8637,-1.8476,-1.8422,-1.8313,-1.8193,-1.8139,-1.8096,-1.803,-1.7963,-1.7909,-1.7854,-1.781,-1.77,-1.7645,-1.7301,-1.7022,-1.6864,-1.6864,-1.6874,-1.6874,-1.6864,-1.6864,-1.7022,-1.692,-1.692,-1.6909,-1.6864,-1.6761,-1.6488,-1.6249,-1.5884,-1.5526,-1.5128,-1.4843,-1.4656,-1.4606,-1.4515,-1.4515,-1.4515,-1.4515,-1.4446,-1.4189,-1.3881,-1.3596,-1.3108,-1.2783,-1.2543,-1.2389,-1.2286,-1.2321,-1.2385,-1.2408,-1.2497,-1.2468,-1.2326,-3.5532,-3.5323,-3.4101,-3.3504,-3.3284,-3.2259,-3.1313,-3.0639,-3.0838,-3.0637,-2.983,-2.999,-2.9895,-2.9122,-2.9386,-2.9102,-2.868,-2.8427,-2.8299,-2.8235,-2.8137,-2.7925,-2.779,-2.774,-2.7675,-2.7625,-2.7625,-2.756,-2.7625,-2.7675,-2.7675,-2.7595,-2.6692,-2.5949,-2.5267,-2.4235,-2.3293,-2.2644,-2.276,-2.2729,-2.2671,-2.3013,-2.3041,-2.2761,-2.2203,-2.1769,-2.1455,-2.0972,-2.0662,-2.0461,-2.0144,-1.9875,-1.9759,-1.946,-1.9275,-1.9223,-1.9105,-1.8987,-1.8946,-1.8839,-1.8744,-1.8703,-1.853,-1.8367,-1.8313,-1.8193,-1.8084,-1.8018,-1.8018,-1.8018,-1.7963,-1.7975,-1.792,-1.7854,-1.7579,-1.7357,-1.7312,-1.72,-1.7155,-1.7166,-1.7155,-1.7211,-1.7211,-1.7155,-1.711,-1.7043,-1.7054,-1.6941,-1.6555,-1.6249,-1.5941,-1.5468,-1.5069,-1.4784,-1.4616,-1.4556,-1.4506,-1.4515,-1.4515,-1.4515,-1.4378,-1.4181,-1.3881,-1.3545,-1.2834,-1.2415,-1.2312,-1.2192,-1.2132,-1.2072,-1.2432,-1.2626,-1.2772,-1.2813,-1.2615,-3.5639,-3.5509,-3.4437,-3.3984,-3.3889,-3.3156,-3.2367,-3.1896,-3.2196,-3.1895,-3.1288,-3.134,-3.1214,-3.0704,-3.0543,-3.0052,-2.9343,-2.9007,-2.8658,-2.8299,-2.8299,-2.8137,-2.7955,-2.789,-2.784,-2.779,-2.769,-2.7675,-2.7675,-2.7675,-2.769,-2.743,-2.6729,-2.5941,-2.5316,-2.4107,-2.327,-2.2729,-2.2735,-2.2752,-2.2712,-2.3243,-2.3324,-2.3097,-2.2523,-2.206,-2.1351,-2.0869,-2.0662,-2.0461,-2.0246,-2.0029,-1.9862,-1.9577,-1.9368,-1.9275,-1.9105,-1.8987,-1.8987,-1.8946,-1.8851,-1.8798,-1.8572,-1.8464,-1.8356,-1.8193,-1.803,-1.8018,-1.8084,-1.803,-1.803,-1.803,-1.803,-1.7975,-1.7799,-1.7634,-1.759,-1.749,-1.7434,-1.7379,-1.7379,-1.7323,-1.7334,-1.7278,-1.7222,-1.7177,-1.7222,-1.6952,-1.6555,-1.6306,-1.5941,-1.542,-1.5069,-1.4843,-1.4675,-1.4556,-1.4506,-1.4515,-1.4515,-1.4515,-1.4264,-1.404,-1.3703,-1.3275,-1.2591,-1.2149,-1.2089,-1.2029,-1.1987,-1.2107,-1.2518,-1.2728,-1.2789,-1.2893,-1.2781,-3.5639,-3.5509,-3.4566,-3.4146,-3.418,-3.3809,-3.3321,-3.2961,-3.3738,-3.3806,-3.3201,-3.3188,-3.2882,-3.3077,-3.1871,-3.1182,-3.0371,-2.9828,-2.9115,-2.8629,-2.8348,-2.825,-2.8118,-2.8005,-2.8005,-2.797,-2.784,-2.779,-2.779,-2.779,-2.7675,-2.737,-2.6492,-2.5828,-2.5342,-2.4117,-2.3354,-2.3122,-2.2985,-2.2898,-2.2994,-2.3419,-2.3527,-2.3163,-2.2683,-2.1915,-2.1128,-2.0712,-2.0662,-2.0524,-2.0296,-2.0131,-1.999,-1.9629,-1.942,-1.9368,-1.9158,-1.904,-1.8999,-1.8987,-1.8946,-1.8851,-1.8732,-1.8572,-1.8422,-1.8259,-1.815,-1.8084,-1.8084,-1.8084,-1.8084,-1.8084,-1.8084,-1.8084,-1.7963,-1.7854,-1.7755,-1.7711,-1.7656,-1.7534,-1.7523,-1.7479,-1.7379,-1.7334,-1.7345,-1.7345,-1.7345,-1.6998,-1.6602,-1.6296,-1.5894,-1.5323,-1.5088,-1.4911,-1.4734,-1.4556,-1.4506,-1.4515,-1.4515,-1.4428,-1.4064,-1.3812,-1.346,-1.2946,-1.2362,-1.2021,-1.1927,-1.1822,-1.1867,-1.1995,-1.2312,-1.2442,-1.2605,-1.2772,-1.273,-3.5639,-3.556,-3.5346,-3.5279,-3.5234,-3.5127,-3.4678,-3.4002,-3.4287,-3.3956,-3.321,-3.3449,-3.3307,-3.2708,-3.2785,-3.2352,-3.1515,-3.0545,-2.9499,-2.8521,-2.8411,-2.8411,-2.8314,-2.8201,-2.8103,-2.8005,-2.784,-2.779,-2.779,-2.774,-2.764,-2.749,-2.6816,-2.6156,-2.5478,-2.4639,-2.3624,-2.2958,-2.3022,-2.2916,-2.2688,-2.3092,-2.335,-2.3094,-2.2496,-2.1754,-2.1059,-2.0762,-2.0699,-2.0599,-2.0372,-2.0118,-2.0067,-1.9772,-1.9512,-1.9368,-1.9275,-1.9117,-1.9052,-1.8999,-1.8999,-1.8946,-1.8786,-1.8679,-1.856,-1.841,-1.8259,-1.815,-1.8084,-1.8139,-1.8139,-1.8084,-1.8139,-1.8084,-1.8084,-1.803,-1.7975,-1.7822,-1.7711,-1.7656,-1.7645,-1.7645,-1.7601,-1.7601,-1.7557,-1.7579,-1.7345,-1.7054,-1.6694,-1.6296,-1.5836,-1.5264,-1.5098,-1.4911,-1.4725,-1.4616,-1.4515,-1.4515,-1.4515,-1.43,-1.3987,-1.3687,-1.3354,-1.2844,-1.2172,-1.1963,-1.1903,-1.1841,-1.185,-1.1987,-1.2081,-1.23,-1.2482,-1.2651,-1.2814,-3.5694,-3.5639,-3.5684,-3.5684,-3.5639,-3.5622,-3.5357,-3.5009,-3.4958,-3.465,-3.4203,-3.4521,-3.433,-3.3922,-3.4024,-3.3639,-3.2569,-3.0989,-2.9547,-2.8616,-2.8411,-2.8411,-2.8411,-2.8348,-2.825,-2.8168,-2.8054,-2.7989,-2.794,-2.7775,-2.7675,-2.763,-2.698,-2.6228,-2.5615,-2.4894,-2.3909,-2.3078,-2.2979,-2.2805,-2.2373,-2.267,-2.2845,-2.2771,-2.2375,-2.1914,-2.098,-2.0762,-2.0542,-2.0286,-2.0073,-2.0039,-2.0144,-1.9862,-1.9604,-1.942,-1.9275,-1.9105,-1.904,-1.8987,-1.8987,-1.8987,-1.8851,-1.8798,-1.8679,-1.8572,-1.8464,-1.8356,-1.8302,-1.8259,-1.8259,-1.8259,-1.8259,-1.8259,-1.8247,-1.8193,-1.8084,-1.7975,-1.7865,-1.781,-1.781,-1.7755,-1.7711,-1.7767,-1.7601,-1.7501,-1.739,-1.7099,-1.6524,-1.6124,-1.5778,-1.5381,-1.5156,-1.4911,-1.4725,-1.4606,-1.4515,-1.4515,-1.4515,-1.4222,-1.3886,-1.3642,-1.3378,-1.2837,-1.2286,-1.2078,-1.1964,-1.1956,-1.1817,-1.1661,-1.1747,-1.2055,-1.2295,-1.2385,-1.2683,-3.5844,-3.5622,-3.5773,-3.5711,-3.5622,-3.5639,-3.5605,-3.5605,-3.5639,-3.5459,-3.5605,-3.5639,-3.538,-3.5481,-3.5237,-3.4622,-3.331,-3.1627,-2.999,-2.8832,-2.8506,-2.8475,-2.8411,-2.8411,-2.8348,-2.8396,-2.8235,-2.8186,-2.8088,-2.7925,-2.779,-2.7685,-2.713,-2.6512,-2.5794,-2.5075,-2.4296,-2.3449,-2.3035,-2.2718,-2.2244,-2.254,-2.256,-2.2353,-2.2414,-2.2005,-2.1136,-2.0785,-2.0515,-1.9982,-1.9846,-1.9907,-1.9964,-1.9851,-1.9595,-1.9337,-1.9282,-1.9223,-1.9105,-1.9052,-1.904,-1.8987,-1.8893,-1.8851,-1.8786,-1.8679,-1.8614,-1.8572,-1.8464,-1.8422,-1.8422,-1.8367,-1.8379,-1.8367,-1.8367,-1.8259,-1.815,-1.8084,-1.803,-1.7963,-1.7909,-1.792,-1.781,-1.781,-1.7656,-1.7434,-1.7323,-1.7088,-1.6524,-1.6009,-1.572,-1.543,-1.5147,-1.4862,-1.4666,-1.4606,-1.4515,-1.4515,-1.4515,-1.4213,-1.3877,-1.3651,-1.3405,-1.3026,-1.2569,-1.2377,-1.2219,-1.2122,-1.1904,-1.1524,-1.1413,-1.1713,-1.1927,-1.2107,-1.2449,-3.5888,-3.5773,-3.5773,-3.5711,-3.5622,-3.5622,-3.5622,-3.5639,-3.5622,-3.5639,-3.5639,-3.5639,-3.5639,-3.5594,-3.5594,-3.4714,-3.3362,-3.1996,-3.0768,-2.9448,-2.8883,-2.8541,-2.8444,-2.846,-2.8411,-2.8348,-2.8299,-2.8235,-2.8137,-2.794,-2.784,-2.776,-2.754,-2.7055,-2.6348,-2.5717,-2.4847,-2.3922,-2.3287,-2.2768,-2.2498,-2.254,-2.255,-2.2251,-2.2288,-2.1877,-2.1272,-2.0924,-2.0772,-2.0581,-2.0505,-2.0184,-1.9804,-1.9468,-1.9308,-1.9196,-1.9304,-1.9334,-1.921,-1.917,-1.9105,-1.8999,-1.8999,-1.8893,-1.8839,-1.8786,-1.8732,-1.8614,-1.8625,-1.8572,-1.856,-1.8464,-1.8422,-1.8367,-1.8313,-1.8139,-1.8139,-1.8084,-1.8084,-1.8018,-1.8018,-1.8018,-1.7975,-1.792,-1.7822,-1.7601,-1.7368,-1.7088,-1.6581,-1.6124,-1.573,-1.5439,-1.5205,-1.4852,-1.4565,-1.4565,-1.4515,-1.4515,-1.4446,-1.4291,-1.3978,-1.3776,-1.3516,-1.3277,-1.3034,-1.2839,-1.2617,-1.2484,-1.2158,-1.1869,-1.1661,-1.1422,-1.1644,-1.1901,-1.2098,-3.6062,-3.5905,-3.5993,-3.5949,-3.58,-3.5711,-3.5711,-3.5684,-3.5622,-3.5639,-3.5639,-3.5639,-3.5639,-3.5639,-3.5639,-3.4806,-3.3535,-3.252,-3.1292,-3.0053,-2.9154,-2.8636,-2.8493,-2.8493,-2.846,-2.8411,-2.8348,-2.8299,-2.8299,-2.8103,-2.8005,-2.794,-2.7775,-2.7345,-2.6699,-2.5961,-2.5193,-2.4354,-2.3599,-2.2994,-2.2704,-2.2726,-2.2539,-2.2324,-2.2278,-2.2029,-2.1642,-2.134,-2.1081,-2.0777,-2.0532,-2.007,-1.963,-1.9486,-1.9413,-1.9169,-1.9246,-1.9329,-1.9319,-1.9328,-1.9263,-1.921,-1.9158,-1.9064,-1.9011,-1.8958,-1.8839,-1.8732,-1.8732,-1.8679,-1.8679,-1.8572,-1.8518,-1.8464,-1.8367,-1.8193,-1.8139,-1.8084,-1.8084,-1.8084,-1.8084,-1.8084,-1.8084,-1.803,-1.7986,-1.7755,-1.7412,-1.7022,-1.6684,-1.6181,-1.573,-1.5371,-1.5079,-1.4852,-1.4565,-1.4515,-1.4515,-1.4515,-1.4455,-1.43,-1.4255,-1.4055,-1.405,-1.3938,-1.3654,-1.3336,-1.3255,-1.3148,-1.2717,-1.2254,-1.1974,-1.1783,-1.1645,-1.1696,-1.1875,-3.6174,-3.6079,-3.6165,-3.614,-3.5932,-3.5861,-3.5773,-3.5728,-3.5622,-3.5639,-3.5639,-3.5622,-3.552,-3.5368,-3.5104,-3.4494,-3.3504,-3.2459,-3.1348,-3.0385,-2.9328,-2.8732,-2.8684,-2.8589,-2.8541,-2.846,-2.8411,-2.8411,-2.8348,-2.825,-2.8186,-2.8088,-2.794,-2.7523,-2.6811,-2.6086,-2.5378,-2.4672,-2.3911,-2.3349,-2.3103,-2.2918,-2.2742,-2.2404,-2.2568,-2.2428,-2.1971,-2.1664,-2.1424,-2.1056,-2.0711,-2.0161,-1.9707,-1.99,-1.9869,-1.9425,-1.9306,-1.9371,-1.9364,-1.942,-1.942,-1.9263,-1.9223,-1.917,-1.9117,-1.8999,-1.8946,-1.8839,-1.8839,-1.8839,-1.8839,-1.8756,-1.8691,-1.856,-1.8464,-1.8313,-1.8139,-1.8084,-1.8084,-1.8084,-1.8084,-1.8084,-1.8084,-1.8084,-1.803,-1.7865,-1.7523,-1.7134,-1.6684,-1.6066,-1.5614,-1.5313,-1.502,-1.4803,-1.4625,-1.4515,-1.4515,-1.4515,-1.4515,-1.4437,-1.4437,-1.4401,-1.4355,-1.4282,-1.4123,-1.3838,-1.3841,-1.3723,-1.3257,-1.2815,-1.2369,-1.2079,-1.1896,-1.1645,-1.161,-3.6276,-3.6165,-3.6182,-3.6036,-3.5861,-3.58,-3.5728,-3.5622,-3.5622,-3.5639,-3.552,-3.5554,-3.5199,-3.4641,-3.4015,-3.3463,-3.2779,-3.2034,-3.1238,-3.0507,-2.95,-2.8905,-2.8779,-2.8636,-2.8621,-2.8541,-2.8444,-2.8411,-2.8348,-2.8284,-2.8235,-2.8186,-2.8057,-2.7622,-2.6955,-2.6273,-2.5652,-2.494,-2.4041,-2.3555,-2.3479,-2.3431,-2.3212,-2.3033,-2.2923,-2.2706,-2.2161,-2.1902,-2.171,-2.1683,-2.1418,-2.105,-2.0707,-2.0644,-2.0528,-2.0348,-2.0191,-2.0042,-1.9697,-1.9569,-1.9403,-1.93,-1.9214,-1.9158,-1.9052,-1.904,-1.8987,-1.8987,-1.8987,-1.8946,-1.8946,-1.894,-1.8822,-1.8649,-1.8464,-1.8356,-1.8193,-1.8193,-1.8193,-1.8139,-1.8193,-1.8139,-1.8084,-1.8084,-1.8084,-1.7854,-1.7579,-1.7179,-1.6684,-1.6066,-1.5498,-1.5196,-1.4951,-1.4725,-1.4634,-1.4515,-1.4515,-1.4515,-1.4515,-1.4515,-1.4515,-1.4515,-1.4515,-1.4382,-1.4319,-1.4282,-1.4209,-1.4045,-1.3693,-1.3255,-1.277,-1.2351,-1.2061,-1.1774,-1.1439,-3.6276,-3.6276,-3.6233,-3.6191,-3.6062,-3.5975,-3.5888,-3.58,-3.565,-3.5368,-3.503,-3.4979,-3.4573,-3.388,-3.3508,-3.3339,-3.2923,-3.2014,-3.1369,-3.0762,-2.9868,-2.9152,-2.8873,-2.8795,-2.8748,-2.8621,-2.8525,-2.8444,-2.8396,-2.8348,-2.8348,-2.8299,-2.8155,-2.7768,-2.7067,-2.6366,-2.5697,-2.494,-2.4145,-2.3614,-2.3479,-2.3279,-2.3062,-2.3012,-2.2918,-2.2686,-2.2516,-2.2385,-2.2292,-2.2292,-2.2058,-2.171,-2.1476,-2.136,-2.1266,-2.0777,-2.0513,-2.021,-1.9868,-1.9696,-1.9433,-1.9258,-1.9282,-1.9396,-1.9146,-1.904,-1.904,-1.8987,-1.8987,-1.904,-1.8999,-1.8917,-1.881,-1.8691,-1.853,-1.8464,-1.8356,-1.8302,-1.8302,-1.8247,-1.8259,-1.8193,-1.8139,-1.8084,-1.8084,-1.792,-1.7579,-1.7078,-1.657,-1.5894,-1.5439,-1.5029,-1.4843,-1.4656,-1.4565,-1.4515,-1.4515,-1.4515,-1.4515,-1.4515,-1.4515,-1.4515,-1.4515,-1.4515,-1.441,-1.4401,-1.4488,-1.4309,-1.4023,-1.3612,-1.3065,-1.268,-1.2228,-1.1653,-1.1412,-3.6284,-3.6284,-3.6284,-3.6301,-3.6276,-3.6105,-3.5899,-3.5642,-3.545,-3.4955,-3.4303,-3.4015,-3.3592,-3.3152,-3.2899,-3.2679,-3.2705,-3.1909,-3.1456,-3.0849,-3.0178,-2.9441,-2.9136,-2.8997,-2.8826,-2.8668,-2.8684,-2.8589,-2.8493,-2.8444,-2.8444,-2.8396,-2.8299,-2.773,-2.7087,-2.655,-2.5986,-2.4911,-2.4128,-2.367,-2.3451,-2.3127,-2.2992,-2.2872,-2.2812,-2.2752,-2.2857,-2.2766,-2.2689,-2.2721,-2.2431,-2.2156,-2.2067,-2.2039,-2.1899,-2.1383,-2.1015,-2.0441,-1.996,-1.9633,-1.9347,-1.923,-1.9282,-1.9408,-1.9251,-1.9146,-1.9186,-1.9291,-1.9146,-1.9146,-1.9105,-1.8946,-1.8839,-1.8744,-1.8625,-1.8625,-1.8572,-1.8464,-1.841,-1.8313,-1.8313,-1.8247,-1.8193,-1.8139,-1.8084,-1.7975,-1.7579,-1.7,-1.6379,-1.57,-1.5371,-1.4961,-1.4815,-1.4638,-1.4538,-1.4497,-1.4506,-1.4469,-1.4469,-1.4497,-1.4488,-1.4506,-1.4515,-1.4515,-1.4488,-1.4515,-1.4506,-1.4469,-1.4346,-1.3941,-1.3474,-1.2885,-1.2351,-1.1739,-1.142,-3.6284,-3.6284,-3.6284,-3.6259,-3.6225,-3.6165,-3.5626,-3.4925,-3.4814,-3.4287,-3.344,-3.2814,-3.2476,-3.2256,-3.185,-3.1579,-3.1427,-3.0972,-3.0817,-3.0533,-2.9984,-2.9569,-2.9284,-2.9073,-2.8888,-2.892,-2.8905,-2.8779,-2.8636,-2.8541,-2.8493,-2.8396,-2.8348,-2.7596,-2.6873,-2.6428,-2.5849,-2.4879,-2.4169,-2.3769,-2.3538,-2.3319,-2.3187,-2.3082,-2.2947,-2.2888,-2.2902,-2.2752,-2.2706,-2.2857,-2.2661,-2.2569,-2.2552,-2.2477,-2.2278,-2.1997,-2.1319,-2.0712,-2.0198,-1.9581,-1.9102,-1.9116,-1.9221,-1.9327,-1.9403,-1.9384,-1.9552,-1.9695,-1.9448,-1.9316,-1.9263,-1.9146,-1.8934,-1.8839,-1.8732,-1.8732,-1.8679,-1.8625,-1.8518,-1.8422,-1.8367,-1.8302,-1.8139,-1.803,-1.7901,-1.7824,-1.7192,-1.6563,-1.5991,-1.539,-1.5225,-1.4942,-1.4796,-1.461,-1.451,-1.4387,-1.4243,-1.4262,-1.4258,-1.435,-1.4433,-1.446,-1.4506,-1.4387,-1.4341,-1.4433,-1.4442,-1.4231,-1.4112,-1.4145,-1.3775,-1.2939,-1.2307,-1.1722,-1.1531,-3.6284,-3.6284,-3.6284,-3.6301,-3.6276,-3.6208,-3.5651,-3.4908,-3.4721,-3.3939,-3.2696,-3.1968,-3.1613,-3.1529,-3.141,-3.119,-3.1151,-3.0871,-3.0667,-3.0136,-2.9556,-2.9323,-2.9179,-2.9195,-2.8857,-2.9194,-2.9213,-2.8951,-2.8621,-2.8668,-2.8541,-2.846,-2.8462,-2.7534,-2.6765,-2.5859,-2.5127,-2.4765,-2.4207,-2.3897,-2.3711,-2.3407,-2.3246,-2.3082,-2.2992,-2.2888,-2.2888,-2.2857,-2.2843,-2.2843,-2.2797,-2.2826,-2.2795,-2.2675,-2.2569,-2.2374,-2.1622,-2.1021,-2.0523,-1.9831,-1.9362,-1.904,-1.9067,-1.9241,-1.956,-1.9661,-1.9734,-1.9759,-1.9656,-1.9565,-1.9146,-1.904,-1.8934,-1.8893,-1.8893,-1.8893,-1.8715,-1.8626,-1.8478,-1.8225,-1.8335,-1.8398,-1.8182,-1.792,-1.7801,-1.7607,-1.6874,-1.614,-1.5578,-1.5166,-1.4965,-1.4773,-1.46,-1.4439,-1.4315,-1.4118,-1.3913,-1.3958,-1.4077,-1.4133,-1.4225,-1.4451,-1.446,-1.4323,-1.4102,-1.4029,-1.3937,-1.3809,-1.38,-1.3862,-1.342,-1.2706,-1.2132,-1.161,-1.1515,-3.6284,-3.6284,-3.6284,-3.6284,-3.6301,-3.6233,-3.5599,-3.4719,-3.4721,-3.3845,-3.228,-3.1529,-3.119,-3.119,-3.119,-3.119,-3.1151,-3.0975,-3.0733,-3.0319,-2.9896,-2.9577,-2.9599,-2.9545,-2.9442,-2.9645,-2.9649,-2.9425,-2.9059,-2.8967,-2.8936,-2.8795,-2.8451,-2.758,-2.6349,-2.5072,-2.4353,-2.4422,-2.4185,-2.394,-2.3754,-2.3494,-2.3275,-2.3127,-2.2978,-2.2888,-2.2888,-2.2888,-2.2888,-2.2888,-2.2888,-2.2857,-2.2826,-2.2735,-2.2629,-2.2289,-2.1911,-2.1332,-2.0813,-2.0293,-1.9615,-1.912,-1.9425,-1.9542,-1.9788,-2.0139,-2.0194,-2.022,-2.0067,-1.9759,-1.9396,-1.95,-1.9291,-1.9263,-1.9198,-1.9121,-1.8722,-1.8498,-1.8263,-1.8052,-1.8054,-1.7943,-1.7658,-1.7349,-1.7075,-1.6888,-1.6439,-1.5659,-1.4984,-1.4661,-1.4648,-1.4496,-1.4364,-1.4184,-1.4052,-1.3875,-1.3728,-1.3728,-1.3765,-1.3793,-1.3931,-1.416,-1.4148,-1.3864,-1.3662,-1.3561,-1.3516,-1.3497,-1.3561,-1.3653,-1.305,-1.2369,-1.1896,-1.1412,-1.1243,-3.6284,-3.6284,-3.6284,-3.6284,-3.6215,-3.6284,-3.5425,-3.4271,-3.4463,-3.3785,-3.2313,-3.1529,-3.119,-3.119,-3.119,-3.119,-3.1151,-3.1112,-3.1032,-3.0811,-3.0236,-3.0419,-3.0427,-3.0194,-2.9861,-3.0123,-3.0146,-3.0,-2.9661,-2.9572,-2.9499,-2.9125,-2.8577,-2.7611,-2.6361,-2.501,-2.4602,-2.4828,-2.4268,-2.3985,-2.3797,-2.3523,-2.3363,-2.3231,-2.3068,-2.2933,-2.2888,-2.2888,-2.2888,-2.2888,-2.2888,-2.2888,-2.2843,-2.2781,-2.2689,-2.2526,-2.2317,-2.1763,-2.0923,-2.0367,-1.9754,-1.9245,-1.9548,-2.0188,-2.0562,-2.0683,-2.0673,-2.066,-2.0623,-2.0459,-2.0321,-2.0118,-1.972,-1.9436,-1.9371,-1.9044,-1.857,-1.8166,-1.7921,-1.7737,-1.7426,-1.7164,-1.6927,-1.6672,-1.631,-1.6051,-1.5794,-1.5246,-1.4532,-1.4346,-1.4441,-1.4263,-1.4122,-1.393,-1.3815,-1.3708,-1.36,-1.353,-1.3495,-1.3513,-1.3515,-1.3645,-1.3553,-1.3323,-1.325,-1.3176,-1.3213,-1.3259,-1.3186,-1.3004,-1.2645,-1.2044,-1.1592,-1.1276,-1.1133,-3.6032,-3.5659,-3.6136,-3.6032,-3.5728,-3.6136,-3.5673,-3.4638,-3.3755,-3.2927,-3.2263,-3.1512,-3.119,-3.119,-3.119,-3.119,-3.1151,-3.0895,-3.0855,-3.0804,-3.0194,-3.022,-3.0344,-3.0318,-3.0153,-3.041,-3.0526,-3.03,-2.9881,-2.9941,-2.9766,-2.9364,-2.8297,-2.7137,-2.5998,-2.4916,-2.4403,-2.4453,-2.4242,-2.4067,-2.3925,-2.3668,-2.3436,-2.3304,-2.3112,-2.2992,-2.2902,-2.2888,-2.2888,-2.2888,-2.2888,-2.2888,-2.2843,-2.2766,-2.2675,-2.2409,-2.2101,-2.1119,-2.0529,-2.0062,-1.9876,-1.9552,-1.9854,-2.0527,-2.0603,-2.0992,-2.1051,-2.097,-2.0908,-2.061,-2.0207,-1.9914,-1.954,-1.9297,-1.9096,-1.8648,-1.8205,-1.7857,-1.7529,-1.7419,-1.7203,-1.6886,-1.6604,-1.6386,-1.6008,-1.5693,-1.5458,-1.5046,-1.44,-1.4301,-1.4321,-1.4087,-1.3908,-1.3694,-1.3559,-1.3374,-1.3237,-1.3086,-1.3138,-1.319,-1.3221,-1.319,-1.3118,-1.2991,-1.2874,-1.2819,-1.2773,-1.27,-1.2432,-1.2193,-1.2039,-1.1825,-1.148,-1.1226,-1.1124,-3.5894,-3.5394,-3.5762,-3.5538,-3.5128,-3.5894,-3.5845,-3.4792,-3.3094,-3.2236,-3.2167,-3.1608,-3.1213,-3.119,-3.119,-3.119,-3.1151,-3.0992,-3.0871,-3.0804,-3.0242,-3.0439,-3.0553,-3.0426,-3.0593,-3.0771,-3.0814,-3.0675,-3.041,-3.0241,-2.977,-2.8932,-2.7798,-2.6621,-2.562,-2.4873,-2.4441,-2.4421,-2.4193,-2.4139,-2.394,-2.3754,-2.3494,-2.3319,-2.3157,-2.3037,-2.2933,-2.2888,-2.2888,-2.2888,-2.2888,-2.2888,-2.2843,-2.2752,-2.2661,-2.2352,-2.1847,-2.0872,-2.022,-2.0275,-1.9872,-1.8992,-2.0066,-2.0698,-2.082,-2.1151,-2.1175,-2.1118,-2.1006,-2.0809,-2.0459,-2.0105,-1.9673,-1.9419,-1.8829,-1.8371,-1.7616,-1.7255,-1.6979,-1.6896,-1.6741,-1.6476,-1.6348,-1.6101,-1.5842,-1.552,-1.5196,-1.4717,-1.4265,-1.4069,-1.3985,-1.3772,-1.3603,-1.3357,-1.3192,-1.3055,-1.2899,-1.2656,-1.2729,-1.2874,-1.2753,-1.2716,-1.2656,-1.2604,-1.2549,-1.2415,-1.2241,-1.2072,-1.2045,-1.1944,-1.1716,-1.1538,-1.1326,-1.1226,-1.1175,-3.5894,-3.5359,-3.5324,-3.4909,-3.4545,-3.548,-3.557,-3.4741,-3.2664,-3.2012,-3.2451,-3.1652,-3.1167,-3.1162,-3.1157,-3.1123,-3.1123,-3.1083,-3.1151,-3.1151,-3.0847,-3.1061,-3.1067,-3.0965,-3.0774,-3.0931,-3.0858,-3.046,-3.0807,-3.0299,-2.9546,-2.8454,-2.725,-2.623,-2.5465,-2.4997,-2.4614,-2.4385,-2.4234,-2.4166,-2.4024,-2.3797,-2.3581,-2.3363,-2.3201,-2.3082,-2.2933,-2.2888,-2.2888,-2.2888,-2.2902,-2.2888,-2.2857,-2.2841,-2.2721,-2.2392,-2.189,-2.0882,-2.0247,-2.037,-2.0026,-1.9418,-2.0283,-2.1043,-2.1253,-2.126,-2.1299,-2.1313,-2.1264,-2.1229,-2.1082,-2.0552,-2.0023,-1.947,-1.8759,-1.7946,-1.7002,-1.6548,-1.6378,-1.6212,-1.6059,-1.5936,-1.601,-1.5854,-1.5549,-1.5295,-1.4925,-1.4444,-1.3998,-1.3561,-1.3472,-1.3372,-1.3155,-1.2949,-1.2852,-1.2861,-1.2812,-1.2725,-1.2578,-1.2632,-1.2426,-1.2336,-1.236,-1.2328,-1.2208,-1.2076,-1.2076,-1.2026,-1.1936,-1.1769,-1.1628,-1.1477,-1.1318,-1.1326,-1.1226,-3.5894,-3.5302,-3.5261,-3.4812,-3.4233,-3.3978,-3.3985,-3.4048,-3.2943,-3.2513,-3.2451,-3.1652,-3.0951,-3.0497,-3.0954,-3.0818,-3.0801,-3.0903,-3.1123,-3.1157,-3.1072,-3.1157,-3.0987,-3.0683,-3.0514,-3.0277,-3.004,-2.9803,-2.9576,-2.9479,-2.8887,-2.7623,-2.7033,-2.6211,-2.5532,-2.5114,-2.4735,-2.4426,-2.4276,-2.4193,-2.4109,-2.3925,-2.3668,-2.3466,-2.3319,-2.3142,-2.2978,-2.2978,-2.2978,-2.2933,-2.2857,-2.2812,-2.2888,-2.2646,-2.2317,-2.151,-2.0962,-2.0381,-2.0392,-1.9806,-1.9459,-1.9762,-2.0234,-2.0338,-2.0731,-2.1043,-2.1247,-2.1274,-2.1192,-2.1042,-2.0783,-2.036,-1.9794,-1.9121,-1.8309,-1.7372,-1.6556,-1.6224,-1.6008,-1.5936,-1.576,-1.5706,-1.5786,-1.5522,-1.5265,-1.5029,-1.469,-1.4275,-1.3857,-1.3471,-1.3152,-1.3085,-1.2939,-1.2822,-1.2774,-1.2793,-1.2832,-1.2783,-1.2627,-1.252,-1.245,-1.237,-1.2243,-1.2135,-1.2076,-1.2076,-1.2076,-1.2026,-1.1968,-1.1868,-1.1719,-1.1519,-1.1368,-1.1318,-1.1226,-3.5036,-3.4476,-3.4402,-3.3796,-3.2902,-3.2288,-3.2216,-3.2268,-3.2056,-3.1871,-3.1615,-3.0865,-3.0398,-3.0285,-3.0573,-3.0552,-3.0243,-3.0835,-3.1055,-3.07,-3.0768,-3.0717,-3.0497,-3.0108,-2.9956,-2.9685,-2.9431,-2.9161,-2.882,-2.8404,-2.7851,-2.742,-2.7028,-2.6124,-2.542,-2.5036,-2.4735,-2.4467,-2.4276,-2.4234,-2.4151,-2.4024,-2.3769,-2.3553,-2.3436,-2.3348,-2.3187,-2.3187,-2.3231,-2.3142,-2.3023,-2.2947,-2.2846,-2.2446,-2.2172,-2.151,-2.1066,-2.0806,-2.0688,-2.024,-2.0017,-1.9905,-1.9901,-1.9826,-1.9944,-2.0216,-2.0623,-2.0847,-2.0799,-2.0671,-2.0334,-1.9991,-1.9292,-1.8635,-1.7709,-1.6754,-1.6327,-1.6029,-1.5876,-1.5828,-1.5703,-1.5603,-1.5492,-1.5244,-1.4994,-1.4808,-1.4573,-1.4294,-1.3958,-1.3604,-1.3334,-1.3152,-1.2958,-1.2764,-1.2774,-1.2774,-1.2783,-1.2783,-1.2676,-1.2569,-1.248,-1.2372,-1.2224,-1.2175,-1.2076,-1.2076,-1.2076,-1.2076,-1.2026,-1.1918,-1.1819,-1.1669,-1.1519,-1.1377,-1.1226,-3.3831,-3.3321,-3.3144,-3.2364,-3.0994,-3.0836,-3.0404,-2.9711,-3.0283,-3.047,-3.0329,-2.9813,-2.9792,-2.9782,-3.0119,-2.9993,-2.9956,-3.0429,-3.0548,-3.004,-3.0006,-3.0006,-2.9786,-2.933,-2.9161,-2.9381,-2.9144,-2.8332,-2.8414,-2.7969,-2.7439,-2.7225,-2.6458,-2.5749,-2.5378,-2.513,-2.4895,-2.4589,-2.4441,-2.44,-2.4193,-2.4024,-2.3855,-2.3581,-2.361,-2.3696,-2.361,-2.3653,-2.3839,-2.3551,-2.3304,-2.3142,-2.2569,-2.2105,-2.1882,-2.1575,-2.096,-2.0815,-2.0556,-2.0164,-1.983,-1.9635,-1.9482,-1.9382,-1.9475,-1.9741,-2.0202,-2.0378,-2.0297,-2.0283,-2.0059,-1.9357,-1.8643,-1.8027,-1.7272,-1.6598,-1.6142,-1.5897,-1.584,-1.5792,-1.5748,-1.5659,-1.557,-1.539,-1.5255,-1.4846,-1.4558,-1.4373,-1.415,-1.3831,-1.3536,-1.3276,-1.2967,-1.2793,-1.2832,-1.2832,-1.2735,-1.2735,-1.2676,-1.2627,-1.2578,-1.2421,-1.2274,-1.2175,-1.2076,-1.2076,-1.2076,-1.2076,-1.2076,-1.1977,-1.1927,-1.1819,-1.1669,-1.1528,-1.1377,-3.4029,-3.3827,-3.3201,-3.2078,-3.0819,-3.0732,-2.9938,-2.8746,-2.8884,-2.9231,-2.966,-2.9863,-2.9501,-2.8832,-2.9607,-2.9536,-2.889,-2.977,-2.9803,-2.9448,-2.9245,-2.9245,-2.9093,-2.8501,-2.8332,-2.8027,-2.7723,-2.7401,-2.7331,-2.7026,-2.6736,-2.6545,-2.6101,-2.5885,-2.5379,-2.5243,-2.513,-2.4766,-2.4766,-2.4645,-2.4441,-2.4374,-2.4276,-2.4094,-2.4094,-2.4009,-2.3925,-2.394,-2.3982,-2.3839,-2.3494,-2.2849,-2.1958,-2.137,-2.1069,-2.084,-2.0429,-2.0315,-2.0271,-1.9961,-1.9544,-1.9697,-1.9583,-1.9223,-1.9179,-1.953,-1.97,-1.9781,-1.9795,-1.9781,-1.9611,-1.8768,-1.8046,-1.7523,-1.6986,-1.6497,-1.5969,-1.5881,-1.5836,-1.5792,-1.576,-1.5715,-1.5626,-1.5525,-1.5435,-1.5198,-1.4915,-1.4731,-1.4523,-1.4255,-1.3831,-1.3515,-1.3082,-1.2899,-1.2852,-1.2832,-1.2735,-1.2735,-1.2735,-1.2676,-1.2627,-1.248,-1.2274,-1.2175,-1.2076,-1.2076,-1.2076,-1.2076,-1.2076,-1.2026,-1.1977,-1.1927,-1.1868,-1.1719,-1.1569,-3.3097,-3.3083,-3.2593,-3.1748,-3.0748,-3.0317,-2.9489,-2.8558,-2.842,-2.8404,-2.8491,-2.8802,-2.8631,-2.7998,-2.8915,-2.8892,-2.8078,-2.9076,-2.9008,-2.8653,-2.8467,-2.8467,-2.8146,-2.7757,-2.7807,-2.7468,-2.6995,-2.6708,-2.6556,-2.6469,-2.6349,-2.5946,-2.5961,-2.5898,-2.5334,-2.5341,-2.5416,-2.5005,-2.4997,-2.4863,-2.4664,-2.4599,-2.4426,-2.4245,-2.4245,-2.4204,-2.4276,-2.4291,-2.4234,-2.3872,-2.3298,-2.2464,-2.1569,-2.0918,-2.0608,-2.0428,-2.0146,-1.978,-1.9908,-1.9754,-1.9378,-1.9768,-1.9963,-1.9654,-1.9072,-1.9287,-1.9257,-1.9241,-1.8818,-1.8764,-1.8938,-1.8382,-1.7791,-1.7218,-1.6896,-1.6467,-1.6088,-1.5881,-1.5836,-1.5792,-1.5748,-1.576,-1.5671,-1.5626,-1.5525,-1.5277,-1.504,-1.496,-1.48,-1.4534,-1.4161,-1.3763,-1.3331,-1.2996,-1.2861,-1.2832,-1.2783,-1.2735,-1.2735,-1.2735,-1.2676,-1.2529,-1.2323,-1.2224,-1.2126,-1.2076,-1.2076,-1.2076,-1.2076,-1.2076,-1.2026,-1.2026,-1.1918,-1.1868,-1.1769,-3.1871,-3.1875,-3.1837,-3.13,-3.0506,-2.9834,-2.9023,-2.8316,-2.823,-2.7902,-2.7489,-2.7454,-2.7616,-2.7809,-2.8066,-2.7861,-2.7961,-2.8484,-2.8281,-2.7858,-2.7689,-2.7672,-2.7469,-2.7131,-2.7249,-2.7215,-2.6859,-2.6556,-2.632,-2.6168,-2.5831,-2.5346,-2.5392,-2.5563,-2.5065,-2.513,-2.546,-2.5038,-2.4882,-2.4866,-2.4791,-2.4673,-2.4371,-2.4281,-2.4343,-2.4465,-2.448,-2.4614,-2.4558,-2.3794,-2.2903,-2.1906,-2.1131,-2.04,-2.02,-1.9981,-1.9769,-1.9691,-1.9879,-1.9992,-2.002,-2.0216,-2.0243,-2.0031,-1.9473,-1.9181,-1.9152,-1.8712,-1.8289,-1.8085,-1.822,-1.8122,-1.7549,-1.7044,-1.6778,-1.6466,-1.6175,-1.5881,-1.5836,-1.5836,-1.5792,-1.576,-1.576,-1.5715,-1.557,-1.5367,-1.5232,-1.5142,-1.4971,-1.4708,-1.4384,-1.3952,-1.3552,-1.3228,-1.2968,-1.2881,-1.2832,-1.2832,-1.2832,-1.2783,-1.2725,-1.2529,-1.2421,-1.2274,-1.2224,-1.2126,-1.2076,-1.2076,-1.2076,-1.2076,-1.2076,-1.2026,-1.2026,-1.1968,-1.1968,-3.1783,-3.1819,-3.1783,-3.1024,-2.9834,-2.9575,-2.8765,-2.7644,-2.754,-2.7402,-2.7333,-2.7299,-2.7324,-2.723,-2.7674,-2.7604,-2.7232,-2.7774,-2.7503,-2.7012,-2.7063,-2.6979,-2.6911,-2.6877,-2.681,-2.6759,-2.6623,-2.6286,-2.5916,-2.5665,-2.5146,-2.4413,-2.503,-2.5159,-2.4963,-2.5118,-2.5273,-2.483,-2.4482,-2.4386,-2.3971,-2.3952,-2.4173,-2.409,-2.4052,-2.4052,-2.4162,-2.4658,-2.4461,-2.367,-2.2348,-2.1355,-2.0599,-1.9932,-1.9653,-1.9541,-1.9329,-1.9255,-1.9407,-1.9735,-1.9879,-2.0357,-2.0525,-2.0845,-2.0351,-1.997,-1.9679,-1.8905,-1.8481,-1.8072,-1.8058,-1.7812,-1.7323,-1.7031,-1.6723,-1.6423,-1.6088,-1.5957,-1.5913,-1.5836,-1.5792,-1.5792,-1.5792,-1.5748,-1.5703,-1.5558,-1.5412,-1.5334,-1.5119,-1.4846,-1.4616,-1.4186,-1.3752,-1.344,-1.3123,-1.2978,-1.2881,-1.2881,-1.2881,-1.2832,-1.2725,-1.2569,-1.2471,-1.2372,-1.2224,-1.2116,-1.2126,-1.2126,-1.2076,-1.2076,-1.2076,-1.2076,-1.2076,-1.2076,-1.2026]},{"header":{"parameterUnit":"m.s-1","parameterCategory":1,"la1":31.0,"la2":29.5877,"lo1":-88.7671,"lo2":-86.6584,"dy":0.0162,"dx":0.0185,"nx":115,"ny":88,"refTime":"2023-07-31T18:00:00:Z","depth":0,"parameterNumber":3,"parameterNumberName":"V-component_of_WINDS"},"data":[0.0,0.0,0.0,0.0,0.0,0.0,0.0,0.0,0.0,0.0,0.0,0.0,0.0,0.0,0.0,0.0,0.0,0.0,0.0,0.0,0.0,0.0,0.0,0.0,0.0,0.0,0.0,0.0,0.0,0.0,0.0,0.0,0.0,0.0,0.0,0.0,0.0,0.0,0.0,0.0,0.0,0.0,0.0,0.0,0.0,0.0,0.0,0.0,0.0,0.0,0.0,0.0,0.0,0.0,0.0,0.0,0.0,0.0,0.0,0.0,0.0,0.0,0.0,0.0,0.0,0.0,0.0,0.0,0.0,0.0,0.0,0.0,0.0,0.0,0.0,0.0,0.0,0.0,0.0,0.0,0.0,0.0,0.0,0.0,0.0,0.0,0.0,0.0,0.0,0.0,0.0,0.0,0.0,0.0,0.0,0.0,0.0,0.0,0.0,0.0,0.0,0.0,0.0,0.0,0.0,0.0,0.0,0.0,0.0,0.0,0.0,0.0,0.0,0.0,0.0,0.0,0.0,0.0,0.0,0.0,0.0,0.0,0.0,0.0,0.0,0.0,0.0,0.0,0.0,0.0,0.0,0.0,0.0,0.0,0.0,0.0,0.0,0.0,0.0,0.0,0.0,0.0,0.0,0.0,0.0,0.0,0.0,0.0,0.0,0.0,0.0,0.0,0.0,0.0,0.0,0.0,0.0,0.0,0.0,0.0,0.0,0.0,0.0,0.0,0.0,0.0,0.0,0.0,0.0,0.0,0.0,0.0,0.0,0.0,0.0,0.0,0.0,0.0,0.0,0.0,0.0,0.0,0.0,0.0,0.0,0.0,0.0,0.0,0.0,0.0,0.0,0.0,0.0,0.0,0.0,0.0,0.0,0.0,0.0,0.0,0.0,0.0,0.0,0.0,0.0,0.0,0.0,0.0,0.0,0.0,0.0,0.0,0.0,0.0,0.0,0.0,0.0,0.0,0.0,0.0,0.0,0.0,0.0,0.0,0.0,0.0,0.0,0.0,0.0,0.0,0.0,0.0,0.0,0.0,0.0,0.0,0.0,0.0,0.0,0.0,0.0,0.0,0.0,0.0,0.0,0.0,0.0,0.0,0.0,0.0,0.0,0.0,0.0,0.0,0.0,0.0,0.0,0.0,0.0,0.0,0.0,0.0,0.0,0.0,0.0,0.0,0.0,0.0,0.0,0.0,0.0,0.0,0.0,0.0,0.0,0.0,0.0,0.0,0.0,0.0,0.0,0.0,0.0,0.0,0.0,0.0,0.0,0.0,0.0,0.0,0.0,0.0,0.0,0.0,0.0,0.0,0.0,0.0,0.0,0.0,0.0,0.0,0.0,0.0,0.0,0.0,0.0,0.0,0.0,0.0,0.0,0.0,0.0,0.0,0.0,0.0,0.0,0.0,0.0,0.0,0.0,0.0,0.0,0.0,0.0,0.0,0.0,0.0,0.0,0.0,0.0,0.0,0.0,0.0,0.0,0.0,0.0,0.0,0.0,0.0,0.0,0.0,0.0,0.0,0.0,0.0,0.0,0.0,0.0,0.0,0.0,0.0,0.0,0.0,0.0,0.0,0.0,0.0,0.0,0.0,0.0,0.0,0.0,0.0,0.0,0.0,0.0,0.0,0.0,0.0,0.0,0.0,0.0,0.0,0.0,0.0,0.0,0.0,0.0,0.0,0.0,0.0,0.0,0.0,0.0,0.0,0.0,0.0,0.0,0.0,0.0,0.0,0.0,0.0,0.0,0.0,0.0,0.0,0.0,0.0,0.0,0.0,0.0,0.0,0.0,0.0,0.0,0.0,0.0,0.0,0.0,0.0,0.0,0.0,0.0,0.0,0.0,0.0,0.0,0.0,0.0,0.0,0.0,0.0,0.0,0.0,0.0,0.0,0.0,0.0,0.0,0.0,0.0,0.0,0.0,0.0,0.0,0.0,0.0,0.0,0.0,0.0,0.0,0.0,0.0,0.0,0.0,0.0,0.0,0.0,0.0,0.0,0.0,0.0,0.0,0.0,0.0,0.0,0.0,0.0,0.0,0.0,0.0,0.0,0.0,0.0,0.0,0.0,0.0,0.0,0.0,0.0,0.0,0.0,0.0,0.0,0.0,0.0,0.0,0.0,0.0,0.0,0.0,0.0,0.0,0.0,0.0,0.0,0.0,0.0,0.0,0.0,0.0,0.0,0.0,0.0,0.0,0.0,0.0,0.0,0.0,0.0,0.0,0.0,0.0,0.0,0.0,0.0,0.0,0.0,0.0,0.0,0.0,0.0,0.0,0.0,0.0,0.0,0.0,0.0,0.0,0.0,0.0,0.0,0.0,0.0,0.0,0.0,0.0,0.0,0.0,0.0,0.0,0.0,0.0,0.0,0.0,0.0,0.0,0.0,0.0,0.0,0.0,0.0,0.0,0.0,0.0,0.0,0.0,0.0,0.0,0.0,0.0,0.0,0.0,0.0,0.0,0.0,0.0,0.0,0.0,0.0,0.0,0.0,0.0,0.0,0.0,0.0,0.0,0.0,0.0,0.0,0.0,0.0,0.0,0.0,0.0,0.0,0.0,0.0,0.0,0.0,0.0,0.0,0.0,0.0,0.0,0.0,0.0,0.0,0.0,0.0,0.0,0.0,0.0,0.0,0.0,0.0,0.0,0.0,0.0,0.0,0.0,0.0,0.0,0.0,0.0,0.0,0.0,0.0,0.0,0.0,0.0,0.0,0.0,0.0,0.0,0.0,0.0,0.0,0.0,0.0,0.0,0.0,0.0,0.0,0.0,0.0,0.0,0.0,0.0,0.0,0.0,0.0,0.0,0.0,0.0,0.0,0.0,0.0,0.0,0.0,0.0,0.0,0.0,0.0,0.0,0.0,0.0,0.0,0.0,0.0,0.0,0.0,0.0,0.0,0.0,0.0,0.0,0.0,0.0,0.0,0.0,0.0,0.0,0.0,0.0,0.0,0.0,0.0,0.0,0.0,0.0,0.0,0.0,0.0,0.0,0.0,0.0,0.0,0.0,0.0,0.0,0.0,0.0,0.0,0.0,0.0,0.0,0.0,0.0,0.0,0.0,0.0,0.0,0.0,0.0,0.0,0.0,0.0,0.0,0.0,0.0,0.0,0.0,0.0,0.0,0.0,0.0,0.0,0.0,0.0,0.0,0.0,0.0,0.0,0.0,0.0,0.0,0.0,0.0,0.0,0.0,0.0,0.0,0.0,0.0,0.0,0.0,0.0,0.0,0.0,0.0,0.0,0.0,0.0,0.0,0.0,0.0,0.0,0.0,0.0,0.0,0.0,0.0,0.0,0.0,0.0,0.0,0.0,0.0,0.0,0.0,0.0,0.0,0.0,0.0,0.0,0.0,0.0,0.0,0.0,0.0,0.0,0.0,0.0,0.0,0.0,0.0,0.0,0.0,0.0,0.0,0.0,0.0,0.0,0.0,0.0,0.0,0.0,0.0,0.0,0.0,0.0,0.0,0.0,0.0,0.0,0.0,0.0,0.0,0.0,0.0,0.0,0.0,0.0,0.0,0.0,0.0,0.0,0.0,0.0,0.0,0.0,0.0,0.0,0.0,0.0,0.0,0.0,0.0,0.0,0.0,0.0,0.0,0.0,0.0,0.0,0.0,0.0,0.0,0.0,0.0,0.0,0.0,0.0,0.0,0.0,0.0,0.0,0.0,0.0,0.0,0.0,0.0,0.0,0.0,0.0,0.0,0.0,0.0,0.0,0.0,0.0,0.0,0.0,0.0,0.0,0.0,0.0,0.0,0.0,0.0,0.0,0.0,0.0,0.0,0.0,0.0,0.0,0.0,0.0,0.0,0.0,0.0,0.0,0.0,0.0,0.0,0.0,0.0,0.0,0.0,0.0,0.0,0.0,0.0,0.0,0.0,0.0,0.0,0.0,0.0,0.0,0.0,0.0,0.0,0.0,0.0,0.0,0.0,0.0,0.0,0.0,0.0,0.0,0.0,0.0,0.0,0.0,0.0,0.0,0.0,0.0,0.0,0.0,0.0,0.0,0.0,0.0,0.0,0.0,0.0,0.0,0.0,0.0,0.0,0.0,0.0,0.0,0.0,0.0,0.0,0.0,0.0,0.0,0.0,0.0,0.0,0.0,0.0,0.0,0.0,0.0,0.0,0.0,0.0,0.0,0.0,0.0,0.0,0.0,0.0,0.0,0.0,0.0,0.0,0.0,0.0,0.0,0.0,0.0,0.0,0.0,0.0,0.0,0.0,0.0,0.0,0.0,0.0,0.0,0.0,0.0,0.0,0.0,-0.7083,0.0,0.0,0.0,0.0,0.0,0.0,0.0,0.0,0.0,0.0,0.0,0.0,0.0,0.0,0.0,0.0,0.0,0.0,0.0,0.0,0.0,0.0,0.0,0.0,0.0,0.0,0.0,0.0,0.0,0.0,0.0,0.0,0.0,0.0,0.0,0.0,0.0,0.0,0.0,0.0,0.0,0.0,0.0,0.0,0.0,0.0,0.0,0.0,0.0,0.0,0.0,0.0,0.0,0.0,0.0,0.0,0.0,0.0,0.0,0.0,0.0,0.0,0.0,0.0,0.0,0.0,0.0,0.0,0.0,0.0,0.0,0.0,0.0,0.0,0.0,0.0,0.0,0.0,0.0,0.0,0.0,0.0,0.0,0.0,0.0,0.0,0.0,0.0,0.0,0.0,0.0,0.0,0.0,0.0,0.0,0.0,0.0,0.0,0.0,0.0,0.0,0.0,0.0,0.0,0.0,0.0,0.0,0.0,0.0,0.0,-0.8037,-0.8623,-0.7118,-0.6887,-0.8209,0.0,0.0,0.0,0.0,0.0,0.0,0.0,0.0,0.0,0.0,0.0,0.0,0.0,0.0,0.0,0.0,0.0,0.0,0.0,0.0,0.0,0.0,0.0,0.0,0.0,0.0,0.0,0.0,0.0,0.0,0.0,0.0,0.0,0.0,0.0,0.0,0.0,0.0,0.0,0.0,0.0,0.0,0.0,0.0,0.0,0.0,0.0,0.0,0.0,0.0,0.0,0.0,0.0,0.0,0.0,0.0,0.0,0.0,0.0,0.0,0.0,0.0,0.0,0.0,0.0,0.0,0.0,0.0,0.0,0.0,0.0,0.0,0.0,0.0,0.0,0.0,0.0,0.0,0.0,0.0,0.0,0.0,0.0,0.0,0.0,0.0,0.0,0.0,0.0,0.0,0.0,0.0,0.0,0.0,0.0,0.0,0.0,0.0,0.0,0.0,0.0,0.0,0.0,0.0,0.0,0.0,0.0,0.0,0.0,0.0,0.0,0.0,-0.8899,-0.8615,-0.9501,0.0,0.0,0.0,0.0,0.0,0.0,0.0,0.0,0.0,0.0,0.0,0.0,0.0,0.0,0.0,0.0,0.0,0.0,0.0,0.0,0.0,0.0,0.0,0.0,0.0,0.0,0.0,0.0,0.0,0.0,0.0,0.0,0.0,0.0,0.0,0.0,0.0,0.0,0.0,0.0,0.0,0.0,0.0,0.0,0.0,0.0,0.0,0.0,0.0,0.0,0.0,0.0,0.0,0.0,0.0,0.0,0.0,0.0,0.0,0.0,0.0,0.0,0.0,0.0,0.0,0.0,0.0,0.0,0.0,0.0,0.0,0.0,0.0,0.0,0.0,0.0,0.0,0.0,0.0,0.0,0.0,0.0,0.0,0.0,0.0,0.0,0.0,0.0,0.0,0.0,0.0,0.0,0.0,0.0,0.0,0.0,0.0,0.0,0.0,0.0,0.0,0.0,0.0,0.0,0.0,0.0,0.0,0.0,0.0,0.0,-1.1773,-1.203,-1.186,0.0,-1.1483,0.0,0.0,0.0,0.0,0.0,0.0,0.0,0.0,0.0,0.0,0.0,0.0,0.0,0.0,0.0,0.0,0.0,0.0,0.0,0.0,0.0,0.0,0.0,0.0,0.0,0.0,0.0,0.0,0.0,0.0,0.0,0.0,0.0,0.0,0.0,0.0,0.0,0.0,0.0,0.0,0.0,0.0,0.0,0.0,0.0,0.0,0.0,0.0,0.0,0.0,0.0,0.0,0.0,0.0,0.0,0.0,0.0,0.0,0.0,0.0,0.0,0.0,0.0,0.0,0.0,0.0,0.0,0.0,0.0,0.0,0.0,0.0,0.0,0.0,0.0,0.0,0.0,0.0,0.0,0.0,0.0,0.0,0.0,0.0,0.0,0.0,0.0,0.0,0.0,0.0,0.0,0.0,0.0,0.0,0.0,0.0,0.0,0.0,0.0,0.0,0.0,0.0,0.0,0.0,0.0,0.0,0.0,0.0,0.0,0.0,-1.2501,-1.2644,-1.1976,-1.1658,0.0,0.0,0.0,0.0,0.0,0.0,0.0,0.0,0.0,0.0,0.0,0.0,0.0,0.0,0.0,0.0,0.0,0.0,0.0,0.0,0.0,0.0,0.0,0.0,0.0,0.0,0.0,0.0,0.0,0.0,0.0,0.0,0.0,0.0,0.0,0.0,0.0,0.0,0.0,0.0,0.0,0.0,0.0,0.0,0.0,0.0,0.0,0.0,0.0,0.0,0.0,0.0,0.0,0.0,0.0,0.0,0.0,0.0,0.0,0.0,0.0,0.0,0.0,0.0,0.0,0.0,0.0,0.0,0.0,0.0,0.0,0.0,0.0,0.0,0.0,0.0,0.0,0.0,0.0,0.0,0.0,0.0,0.0,0.0,0.0,0.0,0.0,0.0,0.0,0.0,0.0,0.0,0.0,0.0,0.0,0.0,0.0,0.0,0.0,0.0,0.0,0.0,0.0,0.0,0.0,0.0,0.0,0.0,0.0,0.0,-1.2819,-1.3497,-1.3576,-1.1993,-1.1407,-1.2032,0.0,0.0,0.0,0.0,0.0,0.0,0.0,0.0,0.0,0.0,0.0,0.0,0.0,0.0,0.0,0.0,0.0,0.0,0.0,0.0,0.0,0.0,0.0,0.0,0.0,0.0,0.0,0.0,0.0,0.0,0.0,0.0,0.0,0.0,0.0,0.0,0.0,0.0,0.0,0.0,0.0,0.0,0.0,0.0,0.0,0.0,0.0,0.0,0.0,0.0,0.0,0.0,0.0,0.0,0.0,0.0,0.0,0.0,0.0,0.0,0.0,0.0,0.0,0.0,0.0,0.0,0.0,0.0,0.0,0.0,0.0,0.0,0.0,0.0,0.0,0.0,0.0,0.0,0.0,0.0,0.0,0.0,0.0,0.0,0.0,0.0,0.0,0.0,0.0,0.0,0.0,0.0,0.0,0.0,0.0,0.0,0.0,0.0,0.0,0.0,0.0,0.0,0.0,0.0,0.0,0.0,0.0,0.0,-1.2439,-1.4001,-1.5085,-1.5413,-1.2657,-1.1532,0.0,0.0,0.0,0.0,0.0,0.0,0.0,0.0,0.0,0.0,0.0,0.0,0.0,0.0,0.0,0.0,0.0,0.0,0.0,0.0,0.0,0.0,0.0,0.0,0.0,0.0,0.0,0.0,0.0,0.0,0.0,0.0,0.0,0.0,0.0,0.0,0.0,0.0,0.0,0.0,0.0,0.0,0.0,0.0,0.0,0.0,0.0,0.0,0.0,0.0,0.0,0.0,0.0,0.0,0.0,0.0,0.0,0.0,0.0,0.0,0.0,0.0,0.0,0.0,0.0,0.0,0.0,0.0,0.0,0.0,0.0,0.0,0.0,0.0,0.0,0.0,0.0,0.0,0.0,0.0,0.0,0.0,0.0,0.0,0.0,0.0,0.0,0.0,0.0,0.0,0.0,0.0,0.0,0.0,0.0,0.0,0.0,0.0,0.0,0.0,0.0,0.0,0.0,0.0,0.0,0.0,0.0,0.0,0.0,-1.1312,-1.241,-1.3358,-1.3978,-1.2103,-1.1435,0.0,0.0,0.0,0.0,0.0,0.0,0.0,0.0,0.0,0.0,0.0,0.0,0.0,0.0,0.0,0.0,0.0,0.0,0.0,0.0,0.0,0.0,0.0,0.0,0.0,0.0,0.0,0.0,0.0,0.0,0.0,0.0,0.0,0.0,0.0,0.0,0.0,0.0,0.0,0.0,0.0,0.0,0.0,0.0,0.0,0.0,0.0,0.0,0.0,0.0,0.0,0.0,0.0,0.0,0.0,0.0,0.0,0.0,0.0,0.0,0.0,0.0,0.0,0.0,0.0,0.0,0.0,0.0,0.0,0.0,0.0,0.0,0.0,0.0,0.0,0.0,0.0,0.0,0.0,0.0,0.0,0.0,0.0,0.0,0.0,0.0,0.0,0.0,0.0,0.0,0.0,0.0,0.0,0.0,0.0,0.0,0.0,0.0,0.0,0.0,0.0,0.0,0.0,0.0,0.0,0.0,0.0,0.0,0.0,-1.1967,0.0,-1.2376,0.0,-1.1419,-1.0855,0.0,0.0,0.0,0.0,0.0,0.0,0.0,0.0,0.0,0.0,0.0,0.0,0.0,0.0,0.0,0.0,0.0,0.0,0.0,0.0,0.0,0.0,0.0,0.0,0.0,0.0,0.0,0.0,0.0,0.0,0.0,0.0,0.0,0.0,0.0,0.0,0.0,0.0,0.0,0.0,0.0,0.0,0.0,0.0,0.0,0.0,0.0,0.0,0.0,0.0,0.0,0.0,0.0,0.0,0.0,0.0,0.0,0.0,0.0,0.0,0.0,0.0,0.0,0.0,0.0,0.0,0.0,0.0,0.0,0.0,0.0,0.0,0.0,0.0,0.0,0.0,0.0,0.0,0.0,0.0,0.0,0.0,0.0,0.0,0.0,0.0,0.0,0.0,0.0,0.0,0.0,0.0,0.0,0.0,0.0,0.0,0.0,0.0,0.0,0.0,0.0,0.0,0.0,0.0,0.0,0.0,0.0,0.0,-1.3244,-1.4668,-1.3272,-1.2495,-1.2407,-1.0846,-0.9871,0.0,0.0,0.0,0.0,0.0,0.0,0.0,0.0,0.0,0.0,0.0,0.0,0.0,0.0,0.0,0.0,0.0,0.0,0.0,0.0,0.0,0.0,0.0,0.0,0.0,0.0,0.0,0.0,0.0,0.0,0.0,0.0,0.0,0.0,0.0,0.0,0.0,0.0,0.0,0.0,0.0,0.0,0.0,0.0,0.0,0.0,0.0,0.0,0.0,0.0,0.0,0.0,0.0,0.0,0.0,0.0,0.0,0.0,0.0,0.0,0.0,0.0,0.0,0.0,0.0,0.0,0.0,0.0,0.0,0.0,0.0,0.0,0.0,0.0,0.0,0.0,0.0,0.0,0.0,0.0,0.0,0.0,0.0,0.0,0.0,0.0,0.0,0.0,0.0,0.0,0.0,0.0,0.0,0.0,0.0,0.0,0.0,0.0,0.0,0.0,0.0,0.0,0.0,0.0,0.0,0.0,0.0,0.0,0.0,-1.3222,-1.2707,-1.2931,-1.3879,-1.2311,-1.185,0.0,0.0,0.0,0.0,0.0,0.0,0.0,0.0,0.0,0.0,0.0,0.0,0.0,0.0,0.0,0.0,0.0,0.0,0.0,0.0,0.0,0.0,0.0,0.0,0.0,0.0,0.0,0.0,0.0,0.0,0.0,0.0,0.0,0.0,0.0,0.0,0.0,0.0,0.0,0.0,0.0,0.0,0.0,0.0,0.0,0.0,0.0,0.0,0.0,0.0,0.0,0.0,0.0,0.0,0.0,0.0,0.0,0.0,0.0,0.0,0.0,0.0,0.0,0.0,0.0,0.0,0.0,0.0,0.0,0.0,0.0,0.0,0.0,0.0,0.0,0.0,0.0,0.0,0.0,0.0,0.0,0.0,0.0,0.0,0.0,0.0,0.0,0.0,0.0,0.0,0.0,0.0,0.0,0.0,0.0,0.0,0.0,0.0,0.0,0.0,0.0,0.0,0.0,0.0,0.0,0.0,0.0,0.0,0.0,-1.3791,-1.3195,-1.3143,-1.3781,-1.2668,-1.2455,-1.3287,0.0,0.0,0.0,0.0,0.0,0.0,0.0,0.0,0.0,0.0,0.0,0.0,0.0,0.0,0.0,0.0,0.0,0.0,0.0,0.0,0.0,0.0,0.0,0.0,0.0,0.0,0.0,0.0,0.0,0.0,0.0,0.0,0.0,0.0,0.0,0.0,0.0,0.0,0.0,0.0,0.0,0.0,0.0,0.0,0.0,0.0,0.0,0.0,0.0,0.0,0.0,0.0,0.0,0.0,0.0,0.0,0.0,0.0,0.0,0.0,0.0,0.0,0.0,0.0,0.0,0.0,0.0,0.0,0.0,0.0,0.0,0.0,0.0,0.0,0.0,0.0,0.0,0.0,0.0,0.0,0.0,0.0,0.0,0.0,0.0,0.0,0.0,0.0,0.0,0.0,0.0,0.0,0.0,0.0,0.0,0.0,0.0,0.0,0.0,0.0,0.0,0.0,0.0,0.0,0.0,0.0,0.0,0.0,-1.6033,-1.4602,-1.3478,-1.2696,-1.2398,-1.215,0.0,0.0,0.0,0.0,0.0,0.0,0.0,0.0,0.0,0.0,0.0,0.0,0.0,0.0,0.0,0.0,0.0,0.0,0.0,0.0,0.0,0.0,0.0,0.0,0.0,0.0,0.0,0.0,0.0,0.0,0.0,0.0,0.0,0.0,0.0,0.0,0.0,0.0,0.0,0.0,0.0,0.0,0.0,0.0,0.0,0.0,0.0,0.0,0.0,0.0,0.0,0.0,0.0,0.0,0.0,0.0,0.0,0.0,0.0,0.0,0.0,0.0,0.0,0.0,0.0,0.0,0.0,0.0,0.0,0.0,0.0,0.0,0.0,0.0,0.0,0.0,0.0,0.0,0.0,0.0,0.0,0.0,0.0,0.0,0.0,0.0,0.0,0.0,0.0,0.0,0.0,0.0,0.0,0.0,0.0,0.0,0.0,0.0,0.0,0.0,0.0,0.0,0.0,0.0,0.0,0.0,0.0,0.0,0.0,-1.67,-1.6891,-1.6637,-1.5878,-1.5132,-1.4666,0.0,0.0,0.0,0.0,0.0,0.0,0.0,0.0,0.0,0.0,0.0,0.0,0.0,0.0,0.0,0.0,0.0,0.0,0.0,0.0,0.0,0.0,0.0,0.0,0.0,0.0,0.0,0.0,0.0,0.0,0.0,0.0,0.0,0.0,0.0,0.0,0.0,0.0,0.0,0.0,0.0,0.0,0.0,0.0,0.0,0.0,0.0,0.0,0.0,0.0,0.0,0.0,0.0,0.0,0.0,0.0,0.0,0.0,0.0,0.0,0.0,0.0,0.0,0.0,0.0,0.0,0.0,0.0,0.0,0.0,0.0,0.0,0.0,0.0,0.0,0.0,0.0,0.0,0.0,0.0,0.0,0.0,0.0,0.0,0.0,0.0,0.0,0.0,0.0,0.0,0.0,0.0,0.0,0.0,0.0,0.0,0.0,0.0,0.0,0.0,0.0,0.0,0.0,0.0,0.0,0.0,0.0,0.0,-1.6398,-1.7509,-1.8347,-1.8564,-1.8142,-1.7222,-1.6132,0.0,0.0,0.0,0.0,0.0,0.0,0.0,0.0,0.0,0.0,0.0,0.0,0.0,0.0,0.0,0.0,0.0,0.0,0.0,0.0,0.0,0.0,0.0,0.0,0.0,0.0,0.0,0.0,0.0,0.0,0.0,0.0,0.0,0.0,0.0,0.0,0.0,0.0,0.0,0.0,0.0,0.0,0.0,0.0,0.0,0.0,0.0,0.0,0.0,0.0,0.0,0.0,0.0,0.0,0.0,0.0,0.0,0.0,0.0,0.0,0.0,0.0,0.0,0.0,0.0,0.0,0.0,0.0,0.0,0.0,0.0,0.0,0.0,0.0,0.0,0.0,0.0,0.0,0.0,0.0,0.0,0.0,0.0,0.0,0.0,0.0,0.0,0.0,0.0,0.0,0.0,0.0,0.0,0.0,0.0,0.0,0.0,0.0,0.0,0.0,0.0,0.0,0.0,0.0,0.0,0.0,0.0,0.0,-1.6922,-1.8414,-1.9388,-1.9847,-1.968,-1.867,-1.6977,0.0,0.0,0.0,0.0,0.0,0.0,0.0,0.0,0.0,0.0,0.0,0.0,0.0,0.0,0.0,0.0,0.0,0.0,0.0,0.0,0.0,0.0,0.0,0.0,0.0,0.0,0.0,0.0,0.0,0.0,0.0,0.0,0.0,0.0,0.0,0.0,0.0,0.0,0.0,0.0,0.0,0.0,0.0,0.0,0.0,0.0,0.0,0.0,0.0,0.0,0.0,0.0,0.0,0.0,0.0,0.0,0.0,0.0,0.0,0.0,0.0,0.0,0.0,0.0,0.0,0.0,0.0,0.0,0.0,0.0,0.0,0.0,0.0,0.0,0.0,0.0,0.0,0.0,0.0,0.0,0.0,0.0,0.0,0.0,0.0,0.0,0.0,0.0,0.0,0.0,0.0,0.0,0.0,0.0,0.0,0.0,0.0,0.0,0.0,0.0,0.0,0.0,0.0,0.0,0.0,0.0,0.0,0.0,-1.8398,-1.9323,-2.1392,-2.1841,-2.0485,-1.8955,-1.7526,0.0,0.0,0.0,0.0,0.0,0.0,0.0,0.0,0.0,0.0,0.0,0.0,0.0,0.0,0.0,0.0,0.0,0.0,0.0,0.0,0.0,0.0,0.0,0.0,0.0,0.0,0.0,0.0,0.0,0.0,0.0,0.0,0.0,0.0,0.0,0.0,0.0,0.0,0.0,0.0,0.0,0.0,0.0,0.0,0.0,0.0,0.0,0.0,-1.3071,0.0,0.0,0.0,0.0,0.0,0.0,0.0,0.0,0.0,0.0,0.0,0.0,0.0,0.0,0.0,0.0,0.0,0.0,0.0,0.0,0.0,0.0,0.0,0.0,0.0,0.0,0.0,0.0,0.0,0.0,0.0,0.0,0.0,0.0,0.0,0.0,0.0,0.0,0.0,0.0,0.0,0.0,0.0,0.0,0.0,0.0,0.0,0.0,0.0,0.0,0.0,0.0,0.0,0.0,0.0,0.0,0.0,0.0,0.0,-1.8821,-1.9625,-2.2036,-2.2672,-2.1331,-2.0022,-1.8474,0.0,0.0,0.0,0.0,0.0,0.0,0.0,0.0,0.0,0.0,0.0,0.0,0.0,0.0,0.0,0.0,0.0,0.0,0.0,0.0,0.0,0.0,0.0,0.0,0.0,0.0,0.0,0.0,0.0,0.0,0.0,0.0,0.0,0.0,0.0,0.0,0.0,0.0,0.0,0.0,0.0,0.0,0.0,0.0,0.0,0.0,0.0,0.0,0.0,0.0,0.0,0.0,0.0,0.0,0.0,0.0,0.0,0.0,0.0,0.0,0.0,0.0,0.0,0.0,0.0,0.0,0.0,0.0,0.0,0.0,0.0,0.0,0.0,0.0,0.0,0.0,0.0,0.0,0.0,0.0,0.0,0.0,0.0,0.0,0.0,0.0,0.0,0.0,0.0,0.0,0.0,0.0,0.0,0.0,0.0,0.0,0.0,0.0,0.0,0.0,0.0,0.0,0.0,0.0,0.0,0.0,0.0,-1.8342,-1.9205,-1.9852,-2.2219,-2.3063,-2.2213,-2.1161,-1.9531,-1.7309,0.0,0.0,0.0,0.0,0.0,0.0,0.0,0.0,0.0,0.0,0.0,0.0,0.0,0.0,0.0,0.0,0.0,0.0,0.0,0.0,0.0,0.0,0.0,0.0,0.0,0.0,0.0,0.0,0.0,0.0,0.0,0.0,0.0,0.0,0.0,0.0,0.0,0.0,-1.66,-1.7135,0.0,0.0,0.0,0.0,0.0,0.0,0.0,0.0,-1.3451,0.0,0.0,0.0,0.0,0.0,0.0,0.0,0.0,0.0,0.0,0.0,0.0,0.0,0.0,0.0,0.0,0.0,0.0,0.0,0.0,0.0,0.0,0.0,0.0,0.0,0.0,0.0,0.0,0.0,0.0,0.0,0.0,0.0,0.0,0.0,0.0,0.0,0.0,0.0,0.0,0.0,0.0,0.0,0.0,0.0,0.0,0.0,0.0,0.0,0.0,0.0,0.0,0.0,0.0,0.0,0.0,-1.7223,-1.9917,-2.1075,-2.0656,-2.3026,-2.3901,-2.2998,-2.1438,-2.0349,-1.9833,0.0,0.0,0.0,0.0,0.0,0.0,0.0,0.0,0.0,0.0,0.0,0.0,0.0,0.0,0.0,0.0,0.0,0.0,0.0,0.0,0.0,0.0,0.0,0.0,0.0,0.0,0.0,0.0,0.0,0.0,0.0,0.0,0.0,0.0,0.0,0.0,0.0,0.0,0.0,-1.7893,-1.8058,0.0,0.0,0.0,0.0,0.0,0.0,0.0,0.0,-1.4755,0.0,0.0,0.0,0.0,0.0,0.0,0.0,0.0,0.0,0.0,0.0,0.0,0.0,0.0,0.0,0.0,0.0,0.0,0.0,0.0,0.0,0.0,0.0,0.0,0.0,0.0,0.0,0.0,0.0,0.0,0.0,0.0,0.0,0.0,0.0,0.0,0.0,0.0,0.0,0.0,0.0,0.0,0.0,0.0,0.0,0.0,0.0,0.0,0.0,0.0,0.0,0.0,0.0,0.0,0.0,-1.8541,-1.9983,-2.0311,-1.962,-2.2374,-2.3249,-2.1996,-2.1087,-2.0754,0.0,0.0,0.0,0.0,0.0,0.0,0.0,0.0,0.0,0.0,0.0,0.0,0.0,0.0,0.0,0.0,0.0,0.0,0.0,0.0,0.0,0.0,0.0,0.0,0.0,0.0,0.0,0.0,0.0,0.0,0.0,0.0,0.0,0.0,0.0,0.0,0.0,0.0,0.0,0.0,-1.8933,-1.8781,-1.8027,0.0,0.0,0.0,0.0,0.0,0.0,-1.5676,-1.5794,0.0,0.0,0.0,0.0,0.0,0.0,0.0,0.0,0.0,0.0,0.0,0.0,0.0,0.0,0.0,0.0,0.0,0.0,0.0,0.0,0.0,0.0,0.0,0.0,0.0,0.0,0.0,0.0,0.0,0.0,0.0,0.0,0.0,0.0,0.0,0.0,0.0,0.0,0.0,0.0,0.0,0.0,0.0,0.0,0.0,0.0,0.0,0.0,0.0,0.0,0.0,0.0,0.0,0.0,0.0,-1.9623,-2.008,-1.9884,-1.9198,-2.1819,-2.2638,-2.1313,-2.0815,-2.0866,0.0,0.0,0.0,0.0,0.0,0.0,0.0,0.0,0.0,0.0,0.0,0.0,0.0,0.0,0.0,0.0,0.0,0.0,0.0,0.0,0.0,0.0,0.0,0.0,0.0,0.0,0.0,0.0,0.0,0.0,0.0,0.0,0.0,0.0,0.0,0.0,0.0,0.0,0.0,0.0,0.0,-1.9632,-1.8755,-1.8404,0.0,0.0,0.0,0.0,-1.6107,-1.6517,0.0,0.0,0.0,0.0,0.0,0.0,0.0,0.0,0.0,0.0,0.0,0.0,0.0,0.0,0.0,0.0,0.0,0.0,0.0,0.0,0.0,0.0,0.0,0.0,0.0,0.0,0.0,0.0,0.0,0.0,0.0,0.0,0.0,0.0,0.0,0.0,0.0,0.0,0.0,0.0,0.0,0.0,0.0,0.0,0.0,0.0,0.0,0.0,0.0,0.0,0.0,0.0,0.0,0.0,0.0,0.0,-1.961,-2.1574,-2.2239,-2.1586,-2.2595,-2.3075,-2.2822,-2.1389,-2.059,0.0,0.0,0.0,0.0,0.0,0.0,0.0,0.0,0.0,0.0,0.0,0.0,0.0,0.0,0.0,0.0,0.0,0.0,0.0,0.0,0.0,0.0,0.0,0.0,0.0,0.0,0.0,0.0,0.0,0.0,0.0,0.0,0.0,0.0,0.0,0.0,0.0,0.0,0.0,0.0,0.0,-2.0502,-1.9499,-1.9203,-1.9047,0.0,0.0,0.0,-1.892,-1.834,0.0,0.0,0.0,0.0,0.0,0.0,0.0,0.0,0.0,0.0,0.0,0.0,0.0,0.0,0.0,0.0,0.0,0.0,0.0,0.0,0.0,0.0,0.0,0.0,0.0,0.0,0.0,0.0,0.0,0.0,0.0,0.0,0.0,0.0,0.0,0.0,0.0,0.0,0.0,0.0,0.0,0.0,0.0,0.0,0.0,0.0,0.0,0.0,0.0,0.0,0.0,0.0,0.0,0.0,0.0,-1.9341,-1.9504,-2.0037,-2.0136,-1.9852,-2.1084,-2.1544,-2.0997,-2.017,-2.0164,0.0,0.0,0.0,0.0,0.0,0.0,0.0,0.0,0.0,0.0,0.0,0.0,0.0,0.0,0.0,0.0,0.0,0.0,0.0,0.0,0.0,0.0,0.0,0.0,0.0,0.0,0.0,0.0,0.0,0.0,0.0,0.0,0.0,0.0,0.0,0.0,0.0,0.0,0.0,0.0,0.0,0.0,-2.0222,-1.9987,0.0,0.0,0.0,-1.8917,-1.9355,0.0,0.0,0.0,0.0,0.0,0.0,0.0,0.0,0.0,0.0,0.0,0.0,0.0,0.0,0.0,0.0,0.0,0.0,0.0,0.0,0.0,0.0,0.0,0.0,0.0,0.0,0.0,0.0,0.0,0.0,0.0,0.0,0.0,0.0,0.0,0.0,0.0,0.0,0.0,0.0,0.0,0.0,0.0,0.0,0.0,0.0,0.0,0.0,0.0,0.0,0.0,0.0,0.0,0.0,0.0,0.0,0.0,-1.9704,-1.8951,-1.8577,-1.8768,-1.996,-2.0307,-1.9666,-1.9289,0.0,0.0,0.0,0.0,0.0,0.0,0.0,0.0,0.0,0.0,0.0,0.0,0.0,0.0,0.0,0.0,0.0,0.0,0.0,0.0,0.0,0.0,0.0,0.0,0.0,0.0,0.0,-1.7265,0.0,0.0,0.0,0.0,0.0,0.0,0.0,0.0,0.0,0.0,0.0,0.0,0.0,0.0,-2.2013,-2.0958,-2.0783,-2.0704,0.0,0.0,-1.9939,-2.0031,-2.0355,-2.0566,0.0,0.0,0.0,0.0,0.0,0.0,0.0,0.0,0.0,0.0,0.0,0.0,0.0,0.0,0.0,0.0,0.0,0.0,0.0,0.0,0.0,0.0,0.0,0.0,0.0,0.0,0.0,0.0,0.0,0.0,0.0,0.0,0.0,0.0,0.0,0.0,0.0,0.0,0.0,0.0,0.0,0.0,0.0,0.0,0.0,0.0,0.0,0.0,0.0,0.0,0.0,0.0,0.0,0.0,0.0,-2.0358,-1.9575,-1.9437,-2.0135,-2.0331,-2.0403,-2.0313,-1.9518,-1.9503,0.0,0.0,0.0,0.0,0.0,0.0,0.0,0.0,0.0,0.0,0.0,0.0,0.0,0.0,0.0,0.0,0.0,0.0,0.0,0.0,0.0,0.0,0.0,0.0,0.0,0.0,0.0,0.0,0.0,0.0,0.0,0.0,0.0,0.0,0.0,0.0,0.0,0.0,0.0,0.0,0.0,-2.284,-2.1774,-2.1505,-2.1454,0.0,0.0,-2.0594,-2.1894,-2.1418,-2.1061,-2.167,0.0,0.0,0.0,0.0,0.0,0.0,0.0,0.0,0.0,0.0,0.0,0.0,0.0,0.0,0.0,0.0,0.0,0.0,0.0,0.0,0.0,0.0,0.0,0.0,0.0,0.0,0.0,0.0,0.0,0.0,0.0,0.0,0.0,0.0,0.0,0.0,0.0,0.0,0.0,0.0,0.0,0.0,0.0,0.0,0.0,0.0,0.0,0.0,0.0,0.0,0.0,0.0,0.0,-2.0276,-2.0488,-1.9107,-1.8756,-1.9451,-1.9574,-1.9556,-1.954,-1.9164,-1.9363,0.0,0.0,0.0,0.0,0.0,0.0,0.0,0.0,0.0,0.0,0.0,0.0,0.0,0.0,0.0,0.0,0.0,0.0,0.0,0.0,0.0,0.0,0.0,0.0,0.0,0.0,0.0,0.0,-1.694,-1.7478,-1.8172,0.0,0.0,0.0,0.0,0.0,0.0,0.0,0.0,0.0,0.0,-2.3038,-2.2443,-2.2306,0.0,0.0,-2.1893,-2.1795,-2.2347,-2.2429,-2.2517,-2.2744,-2.3134,0.0,0.0,0.0,0.0,0.0,0.0,0.0,0.0,0.0,0.0,0.0,0.0,0.0,0.0,0.0,0.0,0.0,0.0,0.0,0.0,0.0,0.0,0.0,0.0,0.0,0.0,0.0,0.0,0.0,0.0,0.0,0.0,0.0,0.0,0.0,0.0,0.0,0.0,0.0,0.0,0.0,0.0,0.0,0.0,0.0,0.0,0.0,0.0,0.0,0.0,0.0,0.0,-2.0631,-2.0819,-1.8865,-1.8154,-1.8896,-1.8949,-1.9074,-1.9273,-1.9255,-1.9739,0.0,0.0,0.0,0.0,0.0,0.0,0.0,0.0,0.0,0.0,0.0,0.0,0.0,0.0,0.0,0.0,0.0,0.0,0.0,0.0,0.0,0.0,0.0,0.0,0.0,0.0,0.0,0.0,-1.7733,-1.8552,-1.8898,0.0,0.0,0.0,0.0,0.0,0.0,0.0,0.0,0.0,0.0,-2.3119,-2.2893,-2.2799,-2.2824,-2.3032,-2.2986,-2.299,-2.3147,-2.3539,-2.3706,-2.3414,0.0,0.0,0.0,0.0,0.0,0.0,0.0,0.0,0.0,0.0,0.0,0.0,0.0,0.0,0.0,0.0,0.0,0.0,0.0,0.0,0.0,0.0,0.0,0.0,0.0,0.0,0.0,0.0,0.0,0.0,0.0,0.0,0.0,0.0,0.0,0.0,0.0,0.0,0.0,0.0,0.0,0.0,0.0,0.0,0.0,0.0,0.0,0.0,0.0,0.0,0.0,0.0,0.0,0.0,-2.1516,-1.9003,-1.7986,-1.8715,-1.8715,-1.9163,-1.9953,-1.9967,-2.0757,-2.2363,0.0,0.0,0.0,0.0,0.0,0.0,0.0,0.0,0.0,0.0,0.0,0.0,0.0,0.0,0.0,0.0,0.0,0.0,0.0,0.0,0.0,0.0,0.0,0.0,0.0,0.0,-2.0062,-1.82,-1.7278,0.0,0.0,0.0,0.0,0.0,0.0,0.0,0.0,0.0,0.0,-2.3241,-2.3168,-2.302,-2.2944,-2.3163,-2.3759,-2.3863,-2.4057,-2.4624,-2.4735,-2.4484,0.0,0.0,0.0,0.0,0.0,0.0,0.0,0.0,0.0,0.0,0.0,0.0,0.0,0.0,0.0,0.0,0.0,0.0,0.0,0.0,0.0,0.0,0.0,0.0,0.0,0.0,0.0,0.0,0.0,0.0,0.0,0.0,0.0,0.0,0.0,0.0,0.0,0.0,0.0,0.0,-2.0529,-2.0888,0.0,0.0,0.0,0.0,0.0,0.0,0.0,0.0,0.0,0.0,0.0,0.0,-2.1461,-2.209,-2.0167,-1.9458,-2.0121,-1.9724,-1.985,-2.0572,-2.0172,-2.0733,-2.2357,0.0,0.0,0.0,0.0,0.0,0.0,0.0,0.0,0.0,0.0,0.0,0.0,0.0,0.0,0.0,0.0,0.0,0.0,0.0,0.0,0.0,0.0,0.0,0.0,0.0,-2.0331,0.0,0.0,0.0,0.0,0.0,0.0,0.0,0.0,0.0,0.0,0.0,-2.3553,-2.3336,-2.3168,-2.3263,-2.3745,-2.3667,-2.3848,0.0,0.0,0.0,0.0,0.0,0.0,0.0,0.0,0.0,0.0,0.0,0.0,0.0,0.0,-2.3189,-2.26,-2.2579,-2.2685,-2.279,0.0,0.0,0.0,0.0,0.0,0.0,0.0,0.0,0.0,0.0,0.0,0.0,0.0,0.0,0.0,0.0,-1.8034,0.0,0.0,0.0,0.0,0.0,0.0,0.0,0.0,-2.0072,-2.0465,-2.0976,-2.1368,-2.184,0.0,-2.2902,-2.2772,0.0,0.0,0.0,0.0,0.0,0.0,0.0,0.0,-2.1848,-2.1947,-2.0832,-2.0439,-2.0872,-2.0477,-2.0583,-2.1264,-2.1192,-2.1512,-2.2329,-2.1732,-2.1125,0.0,0.0,0.0,0.0,0.0,0.0,0.0,0.0,0.0,0.0,0.0,0.0,0.0,0.0,0.0,0.0,0.0,0.0,0.0,0.0,0.0,0.0,0.0,-2.1151,0.0,0.0,0.0,0.0,0.0,0.0,0.0,0.0,0.0,-2.3526,-2.3549,-2.3453,-2.3265,-2.3365,-2.3648,-2.4156,0.0,0.0,0.0,0.0,0.0,0.0,0.0,-2.6406,-2.61,-2.6444,-2.6485,-2.5723,-2.5373,-2.5326,-2.5712,0.0,0.0,-2.3138,-2.2858,-2.2773,-2.2816,-2.3045,-2.3223,-2.3223,-2.3407,-2.3589,0.0,0.0,0.0,0.0,0.0,0.0,0.0,0.0,-1.6627,-1.706,0.0,-1.8125,0.0,0.0,0.0,0.0,0.0,0.0,0.0,0.0,-1.9681,-1.9992,-1.9982,-2.0853,-2.1298,-2.1394,-2.2392,-2.2834,-2.279,-2.3335,0.0,0.0,0.0,0.0,0.0,0.0,-2.201,-2.1307,-2.1021,-2.0912,-2.1044,-2.0978,-2.13,-2.2074,-2.2916,-2.3038,-2.2424,-2.3079,-2.2855,-2.1444,-2.2042,0.0,0.0,0.0,0.0,0.0,0.0,0.0,0.0,0.0,0.0,0.0,0.0,0.0,0.0,0.0,0.0,0.0,0.0,0.0,0.0,-2.2337,0.0,0.0,0.0,0.0,0.0,0.0,0.0,0.0,0.0,0.0,-2.3389,-2.3413,-2.3348,-2.3179,0.0,0.0,0.0,0.0,-2.5562,-2.6255,-2.6276,-2.6463,-2.7175,-2.7282,-2.7023,-2.6281,0.0,0.0,-2.5227,-2.5476,-2.6079,-2.707,-2.608,-2.4878,-2.4105,-2.3484,-2.3076,-2.3117,-2.3193,-2.3197,-2.336,-2.3513,-2.358,-1.8586,0.0,0.0,0.0,0.0,-1.8411,-1.8467,-1.8552,-1.8658,-1.8852,-1.9121,-1.9226,0.0,0.0,0.0,0.0,0.0,0.0,-2.0237,-2.0648,-2.0966,-2.1192,-2.1396,-2.2219,-2.2434,-2.2116,-2.2897,-2.3038,-2.263,-2.3283,-2.3466,-2.3247,0.0,0.0,0.0,0.0,-2.2891,-2.3256,-2.2709,-2.2667,-2.3302,-2.2295,-2.1887,-2.2144,-2.2993,-2.3341,-2.3155,-2.2901,-2.2775,-2.2799,-2.1964,0.0,0.0,0.0,0.0,0.0,0.0,0.0,0.0,0.0,0.0,0.0,0.0,0.0,0.0,0.0,0.0,0.0,0.0,0.0,-2.241,-2.1644,-2.1462,0.0,0.0,0.0,0.0,0.0,0.0,0.0,0.0,0.0,-2.3975,-2.4109,-2.4134,0.0,0.0,-2.5296,-2.5858,-2.5974,-2.6318,-2.7103,0.0,0.0,0.0,-2.733,-2.7213,-2.6988,-2.6954,-2.6902,-2.6668,-2.6768,-2.6937,-2.7241,-2.648,-2.5703,-2.538,-2.4955,-2.4663,-2.4681,-2.4331,-2.4257,-2.4913,-2.432,-2.3705,-1.8715,-1.8547,-1.8953,-1.886,-1.853,-1.8753,-1.8899,-1.8972,-1.9117,-1.9373,-1.9654,-1.9675,-1.9869,-2.01,-1.9873,0.0,0.0,0.0,-2.0732,-2.1308,-2.1631,-2.2034,-2.2549,-2.3073,-2.3198,-2.3013,-2.3476,-2.3519,-2.3214,-2.3684,-2.3767,-2.3536,0.0,0.0,-2.2834,-2.3344,-2.3725,-2.3898,-2.3759,-2.3769,-2.4006,-2.2875,-2.2338,-2.2387,-2.2922,-2.3217,-2.3265,-2.2876,-2.2863,-2.3253,-2.2433,-2.1684,0.0,0.0,0.0,0.0,0.0,0.0,0.0,0.0,0.0,0.0,0.0,-1.9396,0.0,0.0,0.0,0.0,-2.0952,-2.1528,-2.1184,-2.1689,0.0,0.0,0.0,0.0,0.0,0.0,0.0,-2.3117,-2.3448,-2.3975,-2.4655,-2.5085,-2.52,-2.4796,-2.5384,-2.6051,-2.6535,0.0,-2.6956,-2.7491,-2.7407,-2.733,-2.7362,-2.733,-2.7299,-2.7299,-2.7299,-2.7299,-2.7299,-2.7299,-2.7299,-2.7247,-2.6916,-2.6615,-2.6549,-2.6342,-2.6118,-2.5825,-2.5253,-2.4978,-2.5397,-2.4688,-2.4162,-1.8877,-1.9015,-1.9261,-1.8789,-1.7913,-1.8179,-1.8332,-1.841,-1.8523,-1.8975,-1.956,-1.9654,-1.9726,-1.9833,-2.0254,0.0,0.0,-2.0622,-2.1037,-2.1133,-2.1871,-2.2597,-2.3278,-2.3479,-2.3666,-2.3819,-2.3968,-2.4115,-2.4255,-2.4385,-2.4385,-2.4303,-2.4777,-2.4242,-2.2887,-2.4173,-2.4509,-2.3697,-2.4356,-2.4334,-2.3625,-2.2928,-2.2649,-2.2712,-2.2825,-2.2893,-2.2902,-2.302,-2.3095,-2.307,-2.3144,-2.3074,-2.2825,0.0,0.0,0.0,0.0,0.0,0.0,0.0,0.0,0.0,0.0,0.0,0.0,0.0,0.0,0.0,-1.9705,0.0,-1.9047,-2.2198,0.0,0.0,0.0,-2.4575,-2.4651,-2.391,-2.3667,-2.4389,0.0,0.0,0.0,0.0,-2.6349,-2.5682,-2.6226,-2.6665,-2.6687,-2.7145,-2.7513,-2.7487,-2.7393,-2.7299,-2.733,-2.7299,-2.7299,-2.7299,-2.7299,-2.7299,-2.7299,-2.7299,-2.7299,-2.7299,-2.7345,-2.739,-2.7496,-2.7452,-2.7379,-2.6649,-2.6038,-2.5499,-2.5343,-2.5016,-2.4687,-1.9233,-1.905,-1.9441,-1.9512,-1.9349,-1.9204,-1.9191,-1.9305,-1.9325,-1.9441,-1.9611,-1.9669,-1.9726,-1.9797,-2.0025,-2.0329,-2.0666,-2.0875,-2.1358,-2.1983,-2.2316,-2.2618,-2.3044,-2.3695,-2.3842,-2.3481,-2.3964,-2.4158,-2.4017,-2.453,-2.4564,-2.4292,-2.5479,-2.536,-2.3914,-2.4738,-2.5173,-2.5116,-2.527,-2.4774,-2.3659,-2.2939,-2.2642,-2.2712,-2.2773,-2.2842,-2.2876,-2.2927,-2.2893,-2.2816,-2.2799,-2.2254,-2.1039,-2.1777,0.0,0.0,0.0,0.0,0.0,0.0,0.0,0.0,0.0,-1.998,-2.0847,0.0,-2.1366,0.0,-1.9643,-1.9948,-2.2186,-2.2186,0.0,0.0,-2.346,-2.365,-2.353,-2.3834,-2.4118,-2.432,-2.4796,-2.5437,-2.6209,-2.649,-2.6771,-2.7087,-2.7315,-2.742,-2.7385,-2.7442,-2.7465,-2.7421,-2.7362,-2.7299,-2.7299,-2.7299,-2.7299,-2.7299,-2.7299,-2.7299,-2.7299,-2.7299,-2.7299,-2.7299,-2.7345,-2.739,-2.7413,-2.7522,-2.7636,-2.7568,-2.6957,-2.6649,-2.7281,-2.619,-2.5314,-1.9443,-1.9371,-1.9659,-1.9921,-2.0134,-1.9672,-1.9614,-1.9975,-1.9969,-1.9953,-1.9953,-1.9678,-1.9781,-2.0212,-2.0279,-2.0736,-2.1417,-2.1432,-2.1896,-2.2647,-2.2678,-2.3003,-2.3514,-2.4037,-2.416,-2.4005,-2.4366,-2.45,-2.4437,-2.481,-2.4866,-2.4634,-2.5615,-2.5686,-2.4891,-2.5445,-2.5781,-2.5849,-2.5531,-2.4876,-2.384,-2.3151,-2.2819,-2.2875,-2.2634,-2.2689,-2.3042,-2.2777,-2.2733,-2.3004,-2.3021,-2.2644,-2.1744,-2.2057,-2.1658,0.0,0.0,0.0,0.0,0.0,0.0,0.0,0.0,0.0,0.0,0.0,-2.2086,0.0,-2.0862,0.0,-2.317,-2.2886,-2.2911,-2.3731,-2.3819,-2.3894,-2.4085,-2.4208,-2.4567,-2.5243,-2.57,-2.6244,-2.6981,-2.7104,-2.7216,-2.7624,-2.7677,-2.7672,-2.7636,-2.7522,-2.7452,-2.7456,-2.7345,-2.7299,-2.7299,-2.7299,-2.7299,-2.7299,-2.7299,-2.7299,-2.7299,-2.7299,-2.7299,-2.7299,-2.733,-2.7376,-2.743,-2.7522,-2.7659,-2.7858,-2.7649,-2.7467,-2.7674,-2.6726,-2.6083,-1.9723,-1.9972,-2.0012,-2.0194,-2.0487,-1.9893,-1.9952,-2.0371,-2.0373,-2.0382,-2.0436,-1.9914,-2.0101,-2.0804,-2.0842,-2.1317,-2.2061,-2.2091,-2.2464,-2.3153,-2.3143,-2.3488,-2.4204,-2.4276,-2.4426,-2.4695,-2.4695,-2.4815,-2.5029,-2.5013,-2.5029,-2.5091,-2.5362,-2.5513,-2.5567,-2.5974,-2.617,-2.6168,-2.5456,-2.4779,-2.4214,-2.34,-2.3029,-2.3056,-2.2475,-2.2449,-2.2992,-2.2529,-2.2552,-2.3161,-2.3253,-2.3299,-2.3224,-2.2099,-2.178,0.0,-2.1403,0.0,0.0,0.0,0.0,0.0,0.0,0.0,0.0,-2.23,-2.2664,-2.3397,-2.2691,-2.2492,-2.32,-2.3874,-2.4243,-2.4163,-2.4233,-2.4541,-2.5156,-2.484,-2.5103,-2.6472,-2.6683,-2.6999,-2.7549,-2.7701,-2.7707,-2.7669,-2.7604,-2.7569,-2.7642,-2.7496,-2.7407,-2.7473,-2.7362,-2.7299,-2.7299,-2.7299,-2.7299,-2.7299,-2.7299,-2.7299,-2.7299,-2.7299,-2.7299,-2.733,-2.733,-2.7376,-2.7496,-2.7587,-2.7689,-2.7957,-2.7989,-2.7877,-2.7451,-2.7137,-2.6795,-2.0723,-2.0835,-2.1056,-2.097,-2.0648,-2.0668,-2.0529,-2.0324,-2.0133,-2.0331,-2.072,-2.1009,-2.1208,-2.1342,-2.1461,-2.1914,-2.2555,-2.257,-2.29,-2.3516,-2.3601,-2.3704,-2.3867,-2.4024,-2.4094,-2.4204,-2.4177,-2.4328,-2.4679,-2.4599,-2.4679,-2.4958,-2.4981,-2.5075,0.0,0.0,0.0,0.0,-2.5302,-2.4891,-2.471,-2.357,-2.2953,-2.3012,-2.2341,0.0,-2.2212,-2.2111,-2.2123,-2.2257,-2.2274,0.0,0.0,0.0,0.0,0.0,0.0,0.0,0.0,0.0,0.0,0.0,-2.3204,-2.3076,-2.2797,-2.3353,-2.4007,-2.4667,-2.4129,-2.3824,-2.3981,-2.4121,-2.3955,-2.341,-2.3917,-2.4356,-2.4532,-2.5454,-2.6314,-2.6578,-2.7122,-2.7514,-2.7595,-2.76,-2.7635,-2.7609,-2.7517,-2.7452,-2.7474,-2.7434,-2.7376,-2.7362,-2.733,-2.7299,-2.7299,-2.7299,-2.7299,-2.7299,-2.7299,-2.7299,-2.7299,-2.7299,-2.733,-2.7362,-2.7438,-2.7465,-2.7557,-2.763,-2.773,-2.7968,-2.8014,-2.8017,-2.7986,-2.796,-2.7906,-2.0815,0.0,-2.1156,-2.1163,0.0,-2.0964,-2.0836,-2.0795,-2.0604,-2.0747,-2.1098,-2.1148,-2.1398,-2.1845,-2.1969,-2.2352,-2.3018,-2.3088,-2.331,-2.3595,-2.3653,-2.3739,-2.3797,-2.3882,-2.3925,-2.3952,-2.3925,-2.3994,-2.4188,-2.4147,-2.4188,-2.4338,-2.4517,-2.4655,-2.4695,-2.4989,-2.5378,-2.5881,-2.5557,-2.5231,-2.4853,-2.4181,-2.3869,-2.3885,0.0,0.0,0.0,0.0,0.0,0.0,0.0,0.0,0.0,0.0,0.0,-2.2966,-2.2664,-2.2515,-2.2532,-2.2922,-2.3326,-2.3648,-2.4437,-2.4643,-2.4002,-2.4625,-2.5103,-2.5103,-2.5142,-2.506,-2.4721,-2.4687,-2.4557,-2.4235,-2.4559,-2.4936,-2.5437,-2.6121,-2.6753,-2.7104,-2.7473,-2.7701,-2.7659,-2.7659,-2.76,-2.7526,-2.7483,-2.7421,-2.7373,-2.7359,-2.7313,-2.7299,-2.7299,-2.7299,-2.7299,-2.7299,-2.7299,-2.7299,-2.7299,-2.7299,-2.7299,-2.7299,-2.7313,-2.7376,-2.7438,-2.7483,-2.7587,-2.7672,-2.7806,-2.7968,-2.8025,-2.8126,-2.8237,-2.8255,-2.8264,-2.1003,-2.1107,-2.1268,-2.1448,-2.1594,-2.1264,-2.124,-2.1419,0.0,0.0,0.0,-2.1497,-2.1787,-2.2513,-2.2585,-2.2877,-2.326,-2.3436,-2.3551,-2.3551,-2.3551,-2.361,-2.3754,-2.3754,-2.3739,-2.3739,-2.3739,-2.3782,-2.3754,-2.3739,-2.3739,-2.3782,-2.4051,-2.4219,-2.4261,-2.4589,-2.5013,-2.5659,-2.577,-2.553,-2.4977,-2.4865,-2.4816,-2.4816,-2.4079,-2.3981,-2.457,-2.4081,-2.4066,-2.4676,-2.4862,-2.4963,-2.4979,-2.4479,-2.3875,-2.3294,-2.2706,-2.2332,-2.2316,-2.3102,-2.3716,-2.4013,-2.5433,-2.5988,-2.5264,-2.5764,-2.5949,-2.5524,-2.5922,-2.5969,-2.542,-2.5368,-2.5373,-2.53,-2.537,-2.5764,-2.6433,-2.6696,-2.6994,-2.7566,-2.7642,-2.7659,-2.763,-2.7612,-2.7582,-2.743,-2.7434,-2.7404,-2.7313,-2.733,-2.7299,-2.7299,-2.7299,-2.7299,-2.7299,-2.7299,-2.7299,-2.7299,-2.7299,-2.7299,-2.7299,-2.7299,-2.733,-2.7407,-2.7407,-2.7483,-2.7587,-2.7701,-2.7818,-2.7986,-2.8081,-2.8182,-2.8246,-2.83,-2.8327,-2.2128,-2.2189,-2.2396,-2.2293,-2.2035,-2.2063,-2.1989,-2.1783,-2.1707,-2.2234,-2.3151,-2.3505,-2.3612,-2.3676,-2.3831,-2.3612,-2.3127,-2.326,-2.3348,0.0,-2.3363,-2.3407,-2.3553,-2.3553,-2.3581,-2.3638,-2.3595,-2.3638,-2.3638,-2.3638,-2.3638,-2.3653,-2.3696,-2.3867,-2.412,-2.4287,-2.4492,-2.4775,-2.5224,-2.5519,-2.5575,-2.5092,-2.4816,-2.4767,-2.4095,-2.3735,-2.3833,-2.3768,-2.3818,-2.3934,-2.3967,-2.4067,-2.4149,-2.4116,-2.3733,-2.3112,-2.2945,-2.2718,-2.235,-2.3016,-2.4054,-2.5527,-2.6564,-2.6799,-2.604,-2.61,-2.6411,-2.6882,-2.6515,-2.6165,-2.6073,-2.6073,-2.586,-2.5379,-2.579,-2.6237,-2.6411,-2.6951,-2.74,-2.7522,-2.7509,-2.7526,-2.7483,-2.7452,-2.7438,-2.7411,-2.7393,-2.7313,-2.733,-2.7299,-2.7299,-2.7299,-2.7299,-2.7299,-2.7299,-2.7299,-2.7299,-2.7299,-2.7299,-2.7299,-2.7299,-2.7299,-2.7345,-2.7483,-2.7483,-2.7526,-2.7659,-2.7701,-2.7806,-2.7986,-2.8042,-2.8099,-2.8209,-2.8246,-2.8353,-2.2375,-2.2185,-2.242,-2.2469,-2.2392,-2.2435,-2.2286,-2.2091,-2.2201,-2.2469,-2.2924,-2.3278,-2.3308,-2.3126,-2.3229,-2.2985,-2.2402,-2.2709,-2.3093,-2.3383,-2.3199,-2.3377,-2.3792,-2.3496,-2.3496,-2.3881,-2.3599,-2.3614,-2.3852,-2.3673,-2.3581,-2.3523,-2.3566,-2.3724,-2.3894,-2.3618,-2.3559,-2.3844,-2.4587,-2.5013,-2.5091,-2.4888,-2.482,-2.4804,-2.4521,-2.4413,-2.4413,-2.4434,-2.4507,-2.4668,-2.474,-2.483,-2.5003,-2.4693,-2.4398,-2.4133,-2.3799,-2.3527,-2.3331,-2.4127,-2.5162,-2.6424,-2.6899,-2.6967,-2.6625,-2.6716,-2.6933,-2.7247,-2.6985,-2.6778,-2.6809,-2.6809,-2.6718,-2.6432,-2.671,-2.6896,-2.6991,-2.7252,-2.7496,-2.7496,-2.7496,-2.7496,-2.7452,-2.7452,-2.7438,-2.7411,-2.733,-2.7299,-2.7299,-2.7299,-2.7299,-2.7299,-2.7299,-2.7299,-2.7299,-2.7299,-2.7299,-2.7299,-2.7299,-2.7299,-2.7299,-2.733,-2.739,-2.7465,-2.7526,-2.7569,-2.7701,-2.7806,-2.7911,-2.7986,-2.8071,-2.8154,-2.8237,-2.8318,-2.838,-2.2408,-2.204,-2.2221,-2.242,-2.2641,-2.2627,-2.2543,-2.2439,-2.2602,-2.2649,-2.2656,-2.3001,-2.2991,-2.2726,-2.2852,-2.2574,-2.2152,-2.2407,-2.2912,-2.3419,-2.3216,-2.354,-2.4119,-2.3549,-2.3699,-2.4275,-2.3761,-2.3775,-2.4322,-2.3896,-2.3599,-2.3466,-2.348,-2.361,-2.3668,-2.3131,-2.296,-2.3305,-2.3805,-2.406,-2.4122,-2.4201,-2.4343,-2.45,-2.4579,-2.4753,-2.4895,-2.4989,-2.513,-2.5285,-2.5416,-2.5567,-2.5701,-2.5304,-2.5034,-2.4957,-2.4547,-2.4314,-2.4477,-2.5174,-2.5995,-2.6856,-2.6975,-2.6992,-2.7024,-2.7154,-2.7218,-2.725,-2.7264,-2.7282,-2.7264,-2.7264,-2.733,-2.7393,-2.7376,-2.7355,-2.7434,-2.7434,-2.7434,-2.7452,-2.7452,-2.7452,-2.7452,-2.7452,-2.7421,-2.7376,-2.733,-2.7299,-2.7299,-2.7299,-2.7299,-2.7299,-2.7299,-2.7299,-2.7299,-2.7299,-2.7299,-2.7299,-2.7299,-2.733,-2.7313,-2.7393,-2.7438,-2.7496,-2.7557,-2.763,-2.7701,-2.7789,-2.7911,-2.7957,-2.8042,-2.8182,-2.8273,-2.8327,-2.838,-2.2415,-2.2286,-2.2076,-2.2111,-2.2482,-2.2725,-2.2809,-2.287,-2.3002,-2.3037,-2.309,-2.3742,-2.3834,-2.3688,-2.3757,-2.3366,-2.2788,-2.2893,-2.3062,-2.3338,-2.3691,-2.3992,-2.4318,-2.3985,-2.4265,-2.4905,-2.4315,-2.4329,-2.5041,-2.444,-2.382,-2.3393,-2.3319,-2.3319,-2.3348,-2.3231,-2.3303,-2.3448,-2.2842,-2.2535,-2.26,-2.2592,-2.2925,-2.3585,-2.3616,-2.3951,-2.4552,-2.4735,-2.4839,-2.4942,-2.5091,-2.5169,-2.5269,-2.5411,-2.5273,-2.4726,-2.4788,-2.4927,-2.513,-2.5428,-2.5947,-2.664,-2.6892,-2.6992,-2.6992,-2.7024,-2.7055,-2.712,-2.725,-2.7299,-2.7299,-2.7299,-2.7299,-2.733,-2.733,-2.733,-2.7313,-2.733,-2.7313,-2.733,-2.7362,-2.7313,-2.7345,-2.7345,-2.733,-2.733,-2.733,-2.7299,-2.7299,-2.7299,-2.7299,-2.7299,-2.7299,-2.7299,-2.7299,-2.7299,-2.7299,-2.7299,-2.7299,-2.733,-2.7345,-2.7376,-2.7421,-2.7526,-2.7617,-2.763,-2.7672,-2.773,-2.7777,-2.7917,-2.7986,-2.8081,-2.8246,-2.83,-2.8327,-2.2523,-2.2309,-2.2227,-2.221,-2.2321,-2.2543,-2.2665,-2.28,-2.2909,-2.2969,-2.303,-2.3365,-2.3341,-2.3028,-2.3085,-2.2841,-2.232,-2.251,-2.2843,-2.3285,-2.3244,-2.3573,-2.4069,-2.3284,-2.3639,-2.4862,-2.4081,-2.4303,-2.5165,-2.4528,-2.3681,-2.3142,-2.3127,-2.3172,-2.3157,-2.2819,-2.2687,-2.2715,-2.194,-2.1539,-2.1585,-2.1777,-2.1991,-2.2273,-2.2398,-2.2812,-2.3478,-2.3636,-2.3943,-2.4486,-2.467,-2.4791,-2.4974,-2.5285,-2.54,-2.5204,-2.551,-2.5723,-2.5829,-2.5949,-2.6185,-2.6607,-2.6691,-2.6775,-2.6825,-2.6909,-2.6959,-2.699,-2.7087,-2.7201,-2.7299,-2.7299,-2.7299,-2.7299,-2.7299,-2.7299,-2.7299,-2.7299,-2.7299,-2.7299,-2.7299,-2.7299,-2.7299,-2.7299,-2.7299,-2.7299,-2.7299,-2.7299,-2.7299,-2.7299,-2.7299,-2.7299,-2.7299,-2.7299,-2.7299,-2.7299,-2.7299,-2.7299,-2.7299,-2.733,-2.7362,-2.7438,-2.7465,-2.7509,-2.76,-2.7659,-2.7719,-2.7795,-2.7842,-2.7917,-2.8003,-2.8109,-2.8219,-2.8264,-2.8309,-2.2377,-2.217,-2.2168,-2.2155,-2.2123,-2.2297,-2.2482,-2.2616,-2.28,-2.286,-2.2848,-2.2957,-2.2865,-2.2619,-2.264,-2.2483,-2.2267,-2.2454,-2.2829,-2.3324,-2.3181,-2.3429,-2.3916,-2.3137,-2.3428,-2.4551,-2.3984,-2.4233,-2.5401,-2.4872,-2.3945,-2.3235,-2.3211,-2.3169,-2.292,-2.2483,-2.2338,-2.2338,-2.1598,-2.1222,-2.1333,-2.1322,-2.1395,-2.1421,-2.1312,-2.1655,-2.2465,-2.2716,-2.3141,-2.3845,-2.4225,-2.4482,-2.463,-2.4989,-2.5301,-2.5605,-2.5934,-2.6187,-2.6277,-2.6295,-2.6365,-2.6503,-2.6537,-2.6606,-2.6674,-2.6759,-2.6842,-2.6876,-2.6942,-2.7023,-2.7201,-2.7282,-2.7299,-2.7235,-2.7235,-2.7218,-2.7137,-2.7137,-2.7137,-2.7137,-2.7154,-2.725,-2.7299,-2.7299,-2.7299,-2.7299,-2.7299,-2.7299,-2.7299,-2.7299,-2.7299,-2.7299,-2.7299,-2.7299,-2.7299,-2.7299,-2.7299,-2.7299,-2.7299,-2.7313,-2.7345,-2.7434,-2.7557,-2.76,-2.7642,-2.7683,-2.7701,-2.7795,-2.7888,-2.7917,-2.7986,-2.8109,-2.8201,-2.8228,-2.8353,-2.1845,-2.1916,-2.1818,-2.182,-2.1937,-2.2235,-2.2359,-2.2432,-2.2604,-2.2678,-2.2739,-2.286,-2.2884,-2.2895,-2.299,-2.3075,-2.3037,-2.3034,-2.3119,-2.3408,-2.3768,-2.4097,-2.4271,-2.3912,-2.4121,-2.4803,-2.4245,-2.439,-2.5081,-2.5349,-2.4897,-2.3688,-2.3587,-2.3281,-2.2732,-2.2632,-2.2694,-2.2743,-2.2206,-2.1932,-2.206,-2.1478,-2.1172,-2.1281,-2.0651,-2.0715,-2.144,-2.2241,-2.2739,-2.2768,-2.372,-2.4223,-2.425,-2.4523,-2.4934,-2.553,-2.5828,-2.6079,-2.6151,-2.6241,-2.6295,-2.6295,-2.6399,-2.652,-2.6521,-2.6572,-2.664,-2.6842,-2.6708,-2.6759,-2.7006,-2.7137,-2.7186,-2.7057,-2.7007,-2.6942,-2.6775,-2.6775,-2.6742,-2.6775,-2.6925,-2.7072,-2.7267,-2.7299,-2.7267,-2.7267,-2.7299,-2.725,-2.7233,-2.725,-2.7282,-2.725,-2.7282,-2.7282,-2.7299,-2.7299,-2.7299,-2.7299,-2.733,-2.7327,-2.7386,-2.7444,-2.7552,-2.763,-2.7672,-2.7701,-2.7701,-2.7748,-2.7795,-2.7871,-2.7929,-2.8025,-2.7825,-2.8093,-2.8183,-2.1894,-2.2226,-2.193,-2.1922,-2.2081,-2.1966,-2.1999,-2.2111,-2.2359,-2.2482,-2.2555,-2.2678,-2.28,-2.28,-2.2787,-2.2969,-2.3078,-2.3125,-2.3138,-2.321,-2.3378,-2.3484,-2.3479,-2.3129,-2.3511,-2.4235,-2.388,-2.4028,-2.466,-2.4833,-2.4269,-2.3294,-2.3291,-2.3027,-2.2494,-2.2861,-2.3202,-2.3296,-2.3378,-2.3521,-2.3443,-2.2608,-2.2105,-2.2062,-2.0828,-2.0308,-2.0617,-2.144,-2.2096,-2.2554,-2.3549,-2.4082,-2.4109,-2.463,-2.5068,-2.5454,-2.5754,-2.5917,-2.5864,-2.5901,-2.5921,-2.5921,-2.5974,-2.6063,-2.6134,-2.6134,-2.6206,-2.6312,-2.6314,-2.6367,-2.6572,-2.6759,-2.6859,-2.6825,-2.6808,-2.6775,-2.6742,-2.6708,-2.6708,-2.6708,-2.6775,-2.6842,-2.6925,-2.6925,-2.6942,-2.7026,-2.6959,-2.6891,-2.6839,-2.6937,-2.7036,-2.7055,-2.7122,-2.7169,-2.7184,-2.7233,-2.7282,-2.7299,-2.733,-2.7296,-2.7355,-2.7448,-2.7539,-2.76,-2.7659,-2.7648,-2.7613,-2.7543,-2.7607,-2.7613,-2.7717,-2.7402,-2.7201,-2.7628,-2.7701,-2.168,-2.2132,-2.1868,-2.1927,-2.2132,-2.1846,-2.1749,-2.1874,-2.2061,-2.2185,-2.2235,-2.2432,-2.2555,-2.2567,-2.2629,-2.2812,-2.2957,-2.3017,-2.3078,-2.3125,-2.3125,-2.3125,-2.3075,-2.2795,-2.3056,-2.3677,-2.3623,-2.3867,-2.4409,-2.4518,-2.4053,-2.3135,-2.3206,-2.2999,-2.2644,-2.3013,-2.3291,-2.3473,-2.3814,-2.3963,-2.3755,-2.3105,-2.2606,-2.2305,-2.1281,-2.0637,-2.0487,-2.1234,-2.1887,-2.25,-2.3351,-2.394,-2.4109,-2.463,-2.5013,-2.5224,-2.5454,-2.5659,-2.5626,-2.5589,-2.5626,-2.5663,-2.5663,-2.5717,-2.5844,-2.5844,-2.5881,-2.5937,-2.5957,-2.6013,-2.6137,-2.6243,-2.6383,-2.6487,-2.659,-2.6556,-2.6487,-2.6504,-2.6538,-2.6607,-2.659,-2.664,-2.6674,-2.6708,-2.6742,-2.6793,-2.6725,-2.6674,-2.6607,-2.6757,-2.6922,-2.6925,-2.7023,-2.7137,-2.7201,-2.7264,-2.7282,-2.7299,-2.7299,-2.7313,-2.7341,-2.7434,-2.7526,-2.7569,-2.756,-2.7531,-2.7473,-2.7385,-2.7291,-2.7261,-2.6954,-2.6621,-2.6827,-2.7218,-2.7424,-2.1285,-2.1743,-2.1464,-2.1708,-2.2124,-2.1806,-2.1698,-2.1686,-2.1749,-2.1761,-2.1874,-2.2073,-2.2259,-2.2247,-2.2494,-2.269,-2.2739,-2.2848,-2.2957,-2.3078,-2.3065,-2.3125,-2.3125,-2.3075,-2.305,-2.3245,-2.3564,-2.3949,-2.4257,-2.446,-2.4252,-2.3728,-2.3365,-2.3196,-2.3289,-2.2945,-2.2993,-2.3237,-2.3419,-2.3212,-2.2729,-2.2804,-2.2591,-2.2089,-2.1917,-2.1656,-2.109,-2.1768,-2.2188,-2.2361,-2.3137,-2.3782,-2.4166,-2.4482,-2.467,-2.4815,-2.5013,-2.5208,-2.5378,-2.5378,-2.5416,-2.5492,-2.5567,-2.5551,-2.5626,-2.5626,-2.5717,-2.5807,-2.5754,-2.5738,-2.5844,-2.5828,-2.5901,-2.6154,-2.6295,-2.6279,-2.6118,-2.6151,-2.6258,-2.6365,-2.6383,-2.6469,-2.6572,-2.6572,-2.6572,-2.6589,-2.6572,-2.659,-2.6573,-2.6691,-2.6876,-2.6925,-2.7006,-2.7103,-2.7201,-2.7282,-2.7299,-2.7299,-2.7299,-2.7313,-2.7341,-2.7434,-2.7526,-2.7552,-2.7362,-2.7297,-2.6964,-2.6841,-2.6525,-2.6377,-2.6071,-2.6196,-2.6649,-2.712,-2.7487,-2.1458,-2.1576,-2.1669,-2.1753,-2.1913,-2.159,-2.1463,-2.1537,-2.1737,-2.18,-2.1862,-2.1937,-2.2061,-2.2135,-2.2185,-2.2297,-2.2482,-2.2543,-2.2726,-2.2969,-2.3078,-2.3078,-2.3125,-2.3125,-2.3125,-2.3125,-2.3258,-2.3531,-2.3872,-2.4034,-2.3804,-2.3487,-2.347,-2.3111,-2.265,-2.291,-2.3225,-2.3196,-2.3646,-2.3745,-2.3582,-2.3297,-2.3051,-2.2958,-2.2723,-2.2467,-2.2352,-2.2265,-2.2261,-2.2332,-2.3122,-2.3782,-2.4166,-2.4416,-2.4549,-2.467,-2.491,-2.5005,-2.5005,-2.5084,-2.5084,-2.5084,-2.5123,-2.5185,-2.5224,-2.5224,-2.5301,-2.5448,-2.5378,-2.5378,-2.5492,-2.553,-2.5642,-2.597,-2.6026,-2.6046,-2.5937,-2.5954,-2.599,-2.6026,-2.6063,-2.6082,-2.6118,-2.6154,-2.6189,-2.6225,-2.6189,-2.6189,-2.626,-2.6469,-2.6538,-2.659,-2.6825,-2.7085,-2.7166,-2.7233,-2.7299,-2.7299,-2.7299,-2.7299,-2.7359,-2.7417,-2.7526,-2.7477,-2.7239,-2.6882,-2.6549,-2.6262,-2.5963,-2.6068,-2.6219,-2.6451,-2.6745,-2.7085,-2.7451,-2.1272,-2.1486,-2.1453,-2.1629,-2.1749,-2.1624,-2.1499,-2.1429,-2.1958,-2.2081,-2.194,-2.202,-2.2159,-2.2238,-2.2083,-2.2123,-2.2297,-2.2359,-2.2543,-2.2726,-2.2969,-2.303,-2.3065,-2.3125,-2.3125,-2.3125,-2.3125,-2.3245,-2.3531,-2.3458,-2.3352,-2.3219,-2.295,-2.2756,-2.2459,-2.276,-2.3022,-2.3256,-2.3806,-2.4118,-2.4033,-2.3809,-2.3581,-2.3421,-2.322,-2.3025,-2.2872,-2.26,-2.2513,-2.2687,-2.3228,-2.3724,-2.4024,-2.425,-2.4416,-2.4482,-2.4589,-2.4726,-2.4686,-2.4782,-2.4806,-2.4822,-2.4902,-2.4966,-2.4982,-2.5005,-2.51,-2.5123,-2.5162,-2.513,-2.5262,-2.5355,-2.547,-2.5637,-2.577,-2.5844,-2.5881,-2.5934,-2.5934,-2.5917,-2.5934,-2.5881,-2.5844,-2.5881,-2.5881,-2.5901,-2.5917,-2.597,-2.6063,-2.6225,-2.6349,-2.6521,-2.6842,-2.7006,-2.7085,-2.7184,-2.7299,-2.7299,-2.7299,-2.733,-2.7345,-2.7434,-2.7509,-2.739,-2.7216,-2.6542,-2.6139,-2.5823,-2.5559,-2.5928,-2.6139,-2.6345,-2.6515,-2.7041,-2.7424,-2.0954,-2.138,-2.1063,-2.1214,-2.164,-2.1711,-2.1502,-2.1358,-2.2056,-2.2136,-2.1935,-2.2073,-2.228,-2.2327,-2.2186,-2.2219,-2.2185,-2.2309,-2.2371,-2.2482,-2.2726,-2.2896,-2.3017,-2.3078,-2.3078,-2.3078,-2.3125,-2.3125,-2.3198,-2.3078,-2.2957,-2.3047,-2.2274,-2.2038,-2.2548,-2.2432,-2.2552,-2.3128,-2.3719,-2.394,-2.4005,-2.4098,-2.3943,-2.3467,-2.3531,-2.34,-2.2997,-2.2857,-2.2934,-2.3112,-2.3377,-2.3653,-2.3797,-2.4024,-2.4223,-2.4223,-2.4291,-2.44,-2.4457,-2.4539,-2.462,-2.4742,-2.4782,-2.4862,-2.4926,-2.4966,-2.5021,-2.5045,-2.5068,-2.5107,-2.5146,-2.5201,-2.5278,-2.5317,-2.553,-2.5717,-2.5844,-2.5844,-2.586,-2.586,-2.5844,-2.5844,-2.5717,-2.5807,-2.5807,-2.5791,-2.5844,-2.5934,-2.6132,-2.6258,-2.6435,-2.6624,-2.6875,-2.7055,-2.7135,-2.7184,-2.7299,-2.7299,-2.7299,-2.7299,-2.7313,-2.7404,-2.7539,-2.742,-2.6876,-2.6209,-2.5717,-2.5401,-2.5191,-2.5261,-2.5534,-2.5869,-2.6498,-2.7201,-2.7522,-2.0722,-2.0807,-2.0795,-2.0834,-2.1001,-2.115,-2.1022,-2.0764,-2.1096,-2.1353,-2.1277,-2.169,-2.192,-2.1945,-2.2244,-2.223,-2.2106,-2.2209,-2.2309,-2.2359,-2.2482,-2.2714,-2.2909,-2.2969,-2.3017,-2.3078,-2.3078,-2.3125,-2.3078,-2.3017,-2.3017,-2.3053,-2.2397,-2.2065,-2.2257,-2.1917,-2.1816,-2.2155,-2.276,-2.323,-2.3477,-2.3935,-2.4069,-2.3985,-2.3706,-2.355,-2.3414,-2.3088,-2.2947,-2.3127,-2.3378,-2.3581,-2.3653,-2.3925,-2.4124,-2.4166,-2.4234,-2.4302,-2.4359,-2.4441,-2.4539,-2.4595,-2.4701,-2.4822,-2.4862,-2.4926,-2.5005,-2.5029,-2.5029,-2.5029,-2.5068,-2.5084,-2.5123,-2.5146,-2.5339,-2.5492,-2.5546,-2.5621,-2.5675,-2.5691,-2.5675,-2.5637,-2.5637,-2.5675,-2.5728,-2.5749,-2.5766,-2.584,-2.6112,-2.6258,-2.64,-2.6657,-2.6908,-2.7087,-2.7201,-2.7233,-2.7282,-2.7299,-2.7299,-2.7299,-2.7327,-2.7386,-2.7539,-2.7619,-2.6314,-2.5454,-2.5243,-2.4998,-2.4875,-2.4752,-2.5489,-2.6176,-2.7081,-2.7794,-2.7842,-2.0576,-2.0605,-2.0692,-2.0724,-2.0767,-2.1021,-2.102,-2.0813,-2.121,-2.1311,-2.1303,-2.164,-2.1755,-2.18,-2.2191,-2.2136,-2.1911,-2.2258,-2.239,-2.2309,-2.2309,-2.2482,-2.2739,-2.2787,-2.2848,-2.2909,-2.303,-2.3017,-2.3017,-2.3017,-2.303,-2.2915,-2.223,-2.1864,-2.1814,-2.1328,-2.1323,-2.1758,-2.2341,-2.2851,-2.3519,-2.4174,-2.4258,-2.4233,-2.3942,-2.376,-2.3403,-2.3076,-2.2947,-2.3127,-2.329,-2.3451,-2.3566,-2.3855,-2.4024,-2.4124,-2.4234,-2.4302,-2.4302,-2.4359,-2.4457,-2.4498,-2.4645,-2.4726,-2.4806,-2.4926,-2.5045,-2.5029,-2.5005,-2.5045,-2.5045,-2.5045,-2.5045,-2.5084,-2.5185,-2.5301,-2.5355,-2.5448,-2.5486,-2.5524,-2.5524,-2.5562,-2.5578,-2.5616,-2.5654,-2.5707,-2.5654,-2.5856,-2.6112,-2.6222,-2.64,-2.6708,-2.6908,-2.7055,-2.7169,-2.7233,-2.7282,-2.7299,-2.7299,-2.7299,-2.7255,-2.7261,-2.7039,-2.6772,-2.5672,-2.491,-2.4787,-2.4664,-2.4576,-2.4822,-2.5665,-2.6388,-2.7116,-2.7649,-2.7723,-2.0576,-2.0605,-2.0667,-2.072,-2.0741,-2.1229,-2.1125,-2.0999,-2.1597,-2.1745,-2.1458,-2.1656,-2.1661,-2.179,-2.2007,-2.2037,-2.1763,-2.2274,-2.2341,-2.2267,-2.2247,-2.2371,-2.2567,-2.2678,-2.2678,-2.2751,-2.2848,-2.2909,-2.2909,-2.2909,-2.3017,-2.2865,-2.1935,-2.1481,-2.1453,-2.0872,-2.1028,-2.1656,-2.2196,-2.2898,-2.3708,-2.4357,-2.447,-2.4196,-2.4113,-2.3708,-2.3158,-2.2902,-2.2947,-2.3097,-2.3246,-2.3363,-2.3509,-2.3812,-2.3982,-2.4024,-2.4193,-2.4261,-2.4317,-2.4302,-2.4359,-2.4457,-2.4523,-2.4645,-2.4782,-2.4902,-2.4982,-2.5005,-2.5005,-2.5005,-2.5005,-2.5005,-2.5005,-2.5005,-2.5068,-2.5146,-2.524,-2.5294,-2.5333,-2.5394,-2.5378,-2.5432,-2.5524,-2.5578,-2.5594,-2.5594,-2.5594,-2.5803,-2.6059,-2.6206,-2.6452,-2.6809,-2.6942,-2.704,-2.7137,-2.7233,-2.7282,-2.7299,-2.7299,-2.7279,-2.7161,-2.6961,-2.6417,-2.5823,-2.5067,-2.4647,-2.4453,-2.4374,-2.4331,-2.4594,-2.5243,-2.594,-2.6576,-2.6929,-2.7144,-2.0576,-2.0634,-2.0613,-2.0574,-2.0651,-2.0795,-2.0631,-2.043,-2.0601,-2.0808,-2.0752,-2.1105,-2.1219,-2.114,-2.17,-2.1822,-2.1559,-2.1888,-2.2028,-2.2183,-2.2197,-2.2197,-2.2321,-2.2432,-2.2555,-2.2678,-2.2848,-2.2909,-2.2909,-2.2969,-2.309,-2.2965,-2.2401,-2.185,-2.1473,-2.1044,-2.0901,-2.1316,-2.1847,-2.2519,-2.3188,-2.3912,-2.4179,-2.4019,-2.3914,-2.3431,-2.2982,-2.2857,-2.2888,-2.2978,-2.3127,-2.3245,-2.3392,-2.3668,-2.3882,-2.4024,-2.4124,-2.425,-2.4276,-2.4317,-2.4317,-2.4359,-2.4482,-2.4564,-2.463,-2.4766,-2.4902,-2.4982,-2.5005,-2.4966,-2.4966,-2.5005,-2.4966,-2.5005,-2.5005,-2.5045,-2.5084,-2.5217,-2.5294,-2.5333,-2.5317,-2.5317,-2.5371,-2.5371,-2.5426,-2.5458,-2.5594,-2.5766,-2.5954,-2.6206,-2.6486,-2.6842,-2.6959,-2.704,-2.712,-2.7201,-2.7299,-2.7299,-2.7299,-2.7324,-2.7157,-2.6718,-2.6208,-2.5481,-2.4681,-2.4392,-2.427,-2.4278,-2.4295,-2.4576,-2.4769,-2.5358,-2.5877,-2.6229,-2.6715,-2.0401,-2.0576,-2.0498,-2.0498,-2.0576,-2.0566,-2.0517,-2.0417,-2.0387,-2.0411,-2.0551,-2.0742,-2.0832,-2.0788,-2.1364,-2.1534,-2.1353,-2.1598,-2.1964,-2.2157,-2.2197,-2.2197,-2.2197,-2.2247,-2.2371,-2.2506,-2.2616,-2.2665,-2.2726,-2.2896,-2.3017,-2.298,-2.2539,-2.2008,-2.1493,-2.1075,-2.0784,-2.078,-2.1149,-2.1736,-2.2373,-2.3069,-2.3553,-2.3787,-2.3786,-2.3603,-2.2896,-2.2857,-2.2714,-2.2629,-2.2688,-2.2951,-2.3275,-2.3566,-2.3782,-2.3982,-2.4124,-2.4234,-2.4261,-2.4302,-2.4302,-2.4302,-2.4457,-2.4498,-2.4564,-2.4645,-2.4726,-2.4806,-2.4846,-2.4902,-2.4902,-2.4902,-2.4902,-2.4902,-2.4886,-2.4926,-2.5005,-2.5084,-2.5162,-2.5201,-2.5201,-2.524,-2.5294,-2.5256,-2.5371,-2.5464,-2.554,-2.5712,-2.6063,-2.6312,-2.6521,-2.6775,-2.6926,-2.704,-2.712,-2.7184,-2.7299,-2.7299,-2.7299,-2.7321,-2.7252,-2.6631,-2.5976,-2.5331,-2.4777,-2.4357,-2.4261,-2.4244,-2.4094,-2.3909,-2.4085,-2.4717,-2.5208,-2.5534,-2.6149,-2.0177,-2.0566,-2.0342,-2.0411,-2.0566,-2.0576,-2.0557,-2.0557,-2.0576,-2.0575,-2.0557,-2.0576,-2.0633,-2.0692,-2.1068,-2.1216,-2.1323,-2.1534,-2.1889,-2.2324,-2.2171,-2.2147,-2.2197,-2.2197,-2.2247,-2.2185,-2.2359,-2.242,-2.2543,-2.2714,-2.2909,-2.2822,-2.2664,-2.2246,-2.1644,-2.1134,-2.0843,-2.0746,-2.074,-2.1,-2.167,-2.2344,-2.2958,-2.335,-2.3723,-2.3598,-2.2965,-2.2783,-2.2685,-2.2193,-2.2236,-2.26,-2.2966,-2.3346,-2.3561,-2.3773,-2.3918,-2.4166,-2.4234,-2.4276,-2.4261,-2.4302,-2.44,-2.4457,-2.4482,-2.4564,-2.4589,-2.4645,-2.4726,-2.4782,-2.4782,-2.4822,-2.4838,-2.4822,-2.4822,-2.4902,-2.4982,-2.5005,-2.5045,-2.5068,-2.5107,-2.5123,-2.5201,-2.5201,-2.5333,-2.5486,-2.5562,-2.5696,-2.6063,-2.6382,-2.6555,-2.6725,-2.6909,-2.7089,-2.7152,-2.7184,-2.7299,-2.7299,-2.7299,-2.7303,-2.7235,-2.6648,-2.6028,-2.5564,-2.5073,-2.4689,-2.4374,-2.4313,-2.4007,-2.3368,-2.34,-2.4015,-2.4453,-2.4822,-2.5524,-2.0098,-2.0342,-2.0342,-2.0411,-2.0566,-2.0566,-2.0566,-2.0576,-2.0566,-2.0576,-2.0576,-2.0576,-2.0576,-2.0654,-2.0654,-2.1065,-2.1459,-2.1581,-2.1845,-2.2291,-2.2163,-2.1999,-2.2123,-2.2135,-2.2197,-2.2247,-2.2309,-2.2359,-2.2482,-2.2726,-2.2848,-2.2884,-2.2905,-2.2602,-2.2108,-2.1675,-2.1221,-2.0887,-2.0693,-2.0772,-2.135,-2.215,-2.2748,-2.3041,-2.3384,-2.3155,-2.2812,-2.2735,-2.2768,-2.2757,-2.2773,-2.2615,-2.2483,-2.2594,-2.2807,-2.308,-2.3522,-2.3876,-2.4151,-2.4208,-2.4234,-2.4317,-2.4317,-2.44,-2.4441,-2.4482,-2.4523,-2.4589,-2.4605,-2.4645,-2.463,-2.4726,-2.4782,-2.4822,-2.4862,-2.4966,-2.4966,-2.5005,-2.5005,-2.5029,-2.5029,-2.5029,-2.5084,-2.5123,-2.5217,-2.5371,-2.5508,-2.5696,-2.6026,-2.6312,-2.6572,-2.6742,-2.6876,-2.7072,-2.725,-2.725,-2.7299,-2.7299,-2.7313,-2.7307,-2.7139,-2.6606,-2.6103,-2.5918,-2.5582,-2.5199,-2.4896,-2.4634,-2.4121,-2.3676,-2.3517,-2.3418,-2.3874,-2.4401,-2.4805,-1.9784,-2.0108,-1.9951,-2.0029,-2.0255,-2.0411,-2.0411,-2.0498,-2.0566,-2.0576,-2.0576,-2.0576,-2.0576,-2.0576,-2.0576,-2.0913,-2.1261,-2.1321,-2.1607,-2.1935,-2.187,-2.1874,-2.2061,-2.2061,-2.2135,-2.2197,-2.2247,-2.2309,-2.2309,-2.2555,-2.2678,-2.2726,-2.2896,-2.2742,-2.2205,-2.1688,-2.1327,-2.0985,-2.0605,-2.0523,-2.0987,-2.2043,-2.2539,-2.2422,-2.277,-2.2712,-2.2216,-2.2292,-2.2215,-2.1991,-2.2114,-2.1902,-2.1801,-2.1929,-2.2332,-2.2644,-2.3038,-2.3553,-2.3964,-2.4082,-2.4109,-2.4151,-2.4193,-2.4291,-2.4333,-2.4374,-2.4441,-2.4523,-2.4523,-2.4564,-2.4564,-2.4645,-2.4686,-2.4726,-2.4822,-2.4926,-2.4966,-2.5005,-2.5005,-2.5005,-2.5005,-2.5005,-2.5005,-2.5045,-2.51,-2.524,-2.5454,-2.5717,-2.5937,-2.6277,-2.6572,-2.6759,-2.6925,-2.7072,-2.725,-2.7299,-2.7299,-2.7299,-2.733,-2.7324,-2.7238,-2.6857,-2.6705,-2.6632,-2.6229,-2.5756,-2.56,-2.5392,-2.4691,-2.405,-2.3885,-2.3762,-2.3743,-2.3979,-2.4348,-1.9539,-1.9794,-1.9636,-1.9724,-2.002,-2.0186,-2.0342,-2.042,-2.0566,-2.0576,-2.0576,-2.0566,-2.0508,-2.042,-2.037,-2.0522,-2.0834,-2.0878,-2.1144,-2.1474,-2.1603,-2.1749,-2.1812,-2.1937,-2.1999,-2.2135,-2.2197,-2.2197,-2.2247,-2.2371,-2.242,-2.2543,-2.2726,-2.2588,-2.2101,-2.1599,-2.1106,-2.0611,-2.0242,-2.0207,-2.0985,-2.1843,-2.2251,-2.173,-2.2372,-2.2428,-2.178,-2.1949,-2.1801,-2.1615,-2.1541,-2.1525,-2.1041,-2.1341,-2.1874,-2.2346,-2.2604,-2.3188,-2.3701,-2.3982,-2.3982,-2.4109,-2.4166,-2.4208,-2.425,-2.4317,-2.4359,-2.4441,-2.4441,-2.4441,-2.4441,-2.4554,-2.458,-2.463,-2.4726,-2.4862,-2.4966,-2.5005,-2.5005,-2.5005,-2.5005,-2.5005,-2.5005,-2.5005,-2.5045,-2.5162,-2.5378,-2.5642,-2.5937,-2.6347,-2.664,-2.6792,-2.6957,-2.7122,-2.7218,-2.7299,-2.7299,-2.7299,-2.7299,-2.7296,-2.7296,-2.7227,-2.7141,-2.7002,-2.6843,-2.6442,-2.6308,-2.6083,-2.5467,-2.4882,-2.4408,-2.4095,-2.399,-2.3743,-2.3804,-1.939,-1.9636,-1.9645,-1.9872,-2.0186,-2.0255,-2.042,-2.0566,-2.0566,-2.0576,-2.0508,-2.0527,-2.0322,-2.0,-1.9639,-1.981,-2.0186,-2.031,-2.0676,-2.1163,-2.1335,-2.1486,-2.1686,-2.1874,-2.1862,-2.1999,-2.2123,-2.2197,-2.2247,-2.2297,-2.2359,-2.242,-2.2519,-2.2468,-2.1925,-2.1371,-2.0772,-2.0286,-1.9995,-2.0386,-2.1327,-2.1754,-2.1931,-2.2146,-2.2233,-2.2119,-2.1588,-2.1712,-2.171,-2.1683,-2.189,-2.1703,-2.1164,-2.1007,-2.1257,-2.1725,-2.2425,-2.326,-2.3578,-2.3634,-2.3643,-2.3728,-2.4048,-2.4193,-2.4276,-2.4261,-2.4302,-2.4302,-2.4302,-2.4359,-2.4359,-2.4462,-2.4529,-2.4636,-2.4726,-2.4806,-2.4926,-2.4926,-2.4926,-2.4966,-2.4926,-2.4966,-2.5005,-2.5005,-2.5005,-2.5146,-2.5339,-2.5589,-2.5937,-2.6347,-2.6708,-2.6859,-2.6973,-2.712,-2.7235,-2.7299,-2.7299,-2.7299,-2.7299,-2.7299,-2.7299,-2.7299,-2.7299,-2.7192,-2.7072,-2.7002,-2.6864,-2.6554,-2.6165,-2.56,-2.4927,-2.4505,-2.4191,-2.3876,-2.3453,-1.939,-1.939,-1.9469,-1.9548,-1.9784,-1.9942,-2.0098,-2.0255,-2.0479,-2.042,-2.0225,-2.0195,-1.9961,-1.9561,-1.9346,-1.9442,-1.9685,-1.9715,-2.0081,-2.0651,-2.0817,-2.1083,-2.1463,-2.16,-2.1663,-2.1862,-2.1987,-2.2123,-2.2185,-2.2247,-2.2247,-2.2309,-2.2396,-2.2286,-2.1724,-2.1256,-2.0716,-2.0286,-1.9992,-2.0168,-2.0682,-2.1053,-2.1319,-2.1459,-2.1559,-2.1435,-2.1274,-2.1242,-2.134,-2.134,-2.1582,-2.171,-2.1476,-2.1453,-2.1546,-2.1991,-2.1998,-2.225,-2.2556,-2.2758,-2.2753,-2.285,-2.3288,-2.3952,-2.4177,-2.4261,-2.4261,-2.4302,-2.4302,-2.4261,-2.4317,-2.4431,-2.4513,-2.458,-2.4701,-2.4726,-2.4806,-2.4846,-2.4846,-2.4886,-2.4902,-2.4926,-2.4966,-2.5005,-2.5005,-2.5123,-2.5339,-2.568,-2.601,-2.6452,-2.6742,-2.6975,-2.7055,-2.7135,-2.725,-2.7299,-2.7299,-2.7299,-2.7299,-2.7299,-2.7299,-2.7299,-2.7299,-2.7299,-2.7244,-2.7227,-2.7247,-2.7054,-2.6653,-2.6009,-2.5368,-2.4885,-2.4392,-2.363,-2.327,-1.9292,-1.9292,-1.9292,-1.9301,-1.939,-1.9706,-1.9797,-1.9858,-2.0159,-2.008,-1.9805,-1.9639,-1.9394,-1.9141,-1.8994,-1.8867,-1.8978,-1.9173,-1.9466,-1.9843,-2.026,-2.0711,-2.1071,-2.1262,-2.1526,-2.18,-2.1812,-2.1937,-2.2061,-2.2123,-2.2123,-2.2185,-2.2309,-2.1959,-2.1449,-2.1214,-2.0949,-2.0353,-1.989,-1.9861,-2.0118,-2.0461,-2.0612,-2.0775,-2.0812,-2.0848,-2.0762,-2.0861,-2.0974,-2.0911,-2.1193,-2.1396,-2.1403,-2.1376,-2.152,-2.176,-2.1573,-2.126,-2.1498,-2.1614,-2.1582,-2.2024,-2.2676,-2.3967,-2.4094,-2.4177,-2.412,-2.4036,-2.4177,-2.4177,-2.4234,-2.4359,-2.4441,-2.4539,-2.4605,-2.4605,-2.4645,-2.4726,-2.4766,-2.4862,-2.4862,-2.4886,-2.4926,-2.4966,-2.5005,-2.5084,-2.5339,-2.5684,-2.6085,-2.6521,-2.6759,-2.699,-2.7004,-2.71,-2.7198,-2.7264,-2.7282,-2.7213,-2.7213,-2.7264,-2.7247,-2.7282,-2.7299,-2.7299,-2.7247,-2.7299,-2.7282,-2.7213,-2.7123,-2.6498,-2.5883,-2.5153,-2.4505,-2.3675,-2.3157,-1.9292,-1.9292,-1.9292,-1.9381,-1.9566,-1.9636,-1.9646,-1.9659,-1.9697,-1.9597,-1.9307,-1.8945,-1.875,-1.8623,-1.8389,-1.8232,-1.8144,-1.861,-1.8977,-1.9358,-1.9846,-2.0322,-2.0696,-2.1026,-2.1279,-2.14,-2.1486,-2.1686,-2.1874,-2.1999,-2.2061,-2.2185,-2.2247,-2.156,-2.109,-2.0928,-2.0746,-2.0237,-1.9747,-1.9681,-1.9926,-2.0182,-2.0334,-2.0511,-2.0662,-2.0699,-2.0712,-2.0848,-2.0898,-2.0762,-2.0947,-2.1046,-2.1122,-2.1144,-2.1326,-2.1335,-2.1134,-2.0803,-2.0734,-2.0998,-2.1591,-2.2381,-2.311,-2.3655,-2.3643,-2.3937,-2.3824,-2.3681,-2.3909,-2.4067,-2.4109,-2.4177,-2.4343,-2.4441,-2.4523,-2.4523,-2.4564,-2.4605,-2.4686,-2.4782,-2.4822,-2.4846,-2.4966,-2.5045,-2.4752,-2.4759,-2.5132,-2.5504,-2.6095,-2.6522,-2.6774,-2.6956,-2.697,-2.7049,-2.7147,-2.7057,-2.6647,-2.6682,-2.6816,-2.6988,-2.7144,-2.7195,-2.7282,-2.7057,-2.6971,-2.7144,-2.7161,-2.6764,-2.654,-2.6743,-2.632,-2.5258,-2.4417,-2.364,-2.3255,-1.9292,-1.9292,-1.9292,-1.9301,-1.939,-1.9557,-1.9559,-1.945,-1.9544,-1.93,-1.8877,-1.8457,-1.8252,-1.8203,-1.8135,-1.8008,-1.8076,-1.8549,-1.8885,-1.9291,-1.9749,-2.0059,-2.0336,-2.0348,-2.0488,-2.0824,-2.1031,-2.1423,-2.1862,-2.18,-2.1999,-2.2135,-2.2037,-2.1512,-2.1005,-2.0294,-1.9897,-1.9787,-1.9515,-1.9525,-1.972,-2.008,-2.0296,-2.0511,-2.0612,-2.0699,-2.0699,-2.0762,-2.0749,-2.0749,-2.0799,-2.0825,-2.0888,-2.0961,-2.1046,-2.114,-2.088,-2.0658,-2.0523,-2.0626,-2.0854,-2.1333,-2.1934,-2.2429,-2.3003,-2.3327,-2.3623,-2.3653,-2.3739,-2.3839,-2.4177,-2.4261,-2.4343,-2.44,-2.44,-2.44,-2.4389,-2.4384,-2.43,-2.4295,-2.4554,-2.4751,-2.491,-2.5123,-2.4728,-2.4458,-2.4899,-2.5335,-2.5798,-2.6268,-2.6451,-2.6514,-2.6475,-2.6319,-2.6364,-2.6138,-2.5893,-2.6113,-2.6337,-2.644,-2.6613,-2.7178,-2.7195,-2.6937,-2.6523,-2.6385,-2.6212,-2.5971,-2.5954,-2.6208,-2.5779,-2.4938,-2.42,-2.3543,-2.335,-1.9292,-1.9292,-1.9292,-1.9292,-1.9301,-1.9469,-1.9329,-1.9146,-1.9345,-1.9149,-1.8543,-1.8203,-1.8008,-1.8008,-1.8008,-1.8008,-1.8076,-1.8337,-1.8741,-1.9038,-1.923,-1.9576,-1.9684,-1.9835,-1.9953,-2.0279,-2.0377,-2.07,-2.121,-2.1336,-2.1411,-2.1502,-2.1537,-2.0972,-2.0586,-1.9588,-1.9112,-1.934,-1.9324,-1.9473,-1.9668,-1.9978,-2.0233,-2.0461,-2.0599,-2.0699,-2.0699,-2.0699,-2.0699,-2.0699,-2.0699,-2.0762,-2.0825,-2.0924,-2.101,-2.1059,-2.0975,-2.0871,-2.0813,-2.0831,-2.067,-2.105,-2.1669,-2.2088,-2.2366,-2.2864,-2.3231,-2.326,-2.3392,-2.3653,-2.3952,-2.3867,-2.4036,-2.4109,-2.4135,-2.4147,-2.3963,-2.3891,-2.3801,-2.374,-2.3959,-2.392,-2.4083,-2.4211,-2.45,-2.4344,-2.4837,-2.506,-2.5061,-2.5522,-2.589,-2.5885,-2.578,-2.5589,-2.535,-2.5291,-2.5283,-2.5416,-2.5618,-2.567,-2.5928,-2.6492,-2.6609,-2.6074,-2.5695,-2.5505,-2.5419,-2.5385,-2.5505,-2.5678,-2.5068,-2.4408,-2.3859,-2.327,-2.3309,-1.9292,-1.9292,-1.9292,-1.9292,-1.9256,-1.9292,-1.9034,-1.8704,-1.9005,-1.9017,-1.8562,-1.8203,-1.8008,-1.8008,-1.8008,-1.8008,-1.8076,-1.8144,-1.8279,-1.8422,-1.8802,-1.8916,-1.9013,-1.9236,-1.9392,-1.9562,-1.9671,-1.9857,-2.0291,-2.042,-2.056,-2.0583,-2.0478,-2.0245,-2.0411,-1.954,-1.9395,-1.9927,-1.9564,-1.951,-1.9617,-1.9914,-2.0131,-2.0283,-2.0498,-2.0649,-2.0699,-2.0699,-2.0699,-2.0699,-2.0699,-2.0699,-2.0749,-2.0875,-2.0974,-2.1006,-2.1086,-2.1016,-2.0923,-2.1276,-2.1183,-2.091,-2.1427,-2.2323,-2.2538,-2.277,-2.2859,-2.2844,-2.2904,-2.3024,-2.3172,-2.3348,-2.3711,-2.3894,-2.3921,-2.3834,-2.3661,-2.3357,-2.325,-2.3219,-2.2916,-2.2674,-2.2875,-2.3158,-2.3842,-2.4251,-2.4791,-2.488,-2.4671,-2.4847,-2.5266,-2.521,-2.5088,-2.4747,-2.4543,-2.4603,-2.4663,-2.479,-2.4854,-2.4888,-2.5021,-2.5394,-2.5355,-2.5057,-2.4919,-2.4781,-2.485,-2.4936,-2.4798,-2.4585,-2.442,-2.3894,-2.3377,-2.3119,-2.321,-1.9058,-1.8761,-1.9113,-1.9058,-1.8797,-1.9113,-1.9068,-1.8807,-1.8711,-1.8629,-1.8533,-1.8193,-1.8008,-1.8008,-1.8008,-1.8008,-1.8076,-1.8472,-1.8539,-1.8509,-1.8685,-1.8792,-1.8777,-1.867,-1.875,-1.9003,-1.9075,-1.9396,-1.9966,-1.9911,-2.0172,-2.0275,-1.9722,-1.9536,-1.9502,-1.9119,-1.9238,-1.9364,-1.9283,-1.9316,-1.946,-1.9772,-2.0016,-2.0169,-2.0448,-2.0612,-2.0712,-2.0699,-2.0699,-2.0699,-2.0699,-2.0699,-2.0749,-2.0861,-2.0961,-2.0988,-2.0973,-2.0753,-2.0709,-2.0865,-2.0854,-2.0784,-2.1197,-2.2012,-2.1806,-2.2218,-2.2377,-2.2586,-2.2618,-2.2889,-2.3246,-2.3523,-2.3809,-2.383,-2.3793,-2.355,-2.3302,-2.2855,-2.264,-2.27,-2.2521,-2.2613,-2.2749,-2.2762,-2.3291,-2.3598,-2.4032,-2.4315,-2.4204,-2.4399,-2.4681,-2.4523,-2.4333,-2.396,-2.3723,-2.376,-2.3636,-2.3608,-2.3824,-2.4041,-2.4224,-2.4419,-2.4414,-2.4304,-2.4212,-2.4109,-2.4022,-2.3884,-2.3628,-2.3423,-2.3502,-2.3589,-2.328,-2.3144,-2.3193,-1.8985,-1.8425,-1.8816,-1.8697,-1.8384,-1.8985,-1.916,-1.8891,-1.825,-1.8145,-1.8385,-1.8065,-1.793,-1.8008,-1.8008,-1.8008,-1.8076,-1.8347,-1.8549,-1.8509,-1.8532,-1.8471,-1.8358,-1.8191,-1.8292,-1.8489,-1.8607,-1.8798,-1.9187,-1.9452,-1.9425,-1.9241,-1.9105,-1.8814,-1.87,-1.8658,-1.8839,-1.8994,-1.9158,-1.9287,-1.9473,-1.9668,-1.9978,-2.0182,-2.0398,-2.0562,-2.0649,-2.0699,-2.0699,-2.0699,-2.0699,-2.0699,-2.0749,-2.0848,-2.0947,-2.0935,-2.1097,-2.0781,-2.0576,-2.0904,-2.0668,-1.9753,-2.0779,-2.1527,-2.1654,-2.2094,-2.2314,-2.2449,-2.2526,-2.2709,-2.3024,-2.3334,-2.3445,-2.3453,-2.3355,-2.3096,-2.2548,-2.2086,-2.183,-2.192,-2.1916,-2.2164,-2.2501,-2.2678,-2.2836,-2.3009,-2.3177,-2.3438,-2.3625,-2.3765,-2.386,-2.3735,-2.3562,-2.3253,-2.2965,-2.2841,-2.2683,-2.2483,-2.2846,-2.3346,-2.3367,-2.3543,-2.3553,-2.3581,-2.3478,-2.335,-2.3022,-2.2824,-2.3015,-2.3068,-2.3119,-2.3142,-2.3095,-2.3144,-2.3168,-1.8985,-1.8407,-1.8389,-1.8172,-1.7983,-1.8766,-1.9012,-1.8863,-1.7735,-1.7745,-1.836,-1.7908,-1.7813,-1.7901,-1.7988,-1.7969,-1.7969,-1.8037,-1.8076,-1.8076,-1.817,-1.8114,-1.8027,-1.7968,-1.7947,-1.7948,-1.7996,-1.7942,-1.8237,-1.8476,-1.8284,-1.804,-1.8208,-1.8111,-1.808,-1.8162,-1.8548,-1.8881,-1.9105,-1.9223,-1.9368,-1.9617,-1.9875,-2.0131,-2.0347,-2.0511,-2.0649,-2.0699,-2.0699,-2.0699,-2.0712,-2.0699,-2.0762,-2.0838,-2.0911,-2.1064,-2.1418,-2.0882,-2.0603,-2.1002,-2.0737,-2.002,-2.1004,-2.1791,-2.2104,-2.2016,-2.2249,-2.2263,-2.231,-2.237,-2.2509,-2.2626,-2.2732,-2.2695,-2.2656,-2.2261,-2.1664,-2.1275,-2.0962,-2.0844,-2.074,-2.0957,-2.1537,-2.1821,-2.2207,-2.2359,-2.2443,-2.2455,-2.2621,-2.2681,-2.2757,-2.2815,-2.2671,-2.2542,-2.2372,-2.2389,-2.2417,-2.2377,-2.246,-2.2788,-2.2767,-2.2838,-2.3003,-2.3064,-2.284,-2.2712,-2.2712,-2.2738,-2.2808,-2.285,-2.2944,-2.302,-2.3077,-2.3095,-2.3144,-1.8985,-1.8475,-1.8552,-1.8315,-1.7821,-1.7971,-1.8165,-1.8295,-1.7794,-1.793,-1.836,-1.7908,-1.76,-1.7607,-1.7871,-1.7793,-1.7783,-1.7842,-1.7969,-1.7988,-1.7939,-1.7988,-1.7891,-1.7715,-1.7617,-1.748,-1.7344,-1.7207,-1.7248,-1.7451,-1.7529,-1.7345,-1.7472,-1.7513,-1.7712,-1.7831,-1.8387,-1.8827,-1.9052,-1.9158,-1.9263,-1.946,-1.9772,-2.0042,-2.0182,-2.0385,-2.0599,-2.0599,-2.0599,-2.0649,-2.0762,-2.0812,-2.0699,-2.0934,-2.1086,-2.0772,-2.069,-2.047,-2.057,-2.0243,-2.0063,-2.0286,-2.0862,-2.106,-2.1468,-2.1791,-2.2002,-2.203,-2.1945,-2.1981,-2.2093,-2.2219,-2.2178,-2.2093,-2.2014,-2.1645,-2.1095,-2.0859,-2.0582,-2.0489,-2.0354,-2.0469,-2.0949,-2.1169,-2.1499,-2.1664,-2.1778,-2.1773,-2.1856,-2.1982,-2.2106,-2.2214,-2.2299,-2.2321,-2.2349,-2.2383,-2.2338,-2.2366,-2.2432,-2.247,-2.2576,-2.2664,-2.2667,-2.2703,-2.2712,-2.2712,-2.2712,-2.2738,-2.2747,-2.2799,-2.2876,-2.2977,-2.3052,-2.3077,-2.3144,-1.8434,-1.7947,-1.8004,-1.7687,-1.7036,-1.6988,-1.704,-1.7067,-1.7134,-1.7394,-1.7615,-1.7197,-1.7111,-1.7309,-1.7474,-1.7551,-1.7461,-1.7803,-1.793,-1.7725,-1.7764,-1.7734,-1.7607,-1.7383,-1.7295,-1.7139,-1.6992,-1.6836,-1.6723,-1.6815,-1.6901,-1.6968,-1.6971,-1.7291,-1.7634,-1.7941,-1.8387,-1.8774,-1.9052,-1.9105,-1.921,-1.9368,-1.9681,-1.9939,-2.0016,-2.0118,-2.0334,-2.0334,-2.0283,-2.0385,-2.0549,-2.0662,-2.057,-2.0748,-2.104,-2.0772,-2.0612,-2.0625,-2.0688,-2.0418,-2.0281,-2.0255,-2.034,-2.0441,-2.0653,-2.0934,-2.1355,-2.1682,-2.1538,-2.1499,-2.1711,-2.1816,-2.171,-2.1532,-2.1293,-2.1063,-2.0804,-2.0516,-2.0412,-2.035,-2.0373,-2.0426,-2.0559,-2.0695,-2.0924,-2.1247,-2.1504,-2.1596,-2.1699,-2.1877,-2.1974,-2.2106,-2.222,-2.2332,-2.2349,-2.2349,-2.2366,-2.2366,-2.2405,-2.2443,-2.2515,-2.2552,-2.2632,-2.2659,-2.2712,-2.2712,-2.2712,-2.2712,-2.2738,-2.2773,-2.2825,-2.2902,-2.2977,-2.307,-2.3144,-1.7705,-1.7161,-1.7162,-1.6758,-1.5877,-1.6224,-1.5996,-1.5467,-1.6017,-1.6372,-1.6468,-1.6272,-1.6514,-1.685,-1.7127,-1.7229,-1.7295,-1.7568,-1.7637,-1.7344,-1.7324,-1.7324,-1.7197,-1.6934,-1.6836,-1.6963,-1.6826,-1.6357,-1.6488,-1.6475,-1.6487,-1.6765,-1.6775,-1.7043,-1.7523,-1.7843,-1.817,-1.8614,-1.8839,-1.8893,-1.9158,-1.9368,-1.9577,-1.9875,-1.9811,-1.9708,-1.9811,-1.9759,-1.9565,-1.985,-2.0169,-2.0385,-2.0411,-2.0167,-2.0494,-2.0563,-2.0329,-2.0366,-2.0378,-2.0164,-1.9917,-1.9807,-1.9739,-1.981,-1.9992,-2.0442,-2.092,-2.1102,-2.1018,-2.1004,-2.1138,-2.1125,-2.098,-2.0922,-2.0768,-2.0588,-2.0476,-2.0347,-2.0366,-2.0304,-2.0339,-2.0407,-2.0475,-2.061,-2.0711,-2.1006,-2.1183,-2.1309,-2.1481,-2.1711,-2.1873,-2.1986,-2.2124,-2.2271,-2.2338,-2.2338,-2.2394,-2.2394,-2.2405,-2.2432,-2.246,-2.2525,-2.2605,-2.2659,-2.2712,-2.2712,-2.2712,-2.2712,-2.2712,-2.2764,-2.279,-2.2825,-2.2902,-2.2995,-2.307,-1.7999,-1.7797,-1.756,-1.6967,-1.6215,-1.6254,-1.5834,-1.5204,-1.5277,-1.5706,-1.6104,-1.6384,-1.6353,-1.6229,-1.6922,-1.6967,-1.668,-1.7187,-1.7207,-1.7002,-1.6885,-1.6885,-1.6797,-1.6455,-1.6357,-1.6182,-1.6006,-1.59,-1.6019,-1.5999,-1.6065,-1.6267,-1.6389,-1.6729,-1.728,-1.7512,-1.7843,-1.841,-1.841,-1.8572,-1.8839,-1.8958,-1.9052,-1.9251,-1.9251,-1.9356,-1.946,-1.9473,-1.942,-1.9565,-1.9978,-2.0215,-2.0298,-1.9668,-1.9561,-1.9777,-1.9642,-1.9704,-1.9833,-1.9702,-1.9374,-1.9525,-1.9583,-1.9391,-1.9517,-2.0048,-2.04,-2.0484,-2.0498,-2.0484,-2.0486,-2.0393,-2.0308,-2.0247,-2.0243,-2.0192,-2.0166,-2.0235,-2.027,-2.0304,-2.0354,-2.0388,-2.0457,-2.0509,-2.0577,-2.0728,-2.0909,-2.1039,-2.123,-2.1435,-2.1711,-2.184,-2.1989,-2.2119,-2.226,-2.2338,-2.2394,-2.2394,-2.2394,-2.2405,-2.2432,-2.2515,-2.2605,-2.2659,-2.2712,-2.2712,-2.2712,-2.2712,-2.2712,-2.2738,-2.2764,-2.279,-2.2799,-2.2876,-2.2952,-1.7505,-1.7406,-1.733,-1.6881,-1.6349,-1.612,-1.568,-1.5184,-1.5111,-1.5182,-1.5309,-1.5638,-1.5707,-1.568,-1.636,-1.6597,-1.6211,-1.6787,-1.6748,-1.6543,-1.6436,-1.6436,-1.625,-1.6025,-1.6055,-1.5939,-1.5743,-1.5654,-1.5642,-1.5826,-1.5989,-1.5899,-1.5987,-1.6419,-1.6927,-1.7092,-1.7468,-1.8084,-1.7995,-1.8147,-1.8417,-1.8536,-1.8827,-1.9028,-1.9028,-1.9081,-1.9052,-1.9064,-1.9105,-1.9245,-1.9636,-1.9528,-1.942,-1.8917,-1.8967,-1.9133,-1.9118,-1.8936,-1.9225,-1.9244,-1.9042,-1.9426,-1.9617,-1.9568,-1.9239,-1.9712,-1.9768,-1.9838,-1.9487,-1.9431,-1.9697,-1.9712,-1.9672,-1.9633,-1.9782,-1.9888,-2.0045,-2.0235,-2.027,-2.0304,-2.0339,-2.0354,-2.0423,-2.0457,-2.0509,-2.0646,-2.0795,-2.0877,-2.1038,-2.1247,-2.1497,-2.1708,-2.1861,-2.2062,-2.2276,-2.2338,-2.2366,-2.2394,-2.2394,-2.2394,-2.2405,-2.2487,-2.2579,-2.2632,-2.2685,-2.2712,-2.2712,-2.2712,-2.2712,-2.2712,-2.2738,-2.2738,-2.2773,-2.2799,-2.285,-1.6857,-1.6682,-1.6839,-1.6642,-1.6221,-1.5863,-1.5432,-1.5056,-1.501,-1.4836,-1.4616,-1.4598,-1.4916,-1.5336,-1.5638,-1.5843,-1.6062,-1.6445,-1.6328,-1.6084,-1.5986,-1.5977,-1.5859,-1.5664,-1.5732,-1.5792,-1.5742,-1.5565,-1.5504,-1.5646,-1.5675,-1.5532,-1.5866,-1.6364,-1.659,-1.695,-1.7335,-1.7532,-1.7585,-1.7574,-1.7847,-1.8174,-1.8448,-1.8631,-1.8679,-1.8519,-1.8531,-1.8548,-1.859,-1.859,-1.8796,-1.871,-1.8531,-1.8208,-1.8429,-1.8552,-1.8435,-1.8604,-1.903,-1.9222,-1.9418,-1.9693,-1.9806,-1.977,-1.9473,-1.9433,-1.9489,-1.9209,-1.8857,-1.8728,-1.9033,-1.918,-1.9152,-1.9265,-1.9472,-1.9711,-1.9975,-2.0235,-2.027,-2.027,-2.0304,-2.0354,-2.0354,-2.0388,-2.0475,-2.0579,-2.0679,-2.0745,-2.0893,-2.1103,-2.1325,-2.1587,-2.1794,-2.2015,-2.2237,-2.231,-2.2338,-2.2338,-2.2338,-2.2366,-2.2377,-2.2487,-2.2525,-2.2605,-2.2632,-2.2685,-2.2712,-2.2712,-2.2712,-2.2712,-2.2712,-2.2738,-2.2738,-2.2747,-2.2747,-1.6899,-1.683,-1.6899,-1.6496,-1.5863,-1.5725,-1.5294,-1.4698,-1.4643,-1.457,-1.4533,-1.4515,-1.4758,-1.5172,-1.5817,-1.5937,-1.5723,-1.6035,-1.5879,-1.5596,-1.5625,-1.5576,-1.5537,-1.5518,-1.5478,-1.5527,-1.5604,-1.5484,-1.5342,-1.5345,-1.5259,-1.4961,-1.5338,-1.5797,-1.6211,-1.6546,-1.6807,-1.6906,-1.6826,-1.676,-1.6707,-1.7006,-1.7402,-1.7583,-1.7635,-1.7635,-1.7716,-1.7997,-1.7936,-1.7756,-1.7618,-1.7604,-1.7593,-1.7557,-1.7695,-1.7906,-1.779,-1.7956,-1.8336,-1.8728,-1.903,-1.9744,-1.9908,-2.0307,-2.0086,-1.997,-1.9765,-1.9238,-1.8889,-1.8632,-1.8782,-1.8935,-1.8988,-1.925,-1.9493,-1.9747,-2.0045,-2.015,-2.0185,-2.027,-2.0304,-2.0304,-2.0304,-2.0339,-2.0373,-2.046,-2.0545,-2.0628,-2.081,-2.1006,-2.1167,-2.1433,-2.1691,-2.1932,-2.2168,-2.2254,-2.231,-2.231,-2.231,-2.2338,-2.2377,-2.2443,-2.2497,-2.2552,-2.2632,-2.2668,-2.2685,-2.2685,-2.2712,-2.2712,-2.2712,-2.2712,-2.2712,-2.2712,-2.2738]}]]